Date StartTime U_cm/s V_cm/s W_cm/s Ustd_cm/s Vstd_cm/s Wstd_cm/s Uvar_(cm/s)^2 Vvar_(cm/s)^2 Wvar_(cm/s)^2 KE_(m/s)^2 TurbulentKE_(m/s)^2 HorizWindSpeed_cm/s FrictionSpeec_cm/s DragCoef SpeedOfSound_m/s SonicTemperature_C Pressure_mb 
04/26/2014  00:00:00     -135.017      -45.797       -6.212       33.276       31.852       20.906     1107.293     1014.521      437.042        1.146        0.128      142.573       13.356        0.009      334.202        4.018      851.117
04/26/2014  00:01:00     -101.925      -55.160       -5.645       38.107       29.815       18.660     1452.107      888.938      348.192        0.808        0.134      115.893       13.839        0.014      334.234        4.073      851.139
04/26/2014  00:02:00     -103.503      -64.879       -0.250       35.071       34.043       20.027     1229.980     1158.921      401.085        0.886        0.139      122.157       13.378        0.012      334.249        4.098      851.160
04/26/2014  00:03:00      -38.191      -25.266        9.306       26.128       31.019       19.092      682.682      962.206      364.501        0.210        0.100       45.792       16.354        0.128      334.308        4.196      851.186
04/26/2014  00:04:00      -63.757      -30.636       -4.020       21.542       23.731       14.512      464.066      563.158      210.597        0.313        0.062       70.735       14.707        0.043      334.259        4.117      851.202
04/26/2014  00:05:00      -59.790      -33.529        1.649       30.805       30.535       18.268      948.945      932.369      333.704        0.346        0.111       68.550       17.537        0.065      334.359        4.281      851.214
04/26/2014  00:06:00      -99.868      -48.862        1.073       48.992       43.447       24.618     2400.235     1887.667      606.056        0.863        0.245      111.181       24.612        0.049      334.388        4.329      851.231
04/26/2014  00:07:00     -108.398      -46.665       -5.875       41.797       35.138       21.212     1746.968     1234.689      449.960        0.870        0.172      118.016       22.598        0.037      334.300        4.182      851.250
04/26/2014  00:08:00      -58.709      -16.919        7.594       47.038       36.462       24.977     2212.613     1329.495      623.852        0.398        0.208       61.098       26.596        0.189      334.385        4.323      851.258
04/26/2014  00:09:00      -39.147      -46.483       12.978       43.222       36.395       22.322     1868.123     1324.610      498.260        0.378        0.185       60.771       27.658        0.207      334.408        4.363      851.272
04/26/2014  00:10:00      -87.704      -16.016       -5.174       38.696       34.282       19.698     1497.399     1175.238      387.995        0.552        0.153       89.154       21.893        0.060      334.346        4.260      851.279
04/26/2014  00:11:00     -106.345      -12.322      -16.888       49.818       38.028       22.398     2481.868     1446.119      501.691        0.809        0.221      107.056       13.302        0.015      334.289        4.164      851.285
04/26/2014  00:12:00     -129.082      -88.071       -8.678       33.936       42.170       18.152     1151.659     1778.284      329.487        1.388        0.163      156.265       14.670        0.009      334.260        4.115      851.296
04/26/2014  00:13:00      -54.916      -70.649        2.685       56.409       63.078       35.237     3181.989     3978.780     1241.660        0.821        0.420       89.482       36.869        0.170      334.328        4.228      851.308
04/26/2014  00:14:00      -42.863      -45.081       16.802       60.478       30.803       30.440     3657.539      948.817      926.621        0.484        0.277       62.206       36.911        0.352      334.358        4.279      851.310
04/26/2014  00:15:00     -139.595      -19.983       -5.858       63.930       36.376       25.093     4087.040     1323.210      629.667        1.298        0.302      141.018       29.622        0.044      334.262        4.119      851.313
04/26/2014  00:16:00     -140.077      -33.238        0.174       57.355       38.687       31.762     3289.541     1496.659     1008.818        1.326        0.290      143.966       35.199        0.060      334.225        4.056      851.327
04/26/2014  00:17:00     -130.758      -75.680       -5.491       44.934       36.573       24.598     2019.071     1337.598      605.074        1.341        0.198      151.080       20.623        0.019      334.254        4.105      851.345
04/26/2014  00:18:00     -112.522      -34.113        3.038       45.117       40.598       21.247     2035.508     1648.228      451.448        0.898        0.207      117.579       17.754        0.023      334.292        4.169      851.353
04/26/2014  00:19:00     -119.569      -13.260       -5.042       48.452       30.389       25.401     2347.611      923.485      645.192        0.921        0.196      120.302       23.977        0.040      334.243        4.088      851.362
04/26/2014  00:20:00     -136.774      -31.151        0.260       46.439       42.024       34.094     2156.541     1766.005     1162.403        1.238        0.254      140.277       32.970        0.055      334.253        4.104      851.374
04/26/2014  00:21:00     -194.413      -43.215        4.626       73.332       67.930       39.458     5377.532     4614.422     1556.948        2.561        0.577      199.158       35.957        0.033      334.218        4.041      851.379
04/26/2014  00:22:00     -116.516      -26.010        5.962       63.983       48.651       33.883     4093.818     2366.943     1148.076        1.095        0.380      119.384       31.981        0.072      334.245        4.089      851.386
04/26/2014  00:23:00      -86.751      -17.621        5.463       46.096       45.663       26.763     2124.821     2085.067      716.260        0.640        0.246       88.523       25.050        0.080      334.280        4.151      851.403
04/26/2014  00:24:00      -31.454       -7.082       22.469       68.317       50.753       31.256     4667.249     2575.883      976.956        0.488        0.411       32.241       36.997        1.317      334.346        4.259      851.409
04/26/2014  00:25:00     -109.986      -65.523       -5.755       58.587       42.843       31.836     3432.493     1835.536     1013.521        1.135        0.314      128.024       32.760        0.065      334.302        4.186      851.402
04/26/2014  00:26:00     -108.610     -105.772        3.573       83.548       60.997       44.823     6980.351     3720.628     2009.114        1.785        0.636      151.604       44.599        0.087      334.332        4.234      851.397
04/26/2014  00:27:00     -129.362      -84.099       -5.974       67.041       61.535       36.285     4494.542     3786.578     1316.592        1.672        0.480      154.295       37.291        0.058      334.290        4.163      851.407
04/26/2014  00:28:00     -160.941      -43.901       -8.605       54.586       37.873       27.101     2979.587     1434.362      734.489        1.652        0.257      166.821       25.710        0.024      334.233        4.069      851.409
04/26/2014  00:29:00     -158.741      -12.685       -3.263       45.476       51.656       27.271     2068.049     2668.362      743.695        1.542        0.274      159.247       23.814        0.022      334.221        4.052      851.409
04/26/2014  00:30:00      -93.229      -13.343        6.209       47.779       30.250       22.976     2282.844      915.083      527.877        0.632        0.186       94.179       22.837        0.059      334.258        4.113      851.405
04/26/2014  00:31:00     -136.274      -43.608       -5.049       31.959       34.998       23.849     1021.347     1224.838      568.787        1.166        0.141      143.081       23.434        0.027      334.192        4.002      851.397
04/26/2014  00:32:00     -172.694      -84.685        0.344       54.939       43.765       34.445     3018.267     1915.340     1186.429        2.156        0.306      192.340       32.385        0.028      334.235        4.072      851.393
04/26/2014  00:33:00     -151.499      -51.161       -4.311       39.677       40.917       20.316     1574.248     1674.169      412.737        1.462        0.183      159.904        7.632        0.002      334.221        4.050      851.393
04/26/2014  00:34:00     -105.929      -37.159       -0.396       32.289       37.765       18.811     1042.583     1426.207      353.870        0.771        0.141      112.257       19.286        0.030      334.228        4.061      851.387
04/26/2014  00:35:00      -91.709      -16.148       -4.745       33.891       27.237       19.915     1148.579      741.881      396.626        0.549        0.114       93.120       20.665        0.049      334.250        4.100      851.383
04/26/2014  00:36:00      -85.052       51.109       -9.708       43.737       48.091       29.752     1912.906     2312.791      885.201        0.752        0.256       99.227       26.597        0.072      334.195        4.008      851.385
04/26/2014  00:37:00     -140.975       30.034      -14.903       43.652       39.307       23.938     1905.516     1545.046      573.025        1.251        0.201      144.139       23.169        0.026      334.197        4.010      851.383
04/26/2014  00:38:00      -94.823      -22.746      -12.195       33.771       43.901       21.071     1140.461     1927.279      443.972        0.658        0.176       97.513       13.456        0.019      334.257        4.111      851.381
04/26/2014  00:39:00      -25.709       19.453        1.180       28.450       14.587       18.489      809.374      212.768      341.861        0.120        0.068       32.239       16.386        0.258      334.386        4.324      851.377
04/26/2014  00:40:00      -50.574      -18.800        7.022       31.983       30.636       17.964     1022.895      938.576      322.691        0.262        0.114       53.955       20.277        0.141      334.388        4.330      851.370
04/26/2014  00:41:00      -36.216      -41.536        0.358       27.763       15.668       17.722      770.784      245.484      314.069        0.218        0.067       55.108       14.788        0.072      334.319        4.214      851.353
04/26/2014  00:42:00      -43.777      -19.461       -7.807       24.800       21.294       13.183      615.064      453.417      173.779        0.180        0.062       47.907       10.032        0.044      334.275        4.141      851.348
04/26/2014  00:43:00      -63.168       17.515       -2.697       32.622       19.426       16.216     1064.167      377.388      262.973        0.300        0.085       65.551       18.525        0.080      334.306        4.193      851.350
04/26/2014  00:44:00      -20.051       10.007        5.587       23.353       13.553       13.928      545.369      183.673      194.001        0.073        0.046       22.410       15.266        0.464      334.420        4.381      851.336
04/26/2014  00:45:00       14.427       11.712        8.768       14.250       16.453       12.296      203.056      270.697      151.201        0.052        0.031       18.582       10.284        0.306      334.377        4.311      851.305
04/26/2014  00:46:00       -2.437       90.986       -7.858       13.227       34.307       14.391      174.961     1176.942      207.109        0.495        0.078       91.019       10.071        0.012      334.338        4.246      851.272
04/26/2014  00:47:00        5.241      102.987      -13.317       10.200       23.282        8.094      104.032      542.037       65.509        0.576        0.036      103.120        8.340        0.007      334.249        4.098      851.243
04/26/2014  00:48:00       29.324       25.625        2.645       39.820       22.518       18.873     1585.605      507.067      356.174        0.199        0.122       38.942       18.208        0.219      334.374        4.307      851.203
04/26/2014  00:49:00      104.499       47.921       12.375       29.530       24.662       26.242      872.033      608.221      688.646        0.777        0.108      114.962       16.328        0.020      334.289        4.165      851.161
04/26/2014  00:50:00       35.881       24.604       10.833       49.763       35.837       27.832     2476.363     1284.264      774.594        0.327        0.227       43.507       11.991        0.076      334.336        4.243      851.127
04/26/2014  00:51:00       53.059       49.004       -0.267       29.752       33.157       20.700      885.192     1099.375      428.490        0.381        0.121       72.226       17.712        0.060      334.333        4.238      851.106
04/26/2014  00:52:00       54.669       49.890       -0.860       40.649       20.166       17.413     1652.354      406.678      303.218        0.392        0.118       74.012       10.820        0.021      334.283        4.155      851.071
04/26/2014  00:53:00       19.182       55.904       -8.552       19.397       30.164       14.489      376.258      909.884      209.932        0.253        0.075       59.103       17.058        0.083      334.272        4.137      851.049
04/26/2014  00:54:00       -9.909       97.068      -19.667       15.458       15.153        8.630      238.937      229.611       74.482        0.522        0.027       97.572        5.513        0.003      334.254        4.105      851.031
04/26/2014  00:55:00       -0.201       49.394       -9.067        7.370       17.744        7.536       54.320      314.854       56.785        0.147        0.021       49.395        9.692        0.038      334.236        4.075      851.021
04/26/2014  00:56:00      -23.840        5.984       -5.459       32.668       18.430       11.852     1067.201      339.663      140.472        0.109        0.077       24.579       14.291        0.338      334.335        4.241      851.023
04/26/2014  00:57:00     -133.020       -4.001      -19.434       49.254       23.657       15.506     2425.966      559.637      240.423        1.066        0.161      133.081       17.592        0.017      334.305        4.190      851.036
04/26/2014  00:58:00     -148.797      -63.570      -19.639       53.009       41.038       29.247     2809.929     1684.103      855.414        1.596        0.267      161.808       24.054        0.022      334.320        4.215      851.060
04/26/2014  00:59:00      -32.367      -45.125       -4.092       39.894       36.524       28.683     1591.555     1333.977      822.711        0.342        0.187       55.532       18.929        0.116      334.394        4.338      851.062
04/26/2014  01:00:00      -71.328       10.822       -4.495       47.402       35.172       24.878     2246.965     1237.041      618.936        0.466        0.205       72.144       17.242        0.057      334.346        4.258      851.078
04/26/2014  01:01:00      -49.243       33.000      -10.208       28.326       50.059       19.945      802.370     2505.916      397.792        0.366        0.185       59.278       14.302        0.058      334.373        4.302      851.088
04/26/2014  01:02:00      -47.186       35.360      -15.798       31.007       28.436       21.834      961.443      808.625      476.703        0.299        0.112       58.965       16.325        0.077      334.353        4.269      851.092
04/26/2014  01:03:00       11.429       37.680       -6.956       25.580       17.738       16.384      654.350      314.649      268.423        0.142        0.062       39.375        4.570        0.013      334.421        4.382      851.078
04/26/2014  01:04:00       17.924       36.531        2.311       17.627       14.257       17.881      310.719      203.251      319.732        0.125        0.042       40.692       13.264        0.106      334.393        4.337      851.063
04/26/2014  01:05:00       32.848       40.307        3.932       24.949       22.218       14.001      622.461      493.636      196.027        0.202        0.066       51.997       11.789        0.051      334.367        4.293      851.060
04/26/2014  01:06:00       59.114       42.378       -5.047       21.169       14.844       12.536      448.135      220.332      157.139        0.307        0.041       72.735        8.636        0.014      334.278        4.145      851.068
04/26/2014  01:07:00       16.201       18.043       -2.087       21.975       12.167       12.980      482.919      148.036      168.483        0.070        0.040       24.249       13.682        0.318      334.324        4.223      851.079
04/26/2014  01:08:00      -24.070      -10.323       -3.544       29.248       16.046       15.308      855.450      257.477      234.335        0.102        0.067       26.190       12.204        0.217      334.371        4.299      851.092
04/26/2014  01:09:00      -49.121      -15.601       -0.936       16.651       14.551       17.505      277.269      211.727      306.434        0.173        0.040       51.539        5.116        0.010      334.340        4.247      851.102
04/26/2014  01:10:00      -64.870       10.795       -2.189        9.575        9.707        9.829       91.689       94.226       96.612        0.231        0.014       65.762        4.561        0.005      334.384        4.320      851.127
04/26/2014  01:11:00      -17.296        7.974        4.618       24.314       15.330       17.370      591.164      235.023      301.733        0.076        0.056       19.046       13.784        0.524      334.353        4.270      851.146
04/26/2014  01:12:00       -8.649       27.891        3.421       12.269       13.454       13.671      150.525      181.011      186.885        0.069        0.026       29.202        8.553        0.086      334.281        4.152      851.163
04/26/2014  01:13:00      -30.281       18.745      -11.084       16.407       19.950       15.022      269.189      398.002      225.660        0.114        0.045       35.613       12.793        0.129      334.344        4.254      851.191
04/26/2014  01:14:00       -0.224       41.847        0.232       15.989       14.614       15.288      255.637      213.576      233.735        0.123        0.035       41.848       10.173        0.059      334.296        4.177      851.205
04/26/2014  01:15:00       25.224       57.241      -11.478       24.450       24.977       13.311      597.816      623.826      177.176        0.272        0.070       62.552       13.842        0.049      334.245        4.090      851.196
04/26/2014  01:16:00      -13.232       62.886      -18.925       30.773       33.391       19.219      946.974     1114.940      369.381        0.346        0.122       64.263        7.163        0.012      334.336        4.242      851.195
04/26/2014  01:17:00      -34.599       50.504       -6.770       32.967       28.382       21.229     1086.828      805.560      450.655        0.307        0.117       61.218       18.174        0.088      334.381        4.317      851.196
04/26/2014  01:18:00      -14.815       55.038       -8.659       46.920       31.967       16.617     2201.447     1021.867      276.124        0.341        0.175       56.997       20.641        0.131      334.285        4.157      851.184
04/26/2014  01:19:00       53.474       28.322       -2.247       13.634       13.860       11.506      185.880      192.103      132.392        0.209        0.026       60.511        2.847        0.002      334.250        4.099      851.153
04/26/2014  01:20:00       82.721       42.284       -5.540       27.426       22.958       22.774      752.182      527.061      518.656        0.523        0.090       92.902       14.088        0.023      334.266        4.126      851.139
04/26/2014  01:21:00       58.960       32.376       -0.278       29.723       19.989       16.774      883.478      399.550      281.365        0.304        0.078       67.264       10.608        0.025      334.331        4.234      851.129
04/26/2014  01:22:00       49.738       37.201      -15.297       22.365       19.071       13.644      500.175      363.707      186.159        0.257        0.053       62.111        5.506        0.008      334.356        4.275      851.136
04/26/2014  01:23:00       34.393       28.969       -2.290       36.057       27.721       21.798     1300.134      768.458      475.144        0.229        0.127       44.968       17.167        0.146      334.369        4.296      851.143
04/26/2014  01:24:00       24.581       19.068        9.114       26.916       23.599       23.385      724.462      556.933      546.851        0.144        0.091       31.109       17.183        0.305      334.292        4.169      851.153
04/26/2014  01:25:00       46.120       46.896       -2.506       23.289       26.324       19.864      542.362      692.938      394.576        0.298        0.081       65.775       15.212        0.053      334.272        4.136      851.155
04/26/2014  01:26:00       57.623       54.088        1.599       29.683       22.331       21.988      881.067      498.666      483.470        0.406        0.093       79.031       14.374        0.033      334.208        4.029      851.160
04/26/2014  01:27:00       56.796       46.734        1.101       22.315       17.216       17.417      497.948      296.406      303.365        0.325        0.055       73.552        8.309        0.013      334.200        4.016      851.172
04/26/2014  01:28:00       63.947       52.962       -1.383       35.375       24.939       21.851     1251.426      621.953      477.464        0.462        0.118       83.031       13.673        0.027      334.168        3.962      851.194
04/26/2014  01:29:00       54.780       51.451        0.742       35.213       23.394       20.909     1239.967      547.289      437.165        0.394        0.111       75.153       13.236        0.031      334.214        4.038      851.204
04/26/2014  01:30:00       62.087       51.637        5.077       34.658       33.231       32.571     1201.207     1104.313     1060.894        0.496        0.168       80.754       25.638        0.101      334.169        3.963      851.213
04/26/2014  01:31:00       50.967       65.026       -0.069       26.183       28.814       19.553      685.549      830.252      382.336        0.436        0.095       82.620       16.445        0.040      334.195        4.008      851.206
04/26/2014  01:32:00       69.739       74.797        2.479       44.847       31.047       26.288     2011.228      963.893      691.080        0.706        0.183      102.265       19.519        0.036      334.157        3.945      851.199
04/26/2014  01:33:00       60.835       64.715       -2.736       29.105       22.925       23.492      847.103      525.557      551.875        0.491        0.096       88.820       11.456        0.017      334.113        3.871      851.198
04/26/2014  01:34:00       48.339       35.902        0.048       29.202       28.154       22.189      852.756      792.625      492.369        0.288        0.107       60.213       17.125        0.081      334.150        3.935      851.190
04/26/2014  01:35:00       56.426       42.922        9.367       19.830       19.218       17.880      393.214      369.347      319.697        0.310        0.054       70.896       15.337        0.047      334.147        3.928      851.176
04/26/2014  01:36:00       56.639       28.978       -1.579       13.563       17.571       16.190      183.957      308.750      262.106        0.240        0.038       63.621        5.168        0.007      334.129        3.899      851.155
04/26/2014  01:37:00       14.863       25.726       -4.491       12.379       13.471       15.007      153.239      181.463      225.219        0.073        0.028       29.711       11.330        0.145      334.162        3.954      851.140
04/26/2014  01:38:00      -20.892       26.280       -4.913       18.308       19.932        7.392      335.173      397.287       54.648        0.097        0.039       33.572        5.221        0.024      334.196        4.008      851.132
04/26/2014  01:39:00      -55.637        5.015       -4.443       17.839       15.047        8.752      318.244      226.414       76.592        0.188        0.031       55.862        4.751        0.007      334.230        4.066      851.127
04/26/2014  01:40:00      -62.116       20.937       -6.656       24.585       18.988       12.000      604.439      360.549      144.000        0.272        0.055       65.549        9.708        0.022      334.233        4.071      851.123
04/26/2014  01:41:00     -104.075       25.215       -7.192       22.707       21.494       15.599      515.629      462.010      243.314        0.637        0.061      107.086       13.568        0.016      334.250        4.101      851.131
04/26/2014  01:42:00     -105.378       14.562       -3.308       39.972       27.853       16.489     1597.758      775.790      271.894        0.699        0.132      106.379       11.390        0.011      334.294        4.172      851.130
04/26/2014  01:43:00      -60.900      -16.494        2.369       46.737       33.557       17.931     2184.325     1126.048      321.518        0.381        0.182       63.094       22.800        0.131      334.358        4.279      851.137
04/26/2014  01:44:00      -50.531      -45.941        9.315       51.924       32.897       25.379     2696.063     1082.207      644.106        0.459        0.221       68.293       33.379        0.239      334.482        4.485      851.140
04/26/2014  01:45:00      -87.527      -55.607       19.357      101.978       66.644       34.697    10399.525     4441.396     1203.867        1.358        0.802      103.698       48.736        0.221      334.522        4.549      851.130
04/26/2014  01:46:00     -143.995      -68.085      -11.695       60.958       94.795       33.029     3715.919     8986.140     1090.907        1.965        0.690      159.280       28.340        0.032      334.477        4.475      851.133
04/26/2014  01:47:00     -106.741      -19.761      -10.264       36.604       22.082       20.201     1339.816      487.599      408.094        0.706        0.112      108.555       14.786        0.019      334.483        4.487      851.137
04/26/2014  01:48:00      -87.242      -33.928       -1.394       34.589       29.787       19.088     1196.410      887.269      364.361        0.561        0.122       93.607       17.784        0.036      334.499        4.512      851.119
04/26/2014  01:49:00     -105.257        3.873       -6.438       53.751       32.263       24.538     2889.178     1040.910      602.101        0.783        0.227      105.328       25.913        0.061      334.504        4.520      851.115
04/26/2014  01:50:00     -106.648       66.703       -7.278       56.821       46.463       31.934     3228.668     2158.806     1019.758        1.114        0.320      125.790       30.774        0.060      334.364        4.288      851.122
04/26/2014  01:51:00     -108.306       25.145       -4.547       56.014       27.067       20.258     3137.566      732.607      410.383        0.833        0.214      111.187       17.084        0.024      334.331        4.232      851.125
04/26/2014  01:52:00     -113.831       29.533       -9.105       18.967       12.472        9.558      359.737      155.540       91.357        0.726        0.030      117.599        5.462        0.002      334.339        4.246      851.110
04/26/2014  01:53:00     -132.561        2.532      -18.349       21.987       12.499       12.849      483.419      156.234      165.095        0.936        0.040      132.585       12.637        0.009      334.334        4.239      851.094
04/26/2014  01:54:00     -144.442      -60.459      -10.416       28.249       35.228       19.828      798.031     1240.997      393.163        1.353        0.122      156.584        9.299        0.004      334.405        4.356      851.086
04/26/2014  01:55:00     -178.932      -64.134      -12.938       33.757       25.017       18.087     1139.530      625.860      327.147        1.919        0.105      190.078       19.549        0.011      334.328        4.225      851.087
04/26/2014  01:56:00      -57.619      -44.601       -9.068       64.772       31.501       26.247     4195.445      992.300      688.924        0.563        0.294       72.864        9.727        0.018      334.429        4.397      851.083
04/26/2014  01:57:00       25.093      -25.303       20.134       25.137       31.812       22.742      631.889     1012.014      517.202        0.192        0.108       35.636        8.180        0.053      334.563        4.618      851.074
04/26/2014  01:58:00       12.749      -22.137       10.102       15.509       15.428       17.663      240.532      238.025      311.977        0.077        0.040       25.546        8.868        0.121      334.634        4.735      851.057
04/26/2014  01:59:00      -47.824       -1.840       -0.676       24.650       20.576       16.555      607.646      423.369      274.052        0.180        0.065       47.859       10.054        0.044      334.554        4.603      851.053
04/26/2014  02:00:00      -95.787      -11.656       -6.559       32.477       34.702       16.149     1054.733     1204.220      260.801        0.594        0.126       96.494       18.002        0.035      334.414        4.371      851.066
04/26/2014  02:01:00     -158.452      -72.601       -7.109       48.126       34.829       22.941     2316.155     1213.042      526.307        1.724        0.203      174.293       20.039        0.013      334.417        4.375      851.072
04/26/2014  02:02:00     -101.307      -53.429        3.423       55.818       38.644       29.163     3115.695     1493.355      850.494        0.929        0.273      114.532       17.988        0.025      334.385        4.323      851.070
04/26/2014  02:03:00     -105.228      -38.392       -5.435       35.136       46.392       20.151     1234.531     2152.205      406.076        0.818        0.190      112.013       16.848        0.023      334.399        4.347      851.077
04/26/2014  02:04:00     -148.505       -3.002      -18.112       40.520       32.906       19.133     1641.874     1082.831      366.074        1.274        0.155      148.536       15.228        0.011      334.331        4.232      851.100
04/26/2014  02:05:00     -129.537       27.243      -10.508       56.159       22.966       23.215     3153.803      527.430      538.939        1.093        0.211      132.371       25.882        0.038      334.345        4.256      851.127
04/26/2014  02:06:00     -123.284       55.552      -19.763       49.349       46.112       26.165     2435.301     2126.343      684.622        1.196        0.262      135.222       22.907        0.029      334.353        4.268      851.125
04/26/2014  02:07:00        0.120       11.748      -15.409       35.190       24.911       16.354     1238.307      620.562      267.442        0.125        0.106       11.749       11.417        0.944      334.357        4.277      851.103
04/26/2014  02:08:00      -23.033      -11.362       -3.391       34.512       19.488       14.157     1191.067      379.789      200.430        0.122        0.089       25.683       15.056        0.344      334.403        4.352      851.088
04/26/2014  02:09:00      -55.471       61.700      -10.139       46.962       37.827       28.775     2205.408     1430.879      827.979        0.572        0.223       82.970       25.493        0.094      334.492        4.501      851.092
04/26/2014  02:10:00       -5.191       89.089       -5.780       29.450       45.737       19.255      867.311     2091.881      370.743        0.566        0.166       89.241       19.672        0.049      334.496        4.507      851.082
04/26/2014  02:11:00      -53.880       82.239       -3.571       27.968       32.296       24.047      782.210     1043.031      578.274        0.604        0.120       98.317       19.874        0.041      334.518        4.543      851.071
04/26/2014  02:12:00      -37.193      118.547      -15.294       29.040       37.141       23.591      843.327     1379.463      556.525        0.922        0.139      124.245       17.632        0.020      334.643        4.750      851.063
04/26/2014  02:13:00      -24.393       90.075       -5.391       41.642       40.652       22.679     1734.089     1652.592      514.349        0.632        0.195       93.320       20.853        0.050      334.628        4.726      851.064
04/26/2014  02:14:00       16.958       35.320       14.097       34.255       47.841       36.110     1173.403     2288.788     1303.900        0.325        0.238       39.180       36.422        0.864      334.464        4.454      851.052
04/26/2014  02:15:00       65.487       31.529       -3.234       21.010       22.958       15.998      441.402      527.086      255.942        0.326        0.061       72.681        7.246        0.010      334.453        4.438      851.031
04/26/2014  02:16:00        9.675       25.543       -5.323       24.624       17.472       14.011      606.354      305.272      196.319        0.094        0.055       27.313        8.036        0.087      334.460        4.447      851.031
04/26/2014  02:17:00        7.770       25.217       -4.055       21.930       15.240       16.357      480.939      232.245      267.565        0.085        0.049       26.387        8.049        0.093      334.390        4.333      851.039
04/26/2014  02:18:00      -58.796       16.798       -4.328       23.817       13.962        9.759      567.239      194.939       95.230        0.231        0.043       61.149       10.002        0.027      334.469        4.460      851.052
04/26/2014  02:19:00      -63.242       31.587       -8.328       17.693       16.502       11.962      313.039      272.328      143.093        0.290        0.036       70.692        7.886        0.012      334.443        4.421      851.068
04/26/2014  02:20:00      -25.908       38.817       -4.072       24.187       21.517        9.993      585.026      462.982       99.867        0.167        0.057       46.669        6.372        0.019      334.451        4.434      851.079
04/26/2014  02:21:00      -53.001       44.436       -9.032       23.998       30.974       15.323      575.921      959.398      234.789        0.332        0.089       69.164        8.982        0.017      334.463        4.452      851.092
04/26/2014  02:22:00      -68.275       20.899       -4.871       21.125       15.826       12.953      446.269      250.453      167.770        0.299        0.043       71.402        4.975        0.005      334.484        4.487      851.104
04/26/2014  02:23:00      -89.411      -15.738       -6.717       13.199       17.165       10.706      174.212      294.633      114.629        0.444        0.029       90.785        4.416        0.002      334.484        4.488      851.105
04/26/2014  02:24:00      -88.384      -26.384       -1.567       18.362       17.017       14.409      337.173      289.566      207.631        0.467        0.042       92.238       12.058        0.017      334.500        4.513      851.111
04/26/2014  02:25:00     -104.731        6.720       -6.820       32.786       30.063       15.788     1074.920      903.785      249.262        0.664        0.111      104.946       18.830        0.032      334.512        4.533      851.118
04/26/2014  02:26:00      -97.370        1.219      -11.684       29.764       34.958       19.380      885.882     1222.045      375.602        0.605        0.124       97.378        9.756        0.010      334.509        4.529      851.125
04/26/2014  02:27:00      -52.207      -48.236       -3.899       66.389       33.532       27.660     4407.437     1124.380      765.061        0.568        0.315       71.080       25.952        0.133      334.484        4.487      851.120
04/26/2014  02:28:00      -95.450      -55.660       -7.991       31.294       19.359       18.165      979.320      374.776      329.974        0.698        0.084      110.493       14.943        0.018      334.357        4.278      851.118
04/26/2014  02:29:00      -41.113      -23.832        2.878       33.594       22.299       17.210     1128.555      497.241      296.183        0.209        0.096       47.521       18.960        0.159      334.424        4.387      851.111
04/26/2014  02:30:00      -39.107        4.535       -1.361       13.906       25.866        8.586      193.385      669.063       73.722        0.124        0.047       39.369        7.131        0.033      334.371        4.298      851.115
04/26/2014  02:31:00        2.291        8.181        3.147       18.813       17.950       14.460      353.937      322.186      209.090        0.048        0.044        8.495       14.739        3.010      334.386        4.324      851.114
04/26/2014  02:32:00       17.240       28.467        5.795       23.454       13.403       21.481      550.103      179.640      461.418        0.117        0.060       33.281        8.476        0.065      334.431        4.401      851.110
04/26/2014  02:33:00       15.218        6.690        8.281       18.244       13.959       13.954      332.838      194.852      194.728        0.053        0.036       16.624        9.813        0.348      334.428        4.396      851.106
04/26/2014  02:34:00      -17.972        5.435       -4.356       25.643       18.297       15.635      657.585      334.767      244.452        0.080        0.062       18.775       15.420        0.675      334.397        4.343      851.099
04/26/2014  02:35:00       -8.520       17.531       -3.723       14.432       16.609        9.333      208.278      275.857       87.110        0.048        0.029       19.492        6.041        0.096      334.407        4.361      851.083
04/26/2014  02:36:00       11.564       90.596      -14.115       20.282       30.865       16.451      411.365      952.644      270.624        0.509        0.082       91.331       12.303        0.018      334.252        4.102      851.076
04/26/2014  02:37:00       21.900       54.089       -4.002       17.744       11.844       10.676      314.846      140.278      113.985        0.200        0.028       58.354        9.273        0.025      334.257        4.111      851.059
04/26/2014  02:38:00       31.471       57.093        2.657       27.642       34.872       23.823      764.083     1216.063      567.517        0.340        0.127       65.192       19.414        0.089      334.259        4.114      851.040
04/26/2014  02:39:00       54.867       51.273        3.709       35.226       34.936       23.609     1240.886     1220.545      557.374        0.434        0.151       75.095       21.821        0.084      334.272        4.137      851.037
04/26/2014  02:40:00       18.824       56.244       -7.789       20.142       35.037       15.622      405.698     1227.577      244.046        0.273        0.094       59.310       18.831        0.101      334.267        4.128      851.035
04/26/2014  02:41:00       16.745       55.147       -9.752       16.870       27.779       16.945      284.591      771.693      287.143        0.238        0.067       57.634       15.626        0.074      334.290        4.168      851.039
04/26/2014  02:42:00      -14.365      127.250      -20.845       20.524       20.101       13.128      421.250      404.059      172.334        0.892        0.050      128.058        6.092        0.002      334.269        4.130      851.046
04/26/2014  02:43:00       -6.395      132.722      -10.155       11.327       18.330       12.068      128.298      335.992      145.642        0.918        0.030      132.876        4.318        0.001      334.273        4.138      851.054
04/26/2014  02:44:00       -7.702      110.886      -12.150       21.960       23.795       13.293      482.247      566.195      176.705        0.686        0.061      111.153       12.022        0.012      334.357        4.275      851.064
04/26/2014  02:45:00       -5.436       83.396       -5.911       12.756       14.232        9.217      162.720      202.551       84.944        0.373        0.023       83.573        3.015        0.001      334.405        4.357      851.073
04/26/2014  02:46:00      -19.528       62.036       -2.309       24.049       18.428       14.951      578.364      339.608      223.545        0.269        0.057       65.037       10.813        0.028      334.494        4.504      851.091
04/26/2014  02:47:00      -87.210       13.395       -8.816       24.765       24.590       12.529      613.310      604.660      156.978        0.462        0.069       88.232        7.609        0.007      334.427        4.392      851.110
04/26/2014  02:48:00     -104.585      -14.476       -6.971       33.251       28.197       14.509     1105.601      795.078      210.517        0.665        0.106      105.582       12.173        0.013      334.478        4.477      851.122
04/26/2014  02:49:00     -154.606      -88.274       -4.061       63.316       46.933       27.967     4008.858     2202.752      782.161        1.935        0.350      178.031       28.982        0.027      334.425        4.386      851.117
04/26/2014  02:50:00     -114.475      -55.561        1.082       48.854       37.898       24.212     2386.678     1436.270      586.218        1.030        0.220      127.246       21.087        0.027      334.386        4.325      851.128
04/26/2014  02:51:00      -66.771      -77.702        9.620       44.134       28.854       24.591     1947.845      832.541      604.707        0.699        0.169      102.450       22.051        0.046      334.487        4.494      851.110
04/26/2014  02:52:00      -14.808      -77.168       12.842       49.525       50.663       31.954     2452.773     2566.756     1021.039        0.619        0.302       78.576       31.853        0.164      334.620        4.712      851.103
04/26/2014  02:53:00      -86.140        3.499        2.374       45.877       43.354       24.706     2104.716     1879.594      610.406        0.602        0.230       86.211       25.248        0.086      334.629        4.727      851.107
04/26/2014  02:54:00     -177.482        5.018      -16.718       42.657       33.951       22.335     1819.635     1152.686      498.856        1.764        0.174      177.553       21.427        0.015      334.401        4.348      851.115
04/26/2014  02:55:00     -117.419       -3.837       -6.202       49.413       41.919       23.114     2441.658     1757.193      534.244        0.929        0.237      117.482       14.900        0.016      334.379        4.314      851.124
04/26/2014  02:56:00      -87.999       68.795      -14.720       56.630       45.613       27.401     3206.971     2080.502      750.824        0.936        0.302      111.699       29.653        0.070      334.407        4.359      851.124
04/26/2014  02:57:00      -32.691       12.209       -6.635       13.186       42.694       17.320      173.870     1822.759      299.976        0.178        0.115       34.897       12.517        0.129      334.354        4.272      851.122
04/26/2014  02:58:00      -74.054      -40.665       -5.249       31.346       24.203       16.884      982.559      585.785      285.086        0.451        0.093       84.484        8.111        0.009      334.481        4.484      851.108
04/26/2014  02:59:00      -60.746      -43.772       -4.930       66.129       30.984       20.252     4373.046      960.014      410.129        0.569        0.287       74.874       16.735        0.050      334.515        4.538      851.100
04/26/2014  03:00:00     -105.814      -58.764       -6.835       33.407       34.869       18.753     1116.011     1215.837      351.686        0.869        0.134      121.036       18.676        0.024      334.487        4.490      851.084
04/26/2014  03:01:00      -53.352       -9.145        5.355       43.808       27.654       23.176     1919.162      764.756      537.137        0.309        0.161       54.130       26.844        0.246      334.533        4.569      851.064
04/26/2014  03:02:00      -55.790       -6.112        2.725       23.628       28.108       18.901      558.292      790.063      357.235        0.243        0.085       56.124       12.916        0.053      334.521        4.549      851.052
04/26/2014  03:03:00      -51.388      -26.146        3.444       39.892       31.396       16.894     1591.385      985.688      285.406        0.310        0.143       57.657       16.528        0.082      334.543        4.584      851.054
04/26/2014  03:04:00     -113.146       47.137      -11.994       45.337       21.562       16.367     2055.424      464.933      267.890        0.898        0.139      122.572       10.051        0.007      334.475        4.472      851.076
04/26/2014  03:05:00     -104.009       17.530      -15.452       31.055       34.315       16.522      964.425     1177.544      272.964        0.689        0.121      105.476       15.908        0.023      334.436        4.410      851.097
04/26/2014  03:06:00      -80.081       -1.815       -6.067       23.522       16.391       16.581      553.270      268.680      274.927        0.377        0.055       80.101       15.749        0.039      334.464        4.455      851.105
04/26/2014  03:07:00     -143.270       40.235      -20.767       61.983       39.177       25.452     3841.901     1534.812      647.801        1.430        0.301      148.812       28.559        0.037      334.468        4.460      851.126
04/26/2014  03:08:00     -131.140       13.796       -8.967       71.280       39.970       36.587     5080.811     1597.568     1338.627        1.274        0.401      131.863       33.604        0.065      334.467        4.459      851.144
04/26/2014  03:09:00     -137.072       -7.924      -14.230       56.275       47.926       31.992     3166.834     2296.877     1023.475        1.277        0.324      137.301       32.337        0.055      334.440        4.414      851.176
04/26/2014  03:10:00      -66.582       36.109      -14.535       33.177       44.911       21.878     1100.726     2017.022      478.652        0.477        0.180       75.743       16.453        0.047      334.474        4.471      851.184
04/26/2014  03:11:00     -139.734      -21.213      -18.758       32.790       45.557       23.599     1075.152     2075.480      556.911        1.202        0.185      141.335       14.622        0.011      334.442        4.418      851.201
04/26/2014  03:12:00     -136.149      -95.264        3.362       95.983       54.132       29.431     9212.830     2930.256      866.187        2.031        0.650      166.168       35.172        0.045      334.518        4.541      851.210
04/26/2014  03:13:00     -362.965      -24.394      -27.128       92.946       76.910       51.127     8638.909     5915.212     2614.020        7.512        0.858      363.783       49.083        0.018      334.320        4.213      851.242
04/26/2014  03:14:00     -270.412      -43.697      -23.474       84.714       55.182       37.878     7176.458     3045.005     1434.771        4.362        0.583      273.920       38.568        0.020      334.345        4.252      851.253
04/26/2014  03:15:00     -133.743      -36.957       -4.073       57.998       56.899       41.270     3363.740     3237.541     1703.191        1.379        0.415      138.756       30.613        0.049      334.428        4.394      851.267
04/26/2014  03:16:00     -244.113      -23.076      -30.977       53.829       39.050       28.847     2897.584     1524.911      832.141        3.317        0.263      245.202       30.282        0.015      334.379        4.308      851.288
04/26/2014  03:17:00     -164.651      -87.499        5.171       82.367       55.354       42.528     6784.377     3064.075     1808.600        2.322        0.583      186.457       43.331        0.054      334.442        4.415      851.308
04/26/2014  03:18:00     -112.800      -60.725        2.764       95.373       50.648       31.705     9095.954     2565.237     1005.231        1.454        0.633      128.107       39.582        0.095      334.470        4.463      851.298
04/26/2014  03:19:00     -115.713     -132.354       -5.634       47.446       46.773       24.018     2251.156     2187.671      576.886        1.798        0.251      175.804       18.400        0.011      334.453        4.435      851.278
04/26/2014  03:20:00     -129.681     -102.474       -0.309       41.890       56.126       26.434     1754.732     3150.163      698.783        1.646        0.280      165.282       25.744        0.024      334.516        4.538      851.296
04/26/2014  03:21:00     -109.343      -93.104        2.022       88.596       55.644       37.479     7849.296     3096.272     1404.701        1.649        0.618      143.612       42.776        0.089      334.570        4.628      851.313
04/26/2014  03:22:00     -166.539     -131.958        1.494       85.853       61.054       43.241     7370.696     3727.553     1869.760        2.906        0.648      212.481       39.223        0.034      334.518        4.540      851.330
04/26/2014  03:23:00      -89.030     -112.314       -6.531       62.030       78.975       35.415     3847.672     6237.045     1254.256        1.596        0.567      143.320       28.670        0.040      334.532        4.565      851.321
04/26/2014  03:24:00     -127.482      -74.895        3.195       59.508       55.100       34.757     3541.245     3036.042     1208.046        1.483        0.389      147.854       29.138        0.039      334.506        4.523      851.352
04/26/2014  03:25:00      -56.268      -78.713       -4.285       55.236       47.499       29.602     3051.033     2256.171      876.300        0.778        0.309       96.756       25.601        0.070      334.538        4.576      851.359
04/26/2014  03:26:00     -133.364       -5.873      -10.084       46.424       39.057       28.359     2155.146     1525.451      804.249        1.120        0.224      133.493       30.455        0.052      334.512        4.531      851.355
04/26/2014  03:27:00      -96.449      -18.865       -3.335       50.513       39.770       29.140     2551.523     1581.676      849.136        0.732        0.249       98.277       31.607        0.103      334.478        4.476      851.363
04/26/2014  03:28:00      -24.677       21.235       13.879       22.628       22.011       20.763      512.043      484.500      431.117        0.134        0.071       32.556        3.436        0.011      334.565        4.621      851.355
04/26/2014  03:29:00      -46.308       50.202       -3.327       17.820       27.770       18.774      317.542      771.161      352.482        0.306        0.072       68.299       16.862        0.061      334.430        4.399      851.347
04/26/2014  03:30:00      -63.313       38.374      -11.619       15.513       15.093       12.606      240.657      227.794      158.915        0.312        0.031       74.035        9.957        0.018      334.451        4.434      851.345
04/26/2014  03:31:00      -51.475       62.199       -9.020       36.641       35.739       16.958     1342.587     1277.291      287.557        0.475        0.145       80.736       23.499        0.085      334.486        4.490      851.363
04/26/2014  03:32:00      -41.559       -4.938       -2.882       45.397       47.975       22.641     2060.896     2301.640      512.636        0.332        0.244       41.851       21.805        0.271      334.538        4.577      851.370
04/26/2014  03:33:00     -152.517       -9.035      -15.246       43.272       34.671       21.306     1872.459     1202.090      453.945        1.355        0.176      152.784       20.951        0.019      334.454        4.438      851.380
04/26/2014  03:34:00      -82.876      -26.063       -2.153       29.007       24.122       16.432      841.425      581.891      270.007        0.462        0.085       86.877       14.291        0.027      334.497        4.508      851.403
04/26/2014  03:35:00      -35.191      -48.827        6.621       89.779       42.359       37.423     8060.252     1794.313     1400.469        0.746        0.563       60.187       49.424        0.674      334.549        4.595      851.421
04/26/2014  03:36:00      -92.633      -57.763        2.676       52.229       48.005       36.798     2727.887     2304.496     1354.099        0.915        0.319      109.167       32.546        0.089      334.502        4.516      851.417
04/26/2014  03:37:00     -100.283      -63.489        3.122       51.870       46.507       29.940     2690.454     2162.925      896.401        0.992        0.287      118.691       25.366        0.046      334.487        4.490      851.433
04/26/2014  03:38:00      -60.013      -37.642       11.819       38.176       37.950       24.184     1457.443     1440.221      584.885        0.432        0.174       70.841       23.176        0.107      334.474        4.470      851.435
04/26/2014  03:39:00     -101.144      -24.570        3.063       38.809       31.361       21.844     1506.106      983.525      477.151        0.690        0.148      104.085       19.533        0.035      334.527        4.558      851.431
04/26/2014  03:40:00      -42.279      -37.711        6.460       40.721       30.334       21.255     1658.161      920.169      451.778        0.314        0.152       56.654       23.006        0.165      334.582        4.648      851.434
04/26/2014  03:41:00      -51.966      -52.588       -0.292       38.828       38.170       14.994     1507.575     1456.940      224.814        0.433        0.159       73.932       10.789        0.021      334.544        4.588      851.432
04/26/2014  03:42:00      -29.153      -15.925       10.510       24.074       15.939       16.264      579.571      254.042      264.527        0.116        0.055       33.219       12.432        0.140      334.643        4.751      851.431
04/26/2014  03:43:00      -84.890      -27.112       -4.652       25.418       31.727       16.210      646.085     1006.618      262.780        0.494        0.096       89.114       11.758        0.017      334.537        4.573      851.425
04/26/2014  03:44:00      -42.701      -26.423       -3.910       19.329       21.483       11.880      373.592      461.512      141.123        0.176        0.049       50.215       10.673        0.045      334.550        4.596      851.413
04/26/2014  03:45:00      -47.939      -16.360        2.538       29.562       24.132       15.617      873.902      582.362      243.885        0.214        0.085       50.654       16.978        0.112      334.578        4.642      851.416
04/26/2014  03:46:00     -107.244        8.189      -10.774       21.259       21.360       16.062      451.947      456.264      258.003        0.643        0.058      107.556       12.892        0.014      334.518        4.541      851.439
04/26/2014  03:47:00     -106.576      -19.342      -14.544       25.744       25.089       11.241      662.735      629.446      126.369        0.668        0.071      108.317        7.081        0.004      334.493        4.500      851.458
04/26/2014  03:48:00      -84.035       -6.959       -7.793       31.900       23.204       15.455     1017.616      538.411      238.859        0.448        0.090       84.322       13.899        0.027      334.529        4.560      851.464
04/26/2014  03:49:00      -86.433      -42.063        7.706       67.758       36.499       23.275     4591.151     1332.145      541.742        0.788        0.323       96.124       25.742        0.072      334.560        4.612      851.440
04/26/2014  03:50:00     -202.248        5.868      -16.018       46.642       43.778       27.106     2175.455     1916.478      734.732        2.301        0.241      202.333       20.452        0.010      334.458        4.443      851.452
04/26/2014  03:51:00     -134.899      -75.401      -18.550       60.838       36.981       20.715     3701.286     1367.585      429.108        1.486        0.275      154.542       24.016        0.024      334.436        4.410      851.450
04/26/2014  03:52:00     -127.714      -85.849      -12.311       50.464       38.133       26.523     2546.601     1454.121      703.448        1.427        0.235      153.886       14.279        0.009      334.488        4.492      851.444
04/26/2014  03:53:00     -186.575      -61.443      -17.124       36.949       39.371       19.848     1365.206     1550.112      393.937        2.109        0.165      196.432       14.077        0.005      334.465        4.454      851.460
04/26/2014  03:54:00     -159.202      -74.802      -14.540       46.879       33.025       27.661     2197.646     1090.636      765.140        1.760        0.203      175.900       25.904        0.022      334.507        4.525      851.444
04/26/2014  03:55:00     -154.167      -11.599       -1.909       91.939       56.781       35.008     8452.825     3224.066     1225.561        1.840        0.645      154.603       41.774        0.073      334.561        4.612      851.425
04/26/2014  03:56:00      -84.661      -21.008       -0.717       77.520       32.710       32.418     6009.380     1069.960     1050.909        0.787        0.407       87.229       43.206        0.245      334.580        4.645      851.417
04/26/2014  03:57:00     -126.185      -41.976       -0.999       44.868       29.911       20.590     2013.109      894.669      423.940        1.051        0.167      132.983       16.904        0.016      334.558        4.610      851.417
04/26/2014  03:58:00     -125.883      -26.282       -5.550       42.537       34.337       26.773     1809.403     1179.015      716.813        1.014        0.185      128.597       28.543        0.049      334.523        4.550      851.414
04/26/2014  03:59:00      -66.585      -65.118        7.964       59.807       46.785       32.366     3576.895     2188.818     1047.553        0.777        0.341       93.134       35.227        0.143      334.620        4.714      851.391
04/26/2014  04:00:00      -83.112      -32.890        4.512       59.978       47.182       24.473     3597.372     2226.181      598.907        0.721        0.321       89.383       27.670        0.096      334.622        4.717      851.381
04/26/2014  04:01:00      -89.092      -46.724        8.248       69.330       67.907       32.766     4806.594     4611.406     1073.595        1.034        0.525      100.601       41.283        0.168      334.570        4.628      851.363
04/26/2014  04:02:00     -137.789      -29.341        0.020       77.555       51.597       30.052     6014.830     2662.240      903.109        1.471        0.479      140.878       39.151        0.077      334.570        4.628      851.363
04/26/2014  04:03:00     -139.232      -90.820      -11.572       88.701       68.289       31.825     7867.846     4663.406     1012.803        2.065        0.677      166.234       36.771        0.049      334.517        4.539      851.361
04/26/2014  04:04:00     -184.143       91.019      -25.241       65.408      102.304       48.086     4278.179    10466.200     2312.285        2.994        0.853      205.410       27.526        0.018      334.492        4.496      851.356
04/26/2014  04:05:00     -168.149      -56.980      -11.836       34.655       36.134       29.921     1200.946     1305.690      895.261        1.753        0.170      177.541       23.717        0.018      334.537        4.573      851.366
04/26/2014  04:06:00      -90.596      -29.914       -7.057       46.367       43.140       21.788     2149.887     1861.043      474.738        0.682        0.224       95.407       23.558        0.061      334.518        4.543      851.390
04/26/2014  04:07:00      -16.367       28.532       11.629       43.775       57.432       30.029     1916.280     3298.458      901.742        0.367        0.306       32.893       39.521        1.444      334.684        4.819      851.402
04/26/2014  04:08:00      -97.053       67.033      -19.007       33.076       59.896       27.306     1094.006     3587.488      745.622        0.985        0.271      117.953       23.282        0.039      334.459        4.446      851.413
04/26/2014  04:09:00      -64.398       93.804       -9.650       47.553       59.847       32.931     2261.324     3581.653     1084.436        0.998        0.346      113.782       17.196        0.023      334.513        4.534      851.414
04/26/2014  04:10:00     -144.740      104.179      -17.887       62.901       74.252       46.525     3956.563     5513.288     2164.580        2.188        0.582      178.334       34.529        0.037      334.459        4.444      851.406
04/26/2014  04:11:00     -161.958       26.489       -6.681       90.394       62.239       37.521     8171.147     3873.709     1407.796        2.021        0.673      164.109       42.845        0.068      334.378        4.310      851.402
04/26/2014  04:12:00      -70.961       18.094        5.800       57.390       60.207       29.511     3293.656     3624.939      870.878        0.659        0.389       73.232       21.531        0.086      334.444        4.420      851.382
04/26/2014  04:13:00     -141.013      -36.586      -20.368       69.609       38.165       26.828     4845.437     1456.585      719.768        1.433        0.351      145.682       25.331        0.030      334.404        4.356      851.363
04/26/2014  04:14:00     -185.132      -21.945      -14.274       88.677       51.027       32.810     7863.575     2603.776     1076.525        2.325        0.577      186.428       25.501        0.019      334.417        4.373      851.336
04/26/2014  04:15:00     -140.284       43.170      -14.577       83.754       59.531       37.343     7014.724     3543.995     1394.508        1.685        0.598      146.777       32.440        0.049      334.425        4.388      851.316
04/26/2014  04:16:00     -104.614      -53.523       -5.632       80.455       29.610       21.094     6472.941      876.736      444.938        1.082        0.390      117.511       33.263        0.080      334.475        4.473      851.281
04/26/2014  04:17:00      -43.342      -53.433       17.452       74.404       61.809       34.738     5536.011     3820.385     1206.702        0.780        0.528       68.801       39.160        0.324      334.609        4.693      851.268
04/26/2014  04:18:00      -92.947      -90.169        5.967       70.114       83.749       41.868     4916.019     7013.950     1752.903        1.524        0.684      129.497       36.479        0.079      334.599        4.676      851.263
04/26/2014  04:19:00     -102.958      -65.493        0.163       74.284       49.801       38.653     5518.147     2480.140     1494.026        1.219        0.475      122.023       39.211        0.103      334.515        4.539      851.263
04/26/2014  04:20:00     -135.210      -10.654       -9.692       54.202       52.685       27.791     2937.818     2775.762      772.347        1.249        0.324      135.629       27.260        0.040      334.462        4.450      851.282
04/26/2014  04:21:00     -111.719      -48.353        4.033       86.633       91.841       47.309     7505.223     8434.706     2238.101        1.650        0.909      121.734       49.616        0.166      334.470        4.463      851.284
04/26/2014  04:22:00      -74.102      -51.443       14.470       59.508       56.892       32.133     3541.148     3236.671     1032.530        0.808        0.391       90.208       30.637        0.115      334.542        4.582      851.289
04/26/2014  04:23:00     -126.653      -74.652       10.108       75.082       53.397       37.314     5637.258     2851.247     1392.370        1.580        0.494      147.016       40.493        0.076      334.536        4.572      851.309
04/26/2014  04:24:00     -178.251      -59.069        1.853       57.788       62.121       38.652     3339.467     3858.992     1493.969        2.198        0.435      187.783       41.731        0.049      334.469        4.460      851.318
04/26/2014  04:25:00     -112.479      -83.141       -4.511       77.378       39.644       34.424     5987.328     1571.682     1184.992        1.416        0.437      139.871       40.743        0.085      334.507        4.523      851.309
04/26/2014  04:26:00      -37.245      -22.643       24.595       71.206       58.818       60.279     5070.295     3459.565     3633.544        0.733        0.608       43.588       55.365        1.613      334.580        4.645      851.289
04/26/2014  04:27:00     -146.891      -61.143        9.282      134.299       92.668       47.330    18036.116     8587.323     2240.124        2.713        1.443      159.108       43.569        0.075      334.537        4.571      851.289
04/26/2014  04:28:00     -128.839      -93.681        2.777       94.908       69.112       38.438     9007.522     4776.516     1477.485        2.032        0.763      159.297       38.633        0.059      334.530        4.560      851.296
04/26/2014  04:29:00     -171.634     -115.868       -9.639       64.375       47.048       28.253     4144.103     2213.480      798.235        2.506        0.358      207.083       29.751        0.021      334.516        4.536      851.293
04/26/2014  04:30:00     -193.738      -43.495      -28.089       59.534       28.079       33.287     3544.239      788.428     1108.054        2.283        0.272      198.560       32.011        0.026      334.473        4.465      851.317
04/26/2014  04:31:00      -93.246      -29.945        2.738       44.865       38.324       28.572     2012.911     1468.726      816.357        0.695        0.215       97.936       19.250        0.039      334.541        4.581      851.348
04/26/2014  04:32:00      -78.954      -10.194        5.751       45.553       40.786       26.755     2075.079     1663.531      715.851        0.541        0.223       79.609       24.611        0.096      334.565        4.621      851.363
04/26/2014  04:33:00     -133.941      -35.883       -8.016       53.058       41.004       30.021     2815.178     1681.304      901.285        1.234        0.270      138.664       33.142        0.057      334.581        4.648      851.393
04/26/2014  04:34:00      -59.912      -18.647       10.969       75.932       44.962       30.780     5765.623     2021.616      947.415        0.639        0.437       62.747       35.752        0.325      334.603        4.685      851.405
04/26/2014  04:35:00     -181.605      -32.899        4.273      101.267       71.290       45.691    10255.102     5082.296     2087.635        2.575        0.871      184.561       46.678        0.064      334.517        4.540      851.417
04/26/2014  04:36:00     -261.303      -35.924       -7.986      160.066       96.320       66.578    25621.043     9277.517     4432.696        5.447        1.967      263.761       87.310        0.110      334.490        4.495      851.412
04/26/2014  04:37:00     -141.327      -55.953       -0.488      122.341       92.926       48.375    14967.259     8635.199     2340.097        2.452        1.297      152.000       55.391        0.133      334.485        4.485      851.422
04/26/2014  04:38:00     -229.520      -76.383       -8.953      122.908       69.112       42.424    15106.364     4776.415     1799.795        4.013        1.084      241.896       55.430        0.053      334.487        4.489      851.420
04/26/2014  04:39:00     -228.276      -59.077       -5.736       96.058       68.857       45.570     9227.167     4741.235     2076.642        3.584        0.802      235.797       52.181        0.049      334.473        4.465      851.438
04/26/2014  04:40:00     -235.438      -51.141      -16.451       73.863       73.707       38.784     5455.769     5432.791     1504.225        3.535        0.620      240.928       35.072        0.021      334.460        4.444      851.450
04/26/2014  04:41:00     -156.830       11.296      -23.576       64.144       76.582       38.359     4114.499     5864.776     1471.449        1.836        0.573      157.236       37.969        0.058      334.454        4.438      851.443
04/26/2014  04:42:00     -158.624      -37.158       -1.416      113.392       36.632       41.569    12857.698     1341.879     1727.941        2.123        0.796      162.918       54.220        0.111      334.466        4.456      851.441
04/26/2014  04:43:00      -88.999      -21.763        4.658       62.537       40.207       29.570     3910.825     1616.588      874.379        0.741        0.320       91.621       19.175        0.044      334.539        4.577      851.422
04/26/2014  04:44:00     -106.848      -46.173       -6.743       72.934       39.500       28.634     5319.416     1560.211      819.927        1.065        0.385      116.398       11.406        0.010      334.509        4.526      851.413
04/26/2014  04:45:00     -129.931        1.778       -6.039       65.781       42.992       29.153     4327.170     1848.335      849.882        1.197        0.351      129.944       29.142        0.050      334.485        4.488      851.423
04/26/2014  04:46:00      -93.890      -21.269       -5.233       52.988       45.796       25.093     2807.708     2097.268      629.638        0.741        0.277       96.269       21.771        0.051      334.508        4.527      851.411
04/26/2014  04:47:00      -46.257       -7.800        2.880       59.524       29.354       21.539     3543.113      861.659      463.920        0.354        0.243       46.910       31.882        0.462      334.525        4.555      851.409
04/26/2014  04:48:00     -110.510      -38.665       -8.918       34.447       24.816       19.929     1186.602      615.820      397.172        0.799        0.110      117.079       14.302        0.015      334.479        4.479      851.415
04/26/2014  04:49:00      -96.350      -40.391       -5.102       30.236       34.440       14.238      914.201     1186.107      202.708        0.662        0.115      104.474       10.390        0.010      334.513        4.535      851.421
04/26/2014  04:50:00      -83.777      -42.899        0.596       44.284       37.388       19.512     1961.046     1397.842      380.735        0.630        0.187       94.122       16.112        0.029      334.503        4.518      851.423
04/26/2014  04:51:00      -54.096       -6.244        6.221       67.099       43.753       30.738     4502.288     1914.361      944.837        0.518        0.368       54.456       31.010        0.324      334.577        4.640      851.424
04/26/2014  04:52:00      -47.771       -1.057      -22.529       59.814       47.254       36.592     3577.709     2232.921     1338.986        0.497        0.357       47.783       35.349        0.547      334.521        4.546      851.431
04/26/2014  04:53:00      -72.134       16.140       -4.497       39.155       31.365       21.347     1533.113      983.769      455.700        0.423        0.149       73.917       21.235        0.083      334.519        4.545      851.428
04/26/2014  04:54:00     -143.030        5.122      -12.570       43.196       69.681       30.177     1865.898     4855.378      910.664        1.414        0.382      143.122       23.518        0.027      334.561        4.613      851.441
04/26/2014  04:55:00     -175.700      -17.631      -21.330       73.006       53.890       45.922     5329.917     2904.081     2108.816        2.099        0.517      176.582       32.032        0.033      334.509        4.527      851.440
04/26/2014  04:56:00     -291.847      -74.636      -18.432       76.947       60.214       34.824     5920.860     3625.753     1212.693        5.092        0.538      301.240       30.326        0.010      334.488        4.490      851.433
04/26/2014  04:57:00     -177.714      -54.301       -4.993       67.627       59.410       37.634     4573.472     3529.537     1416.344        2.204        0.476      185.825       36.631        0.039      334.470        4.462      851.433
04/26/2014  04:58:00     -184.043      -53.715      -15.138       96.861       60.756       42.981     9381.983     3691.327     1847.345        2.595        0.746      191.722       48.866        0.065      334.520        4.544      851.460
04/26/2014  04:59:00     -193.607      -83.695        2.226       96.346       72.264       43.138     9282.559     5222.096     1860.900        3.043        0.818      210.923       40.881        0.038      334.529        4.558      851.495
04/26/2014  05:00:00     -234.796      -90.078      -14.108       96.227       79.309       45.059     9259.696     6289.943     2030.317        4.051        0.879      251.482       42.299        0.028      334.515        4.536      851.510
04/26/2014  05:01:00     -313.066       -5.225      -17.662      113.127      132.352       60.104    12797.802    17517.154     3612.468        6.613        1.696      313.110       62.722        0.040      334.537        4.569      851.516
04/26/2014  05:02:00     -209.413      -47.862      -22.727       97.455       71.555       47.611     9497.429     5120.056     2266.765        3.177        0.844      214.812       48.233        0.050      334.554        4.599      851.521
04/26/2014  05:03:00     -223.549      -31.201       -9.259      121.551      106.613       43.606    14774.547    11366.236     1901.482        3.953        1.402      225.716       40.755        0.033      334.556        4.602      851.550
04/26/2014  05:04:00     -283.526      -47.729      -29.937      112.870       96.428       49.763    12739.550     9298.408     2476.355        5.403        1.226      287.515       55.135        0.037      334.514        4.532      851.583
04/26/2014  05:05:00     -343.854      -46.770      -18.902      139.571       84.278       58.692    19479.936     7102.700     3444.758        7.540        1.501      347.021       58.391        0.028      334.512        4.530      851.568
04/26/2014  05:06:00     -265.651      -99.592      -14.408      118.819       61.636       48.152    14117.937     3798.952     2318.572        5.046        1.012      283.706       52.749        0.035      334.521        4.545      851.571
04/26/2014  05:07:00     -108.993      -35.263       -1.631       61.178       71.615       41.474     3742.791     5128.689     1720.057        1.186        0.530      114.556       39.185        0.117      334.529        4.561      851.579
04/26/2014  05:08:00     -189.860      -62.021       -7.834       57.627       30.029       27.616     3320.928      901.749      762.651        2.247        0.249      199.733       29.607        0.022      334.501        4.511      851.596
04/26/2014  05:09:00     -211.002      -67.964       -6.127       73.328       68.001       43.571     5377.065     4624.189     1898.401        3.054        0.595      221.677       44.336        0.040      334.508        4.524      851.628
04/26/2014  05:10:00     -178.288     -105.210       14.459      128.595       81.427       50.722    16536.660     6630.380     2572.737        3.440        1.287      207.016       65.455        0.100      334.541        4.580      851.642
04/26/2014  05:11:00     -141.507      -26.451       -1.194       90.305       61.725       48.589     8155.073     3810.005     2360.900        1.752        0.716      143.958       56.100        0.152      334.513        4.533      851.674
04/26/2014  05:12:00     -151.722        2.771      -18.019       71.967       70.551       29.690     5179.310     4977.388      881.520        1.719        0.552      151.748       25.218        0.028      334.486        4.489      851.688
04/26/2014  05:13:00     -150.772      -80.561      -10.577       68.438       62.149       40.452     4683.705     3862.523     1636.375        1.976        0.509      170.945       29.459        0.030      334.483        4.484      851.686
04/26/2014  05:14:00     -252.295       17.858      -19.873       64.332       57.086       28.210     4138.557     3258.790      795.777        3.628        0.410      252.926       25.076        0.010      334.432        4.397      851.683
04/26/2014  05:15:00     -299.745      -68.086      -19.070      102.687       76.631       47.799    10544.625     5872.379     2284.722        5.677        0.935      307.380       41.229        0.018      334.437        4.406      851.678
04/26/2014  05:16:00     -353.591      -19.974      -30.531      126.152       92.374       51.183    15914.205     8532.883     2619.716        7.671        1.353      354.154       52.625        0.022      334.434        4.402      851.668
04/26/2014  05:17:00     -222.364     -100.210      -15.137       76.760       96.259       55.832     5892.070     9265.849     3117.191        3.899        0.914      243.901       31.246        0.016      334.451        4.429      851.664
04/26/2014  05:18:00     -289.371       13.466      -33.869      103.156       98.625       47.916    10641.164     9726.957     2295.907        5.386        1.133      289.684       45.466        0.025      334.441        4.414      851.686
04/26/2014  05:19:00     -287.357       43.078      -21.266      127.978      122.468       56.752    16378.456    14998.307     3220.805        5.973        1.730      290.568       57.872        0.040      334.463        4.448      851.701
04/26/2014  05:20:00     -205.653      -50.689      -17.003       92.764       75.065       43.012     8605.242     5634.705     1850.033        3.062        0.804      211.808       45.290        0.046      334.474        4.468      851.683
04/26/2014  05:21:00     -122.044       15.358      -22.031       56.473       68.752       35.353     3189.161     4726.847     1249.813        1.239        0.458      123.007       28.560        0.054      334.469        4.461      851.686
04/26/2014  05:22:00     -142.516      -22.332      -15.809       63.554       65.054       35.947     4039.100     4232.056     1292.215        1.531        0.478      144.255       26.425        0.034      334.503        4.517      851.669
04/26/2014  05:23:00     -122.674      -43.154      -13.810       64.308       50.581       29.359     4135.504     2558.456      861.954        1.233        0.378      130.043       22.104        0.029      334.512        4.531      851.676
04/26/2014  05:24:00     -136.771      -69.476        0.124       62.864       66.560       35.170     3951.878     4430.282     1236.938        1.657        0.481      153.405       25.329        0.027      334.502        4.515      851.674
04/26/2014  05:25:00     -171.703      -23.173       -7.411       69.683       50.790       34.581     4855.657     2579.669     1195.818        1.935        0.432      173.260       28.266        0.027      334.466        4.455      851.690
04/26/2014  05:26:00     -147.663       50.540       -6.929       87.315       61.831       42.110     7623.878     3823.105     1773.264        1.881        0.661      156.073       38.730        0.062      334.501        4.513      851.703
04/26/2014  05:27:00     -113.555       36.842        4.571       83.932       52.406       43.337     7044.632     2746.354     1878.110        1.297        0.583      119.382       49.085        0.169      334.558        4.609      851.690
04/26/2014  05:28:00     -161.345      -50.022      -18.437       80.271       77.972       44.516     6443.463     6079.626     1981.714        2.169        0.725      168.921       43.349        0.066      334.487        4.488      851.698
04/26/2014  05:29:00     -214.753      -48.536      -19.110       69.555       86.383       43.682     4837.882     7462.031     1908.142        3.152        0.710      220.170       37.514        0.029      334.487        4.489      851.703
04/26/2014  05:30:00     -123.951       56.089      -20.120       59.400       81.824       33.029     3528.346     6695.230     1090.922        1.511        0.566      136.051       38.425        0.080      334.546        4.587      851.718
04/26/2014  05:31:00     -125.899      122.508      -24.244       52.084       61.538       37.670     2712.727     3786.883     1419.042        1.968        0.396      175.667       32.093        0.033      334.519        4.542      851.744
04/26/2014  05:32:00     -148.080       49.703      -13.534       65.248       75.641       44.396     4257.294     5721.521     1970.978        1.826        0.597      156.199       41.264        0.070      334.495        4.503      851.768
04/26/2014  05:33:00     -128.584      -75.362        7.633      134.906       99.985       54.366    18199.647     9996.988     2955.705        2.671        1.558      149.042       63.885        0.184      334.523        4.551      851.756
04/26/2014  05:34:00     -133.863       -0.280       -9.982      100.664       85.724       36.688    10133.261     7348.623     1345.984        1.842        0.941      133.864       27.990        0.044      334.520        4.544      851.769
04/26/2014  05:35:00     -151.570        1.043      -26.716      139.559       87.985       56.938    19476.774     7741.346     3241.946        2.707        1.523      151.574       57.796        0.145      334.463        4.451      851.765
04/26/2014  05:36:00     -195.235       60.879      -38.034       78.771       61.522       46.796     6204.821     3784.928     2189.861        2.772        0.609      204.507       31.980        0.024      334.426        4.389      851.787
04/26/2014  05:37:00     -156.924       11.128       -7.347      150.581      111.794       71.454    22674.714    12497.889     5105.629        3.253        2.014      157.318       69.142        0.193      334.440        4.413      851.783
04/26/2014  05:38:00     -285.763      -84.391      -14.815      143.182      166.792       81.715    20501.072    27819.540     6677.397        7.199        2.750      297.964       65.199        0.048      334.433        4.399      851.776
04/26/2014  05:39:00     -188.882      -21.720      -13.872      114.044       94.980       64.437    13006.097     9021.199     4152.065        3.125        1.309      190.127       65.484        0.119      334.412        4.365      851.777
04/26/2014  05:40:00     -171.400      -21.852       -8.432      119.756       98.542       53.573    14341.518     9710.566     2870.015        2.842        1.346      172.787       52.847        0.094      334.401        4.347      851.805
04/26/2014  05:41:00     -181.647       62.379      -20.979       90.542      114.170       45.392     8197.923    13034.764     2060.452        3.031        1.165      192.060       40.145        0.044      334.379        4.311      851.847
04/26/2014  05:42:00     -209.506       73.864      -43.094      101.947      117.840       46.541    10393.236    13886.173     2166.104        3.882        1.322      222.145       49.359        0.049      334.398        4.342      851.871
04/26/2014  05:43:00     -144.763       12.292        0.986      126.172       98.767       44.528    15919.450     9754.882     1982.748        2.438        1.383      145.284       39.789        0.075      334.394        4.337      851.883
04/26/2014  05:44:00     -168.377      -16.457      -11.532       71.463       77.307       42.191     5106.998     5976.364     1780.046        2.081        0.643      169.179       32.600        0.037      334.349        4.261      851.891
04/26/2014  05:45:00     -166.030      -68.095      -24.475       95.485       86.268       49.340     9117.396     7442.121     2434.407        2.589        0.950      179.451       45.229        0.064      334.346        4.254      851.900
04/26/2014  05:46:00     -135.509      -44.046       -5.720      128.092       73.954       52.884    16407.523     5469.242     2796.737        2.250        1.234      142.488       63.925        0.201      334.303        4.185      851.906
04/26/2014  05:47:00     -253.216       24.248      -30.460      100.722      143.463       51.477    10144.968    20581.511     2649.919        4.950        1.669      254.374       51.739        0.041      334.207        4.023      851.925
04/26/2014  05:48:00     -185.716      100.779      -25.994       78.865      145.237       54.626     6219.729    21093.739     2984.020        3.780        1.515      211.298       35.842        0.029      334.180        3.979      851.930
04/26/2014  05:49:00     -146.202       49.821      -22.450       70.621       69.535       45.987     4987.369     4835.113     2114.813        1.815        0.597      154.458       36.031        0.054      334.174        3.970      851.943
04/26/2014  05:50:00     -241.658       92.090      -45.280       72.723       65.790       46.667     5288.662     4328.348     2177.796        4.036        0.590      258.610       38.734        0.022      334.128        3.890      851.958
04/26/2014  05:51:00     -214.586        3.627      -16.957      149.436      110.588       57.085    22331.078    12229.737     3258.697        4.208        1.891      214.617       71.033        0.110      334.149        3.928      851.990
04/26/2014  05:52:00     -135.967       79.156      -13.934       75.284       90.494       52.400     5667.693     8189.094     2745.812        2.077        0.830      157.330       54.838        0.121      334.107        3.858      852.022
04/26/2014  05:53:00     -226.049       85.530      -36.027       84.670       89.724       45.255     7168.975     8050.382     2048.035        3.849        0.863      241.689       32.540        0.018      334.109        3.861      852.040
04/26/2014  05:54:00     -218.981       48.059      -24.875       82.089       88.993       51.154     6738.669     7919.821     2616.758        3.407        0.864      224.192       47.048        0.044      334.101        3.848      852.060
04/26/2014  05:55:00     -218.080       79.276      -43.113       93.472       80.528       49.106     8736.978     6484.691     2411.352        3.666        0.882      232.042       35.811        0.024      334.115        3.870      852.070
04/26/2014  05:56:00     -246.473       88.099      -48.837       84.601      106.688       50.447     7157.262    11382.349     2544.908        4.599        1.054      261.745       50.156        0.037      334.112        3.865      852.095
04/26/2014  05:57:00     -108.087       63.839      -14.751       52.022       73.065       40.368     2706.268     5338.491     1629.588        1.282        0.484      125.532       31.329        0.062      334.128        3.895      852.104
04/26/2014  05:58:00     -126.348       10.807      -32.236       77.261       86.430       52.021     5969.267     7470.158     2706.213        1.663        0.807      126.809       39.006        0.095      334.130        3.898      852.112
04/26/2014  05:59:00     -135.485       47.491       -9.985       50.651       64.061       36.048     2565.555     4103.788     1299.490        1.434        0.398      143.567       21.617        0.023      334.152        3.936      852.121
04/26/2014  06:00:00     -105.897       -9.919        0.483       73.751       63.740       40.253     5439.170     4062.799     1620.329        1.122        0.556      106.361       32.758        0.095      334.148        3.928      852.145
04/26/2014  06:01:00     -162.074      -23.610       -4.806      123.263       76.234       59.716    15193.681     5811.660     3565.962        2.570        1.229      163.785       69.127        0.178      334.106        3.856      852.172
04/26/2014  06:02:00      -70.644       28.851       -1.356       43.096       59.013       35.905     1857.234     3482.553     1289.177        0.623        0.331       76.308       25.541        0.112      334.090        3.832      852.168
04/26/2014  06:03:00     -126.819      123.790      -24.680       73.767       89.019       53.044     5441.576     7924.336     2813.658        2.409        0.809      177.220       49.935        0.079      334.065        3.790      852.198
04/26/2014  06:04:00     -156.251       60.783      -33.599       59.844       60.325       46.238     3581.348     3639.142     2137.992        1.930        0.468      167.657       36.072        0.046      334.064        3.788      852.202
04/26/2014  06:05:00      -84.751       66.701      -13.905       70.990      104.111       38.812     5039.542    10839.010     1506.394        1.460        0.869      107.851       31.908        0.088      334.094        3.837      852.201
04/26/2014  06:06:00      -30.668       46.541        7.994       48.325       89.674       41.244     2335.264     8041.403     1701.069        0.762        0.604       55.737       20.392        0.134      334.124        3.889      852.201
04/26/2014  06:07:00      -55.799       10.607       -2.738       59.915       56.011       27.941     3589.860     3137.229      780.704        0.537        0.375       56.798       35.345        0.387      334.186        3.992      852.219
04/26/2014  06:08:00     -155.047      125.961      -23.529       94.443       83.278       53.121     8919.505     6935.175     2821.819        2.956        0.934      199.764       40.582        0.041      334.087        3.826      852.239
04/26/2014  06:09:00     -167.478      100.561      -14.267       79.904       69.774       46.739     6384.648     4868.394     2184.542        2.590        0.672      195.349       33.855        0.030      334.055        3.774      852.241
04/26/2014  06:10:00      -81.463       72.304       -3.783       54.956       66.700       33.819     3020.200     4448.877     1143.697        1.024        0.431      108.922       28.076        0.066      334.018        3.713      852.257
04/26/2014  06:11:00     -124.535       13.585      -26.783       46.402       53.294       37.053     2153.133     2840.244     1372.911        1.139        0.318      125.274       30.104        0.058      334.118        3.878      852.280
04/26/2014  06:12:00     -138.328      -38.001      -11.189       72.663       83.852       41.497     5279.894     7031.088     1722.029        1.737        0.702      143.453       42.043        0.086      334.073        3.803      852.285
04/26/2014  06:13:00      -90.295       -4.552      -10.912       72.843       67.134       27.457     5306.033     4506.944      753.870        0.943        0.528       90.410       26.351        0.085      334.038        3.745      852.302
04/26/2014  06:14:00      -28.973       -6.522       12.668       51.577       59.607       44.155     2660.221     3552.971     1949.690        0.460        0.408       29.698       30.541        1.058      334.013        3.705      852.329
04/26/2014  06:15:00     -187.996       33.395      -27.013       92.220       80.386       50.849     8504.602     6461.856     2585.621        2.737        0.878      190.939       58.143        0.093      334.007        3.695      852.355
04/26/2014  06:16:00     -129.198       33.362       -6.392      112.599       56.557       44.516    12678.616     3198.674     1981.655        1.785        0.893      133.436       45.918        0.118      334.008        3.697      852.379
04/26/2014  06:17:00     -134.259       48.175      -20.530      114.542       69.408       47.360    13119.944     4817.419     2242.953        2.047        1.009      142.640       39.340        0.076      334.064        3.789      852.405
04/26/2014  06:18:00     -120.549       -6.789      -13.069       54.927       60.906       35.728     3017.014     3709.571     1276.459        1.137        0.400      120.740       14.722        0.015      334.072        3.802      852.420
04/26/2014  06:19:00      -72.553       87.401      -12.959       64.938       47.805       34.658     4216.920     2285.295     1201.187        1.039        0.385      113.591       39.706        0.122      334.047        3.760      852.421
04/26/2014  06:20:00      -69.489       99.207      -10.860       52.147       64.068       34.916     2719.288     4104.771     1219.135        1.141        0.402      121.123       22.517        0.035      334.098        3.847      852.414
04/26/2014  06:21:00      -31.316       96.714        9.773       54.235       73.385       51.404     2941.394     5385.347     2642.346        1.070        0.548      101.658       40.679        0.160      334.138        3.913      852.411
04/26/2014  06:22:00     -110.702      172.992      -28.570       62.305       87.404       42.216     3881.972     7639.412     1782.159        2.815        0.665      205.380       42.098        0.042      334.059        3.779      852.423
04/26/2014  06:23:00      -85.466      158.469      -18.583       53.922       59.878       31.342     2907.578     3585.400      982.319        2.012        0.374      180.047       25.331        0.020      334.060        3.783      852.441
04/26/2014  06:24:00     -117.490      152.067      -28.365       45.264       47.287       27.081     2048.789     2236.073      733.399        2.137        0.251      192.168       21.908        0.013      334.045        3.756      852.442
04/26/2014  06:25:00      -65.908      150.256      -16.654       44.332       71.166       34.220     1965.334     5064.537     1171.004        1.770        0.410      164.075       21.419        0.017      334.045        3.757      852.430
04/26/2014  06:26:00      -58.107      125.217      -13.841       56.748       46.199       31.576     3220.355     2134.394      997.058        1.280        0.318      138.043       33.359        0.058      334.069        3.797      852.420
04/26/2014  06:27:00       -7.514      133.627      -19.357       47.802       58.260       30.586     2285.034     3394.253      935.534        1.245        0.331      133.839       30.409        0.052      334.024        3.723      852.410
04/26/2014  06:28:00      -25.550      215.367      -20.464       40.506       63.774       28.976     1640.702     4067.168      839.629        2.700        0.327      216.877       29.358        0.018      333.983        3.652      852.412
04/26/2014  06:29:00      -10.346      154.871      -10.320       54.304       61.313       35.149     2948.918     3759.257     1235.464        1.607        0.397      155.216       31.726        0.042      334.020        3.716      852.412
04/26/2014  06:30:00      -11.075      154.281      -10.441       56.805       86.073       45.422     3226.853     7408.582     2063.154        1.836        0.635      154.678       55.728        0.130      334.018        3.712      852.416
04/26/2014  06:31:00        2.006      222.584      -25.065       45.655       91.575       32.564     2084.404     8385.950     1060.389        3.085        0.577      222.593       36.623        0.027      333.927        3.559      852.413
04/26/2014  06:32:00      -41.811      228.108      -24.992       59.055      106.413       28.989     3487.503    11323.770      840.381        3.503        0.783      231.909       46.238        0.040      333.953        3.604      852.421
04/26/2014  06:33:00       10.889      155.323       -8.674       46.979       94.556       40.637     2207.009     8940.833     1651.347        1.856        0.640      155.704       50.792        0.106      333.961        3.619      852.434
04/26/2014  06:34:00       -3.772      205.362      -25.344       48.338       46.445       28.182     2336.581     2157.172      794.201        2.406        0.264      205.397       19.663        0.009      333.937        3.578      852.454
04/26/2014  06:35:00      -26.698      220.043      -33.679       43.459       45.863       30.327     1888.658     2103.420      919.701        2.759        0.246      221.656       12.594        0.003      333.922        3.552      852.457
04/26/2014  06:36:00      -43.108      199.496      -28.213       46.322       62.307       30.285     2145.734     3882.215      917.153        2.470        0.347      204.100       30.908        0.023      333.957        3.608      852.475
04/26/2014  06:37:00      -22.170      188.432      -20.037       39.174       83.337       32.930     1534.635     6945.078     1084.358        2.298        0.478      189.732       38.683        0.042      333.919        3.548      852.480
04/26/2014  06:38:00       13.165       91.620       -3.070       31.451       70.235       22.337      989.176     4932.957      498.964        0.750        0.321       92.561       26.429        0.082      333.898        3.514      852.477
04/26/2014  06:39:00       24.857       99.407       -8.692       38.604       51.270       33.923     1490.233     2628.583     1150.764        0.792        0.263      102.468       34.790        0.115      333.892        3.506      852.467
04/26/2014  06:40:00        4.074      222.526      -29.064       46.311       49.833       24.230     2144.716     2483.280      587.108        2.780        0.261      222.564       19.694        0.008      333.874        3.472      852.471
04/26/2014  06:41:00      -20.612      141.859      -17.216       39.097       42.295       24.567     1528.589     1788.827      603.555        1.238        0.196      143.348       23.087        0.026      333.958        3.613      852.481
04/26/2014  06:42:00       16.276       88.385        3.497       36.725       53.805       29.302     1348.703     2895.027      858.597        0.659        0.255       89.871       30.081        0.112      333.938        3.581      852.482
04/26/2014  06:43:00       26.227      160.070      -28.638       36.718       43.724       26.834     1348.187     1911.804      720.058        1.555        0.199      162.204       14.804        0.008      333.868        3.465      852.491
04/26/2014  06:44:00        3.768      136.024      -19.265       36.262       40.981       22.513     1314.899     1679.440      506.855        1.119        0.175      136.076       21.212        0.024      333.988        3.664      852.505
04/26/2014  06:45:00      -21.975      120.660       -9.554       43.739       62.123       25.116     1913.065     3859.207      630.834        1.077        0.320      122.644       28.980        0.056      333.991        3.669      852.514
04/26/2014  06:46:00      -25.205      115.831        0.395       56.867       63.882       38.443     3233.859     4080.910     1477.859        1.142        0.440      118.541       41.640        0.123      334.091        3.835      852.528
04/26/2014  06:47:00      -36.079      179.646      -23.620       33.259       76.519       27.589     1106.164     5855.110      761.143        2.093        0.386      183.233       27.291        0.022      333.943        3.586      852.555
04/26/2014  06:48:00     -107.355      155.865      -32.433       59.333       71.632       33.711     3520.438     5131.095     1136.432        2.333        0.489      189.259       26.375        0.019      333.998        3.679      852.599
04/26/2014  06:49:00     -186.588       79.052      -22.477       99.975       65.823       41.650     9995.066     4332.666     1734.685        2.881        0.803      202.643       39.888        0.039      333.977        3.642      852.628
04/26/2014  06:50:00     -160.387       18.719      -28.458       86.252       59.891       27.276     7439.410     3586.965      743.968        1.932        0.589      161.476       30.834        0.036      333.927        3.559      852.652
04/26/2014  06:51:00     -145.975      185.151      -44.604       43.093       91.323       36.535     1856.985     8339.830     1334.791        3.455        0.577      235.775       32.219        0.019      333.927        3.561      852.666
04/26/2014  06:52:00      -72.544      154.781      -21.029       57.609       83.692       37.091     3318.839     7004.313     1375.708        2.068        0.585      170.938       36.022        0.044      333.995        3.674      852.662
04/26/2014  06:53:00      -50.527       78.720       -3.477       39.931       90.351       41.437     1594.503     8163.229     1717.030        1.012        0.574       93.540       40.687        0.189      334.044        3.756      852.640
04/26/2014  06:54:00      -78.201      101.617      -19.302       65.932       53.576       36.674     4347.007     2870.367     1344.968        1.269        0.428      128.225       34.413        0.072      334.016        3.710      852.627
04/26/2014  06:55:00      -47.652       51.514       -7.701       58.600      105.814       35.939     3434.001    11196.606     1291.576        1.045        0.796       70.174       27.749        0.156      334.086        3.827      852.606
04/26/2014  06:56:00      -61.048       93.970       -9.509       53.110       82.747       40.885     2820.668     6847.008     1671.552        1.199        0.567      112.059       29.113        0.067      334.160        3.949      852.632
04/26/2014  06:57:00     -123.931      104.835      -13.317       89.326      159.786       51.339     7979.174    25531.546     2635.705        3.133        1.807      162.324       41.746        0.066      334.184        3.987      852.624
04/26/2014  06:58:00     -205.747       68.557      -31.906       57.053       68.258       39.476     3255.083     4659.193     1558.333        2.876        0.474      216.869       24.924        0.013      334.102        3.849      852.656
04/26/2014  06:59:00     -288.056      -29.875      -36.034       88.635       79.634       36.226     7856.228     6341.621     1312.316        5.034        0.776      289.601       24.354        0.007      334.117        3.874      852.675
04/26/2014  07:00:00     -285.894      -92.421       -8.643       89.108       93.289       54.350     7940.180     8702.927     2953.904        5.497        0.980      300.461       49.816        0.027      334.160        3.944      852.701
04/26/2014  07:01:00     -333.898     -111.110      -13.972       75.317       73.037       44.143     5672.685     5334.432     1948.628        6.849        0.648      351.899       34.849        0.010      334.149        3.928      852.732
04/26/2014  07:02:00     -261.265     -125.647       -6.384       96.853       69.809       45.232     9380.497     4873.252     2045.892        5.019        0.815      289.908       45.249        0.024      334.135        3.902      852.772
04/26/2014  07:03:00     -213.889      -32.119      -16.384       72.425       63.925       39.336     5245.443     4086.377     1547.294        2.896        0.544      216.287       38.834        0.032      334.212        4.033      852.810
04/26/2014  07:04:00     -101.238       -0.055       -5.953       82.668       75.823       43.902     6833.922     5749.154     1927.375        1.239        0.726      101.238       38.914        0.148      334.334        4.237      852.805
04/26/2014  07:05:00     -190.993       -0.461      -35.440       56.170       80.194       41.351     3155.051     6431.109     1709.931        2.451        0.565      190.994       30.899        0.026      334.337        4.240      852.833
04/26/2014  07:06:00     -101.508       40.546      -23.101       54.927       79.268       39.369     3016.927     6283.414     1549.903        1.166        0.543      109.307       48.467        0.197      334.314        4.206      852.848
04/26/2014  07:07:00     -117.099       33.285       -3.547       75.903       63.526       36.080     5761.317     4035.560     1301.770        1.296        0.555      121.738       38.940        0.102      334.264        4.122      852.852
04/26/2014  07:08:00      -99.102       80.933      -13.242       42.645       98.571       39.139     1818.562     9716.260     1531.870        1.480        0.653      127.951       43.472        0.115      334.302        4.183      852.849
04/26/2014  07:09:00     -177.868       69.202      -18.537       67.206       88.341       39.624     4516.602     7804.165     1570.030        2.533        0.695      190.856       22.389        0.014      334.255        4.105      852.864
04/26/2014  07:10:00     -150.730       48.629      -20.312       88.024       60.053       34.277     7748.155     3606.348     1174.932        1.901        0.626      158.380       25.439        0.026      334.319        4.212      852.867
04/26/2014  07:11:00     -115.279      166.603      -16.264       75.122       95.029       47.489     5643.264     9030.529     2255.213        2.912        0.846      202.597       36.487        0.032      334.228        4.060      852.870
04/26/2014  07:12:00     -143.771       50.495      -27.212       65.265       70.296       37.717     4259.518     4941.539     1422.544        1.729        0.531      152.380       44.170        0.084      334.206        4.025      852.869
04/26/2014  07:13:00     -153.404       30.653      -22.796      117.449       53.715       38.013    13794.212     2885.346     1445.006        2.155        0.906      156.437       48.858        0.098      334.247        4.093      852.861
04/26/2014  07:14:00     -140.187       98.994      -18.581       70.975       83.044       51.774     5037.482     6896.317     2680.557        2.220        0.731      171.616       51.220        0.089      334.194        4.003      852.845
04/26/2014  07:15:00      -67.634      205.267      -16.906       57.759       66.095       44.287     3336.132     4368.501     1961.361        2.833        0.483      216.123       39.926        0.034      334.191        3.997      852.822
04/26/2014  07:16:00      -66.615      129.600      -20.003       43.167       40.221       26.265     1863.357     1617.697      689.875        1.290        0.209      145.718       25.984        0.032      334.180        3.982      852.827
04/26/2014  07:17:00     -124.016      145.048      -32.228       61.060       84.956       36.716     3728.265     7217.471     1348.039        2.487        0.615      190.837       35.906        0.035      334.189        3.995      852.849
04/26/2014  07:18:00      -71.474      200.281      -12.519       52.212       88.922       45.173     2726.129     7907.068     2040.594        2.902        0.634      212.653       41.929        0.039      334.171        3.964      852.893
04/26/2014  07:19:00     -136.236      202.415      -31.475       56.125       83.239       47.175     3150.023     6928.763     2225.449        3.641        0.615      243.992       45.534        0.035      334.117        3.874      852.927
04/26/2014  07:20:00     -113.489       72.380      -18.934       54.771       52.697       34.752     2999.813     2776.925     1207.736        1.273        0.349      134.606       24.646        0.034      334.144        3.922      852.960
04/26/2014  07:21:00     -125.075      178.842      -28.784       40.092       63.041       34.184     1607.374     3974.200     1168.547        2.760        0.338      218.239       20.926        0.009      334.098        3.843      852.969
04/26/2014  07:22:00     -106.518      113.745      -21.059       42.293       50.999       30.363     1788.681     2600.930      921.892        1.502        0.266      155.834       24.418        0.025      334.097        3.845      852.966
04/26/2014  07:23:00      -56.784      112.254       -8.216       23.503       42.109       23.267      552.376     1773.162      541.367        0.938        0.143      125.799       20.257        0.026      334.109        3.864      852.953
04/26/2014  07:24:00     -111.626       38.629      -15.667       43.952       76.702       27.822     1931.794     5883.198      774.073        1.139        0.429      118.121       33.151        0.079      334.139        3.914      852.961
04/26/2014  07:25:00      -68.070      -12.846       10.911       41.098       38.305       19.285     1689.023     1467.247      371.902        0.422        0.176       69.272       19.618        0.080      334.167        3.960      852.950
04/26/2014  07:26:00        6.279      136.461      -17.234       46.807       97.018       33.717     2190.862     9412.503     1136.836        1.585        0.637      136.605       45.508        0.111      334.144        3.920      852.955
04/26/2014  07:27:00      -41.089       80.735       -0.004       31.911       58.539       25.279     1018.297     3426.801      639.040        0.664        0.254       90.590       17.680        0.038      334.275        4.141      852.971
04/26/2014  07:28:00      -65.673        5.067        5.307       50.872       24.682       23.584     2588.006      609.184      556.191        0.406        0.188       65.868       28.817        0.191      334.318        4.212      852.986
04/26/2014  07:29:00     -113.939      132.563      -27.201       50.614       56.154       29.000     2561.774     3153.324      841.013        1.892        0.328      174.800       21.282        0.015      334.192        4.001      853.002
04/26/2014  07:30:00      -57.106      104.768      -14.307       57.621       54.672       25.724     3320.234     2988.979      661.732        1.071        0.349      119.321       20.557        0.030      334.249        4.097      853.006
04/26/2014  07:31:00      -95.125      162.056      -29.513       52.504       63.052       31.425     2756.708     3975.514      987.558        2.195        0.386      187.912       28.327        0.023      334.156        3.940      853.022
04/26/2014  07:32:00      -36.047      220.654      -29.157       38.372       44.447       22.838     1472.374     1975.537      521.592        2.740        0.198      223.579       12.282        0.003      334.123        3.884      853.026
04/26/2014  07:33:00      -41.674      181.852      -19.225       44.041       57.607       28.535     1939.634     3318.550      814.223        2.062        0.304      186.566       25.753        0.019      334.369        4.293      853.036
04/26/2014  07:34:00     -130.353      205.091      -25.043       85.999       85.818       57.962     7395.798     7364.720     3359.586        3.890        0.906      243.011       56.230        0.054      334.273        4.133      853.052
04/26/2014  07:35:00      -95.332      207.810      -31.961       48.595       68.977       33.969     2361.505     4757.885     1153.884        3.078        0.414      228.633       28.930        0.016      334.325        4.218      853.055
04/26/2014  07:36:00      -86.514      217.732      -23.823       54.453       87.231       38.269     2965.163     7609.327     1464.553        3.375        0.602      234.290       40.658        0.030      334.376        4.304      853.073
04/26/2014  07:37:00      -51.671      223.482      -16.571       37.624       80.211       37.373     1415.572     6433.840     1396.757        3.107        0.462      229.378       38.105        0.028      334.393        4.331      853.073
04/26/2014  07:38:00      -93.220      183.107       -9.219       77.061       85.820       50.470     5938.454     7365.048     2547.204        2.907        0.793      205.470       48.325        0.055      334.418        4.373      853.075
04/26/2014  07:39:00     -109.965      151.388      -27.659       46.295       55.494       32.985     2143.246     3079.578     1088.024        2.104        0.316      187.111       25.497        0.019      334.335        4.237      853.100
04/26/2014  07:40:00     -154.998       41.045      -20.068       51.354       78.637       28.641     2637.249     6183.700      820.311        1.787        0.482      160.340       18.354        0.013      334.475        4.470      853.115
04/26/2014  07:41:00     -170.152       -6.109      -14.787       81.218       49.207       38.225     6596.331     2421.362     1461.115        1.984        0.524      170.262       40.632        0.057      334.402        4.349      853.136
04/26/2014  07:42:00     -134.061       28.645      -16.510       71.287       45.040       37.309     5081.839     2028.586     1391.934        1.378        0.425      137.087       40.629        0.088      334.389        4.330      853.156
04/26/2014  07:43:00     -182.475      -52.962      -16.511       90.157       88.369       38.091     8128.249     7809.142     1450.905        2.688        0.869      190.006       39.438        0.043      334.443        4.417      853.151
04/26/2014  07:44:00     -170.658      -89.927        1.212       94.801       60.245       33.806     8987.230     3629.417     1142.836        2.548        0.688      192.902       37.292        0.037      334.355        4.270      853.172
04/26/2014  07:45:00     -154.900      -94.829        1.479       68.391       53.021       35.755     4677.377     2811.231     1278.411        2.088        0.438      181.622       28.044        0.024      334.352        4.266      853.183
04/26/2014  07:46:00     -125.350      -92.151        3.638       72.567       50.146       30.088     5265.961     2514.582      905.261        1.645        0.434      155.578       32.466        0.044      334.375        4.305      853.193
04/26/2014  07:47:00      -56.484      -19.122        3.174       38.657       35.777       28.446     1494.364     1279.966      809.150        0.357        0.179       59.633       24.514        0.169      334.462        4.452      853.205
04/26/2014  07:48:00      -40.896        0.390       -3.012       32.068       18.394       17.788     1028.383      338.329      316.427        0.168        0.084       40.898       13.496        0.109      334.455        4.440      853.204
04/26/2014  07:49:00        0.569      -24.504       -5.260       33.618       38.237       34.704     1130.139     1462.068     1204.371        0.221        0.190       24.511       30.391        1.537      334.669        4.794      853.207
04/26/2014  07:50:00       23.109       17.195        5.515       26.839       18.897       21.795      720.341      357.107      475.011        0.121        0.078       28.804       14.906        0.268      334.659        4.778      853.233
04/26/2014  07:51:00      -52.281       43.711       -7.003       35.569       37.482       20.452     1265.176     1404.907      418.286        0.389        0.154       68.146       18.143        0.071      334.513        4.533      853.258
04/26/2014  07:52:00      -81.428       53.668      -15.111       43.134       66.075       28.336     1860.551     4365.910      802.946        0.838        0.351       97.523       27.969        0.082      334.498        4.510      853.267
04/26/2014  07:53:00      -93.457      -29.502        2.884       60.651       47.510       30.864     3678.548     2257.186      952.587        0.825        0.344       98.003       32.837        0.112      334.520        4.547      853.254
04/26/2014  07:54:00      -20.318      -17.375      -11.061       38.831       43.470       23.207     1507.841     1889.621      538.567        0.239        0.197       26.734       19.246        0.518      334.588        4.659      853.248
04/26/2014  07:55:00        1.340       77.037       -9.551       32.813       34.284       18.479     1076.710     1175.394      341.472        0.431        0.130       77.048       20.414        0.070      334.668        4.794      853.246
04/26/2014  07:56:00      -19.094       78.261        1.062       35.216       47.842       26.559     1240.202     2288.835      705.403        0.536        0.212       80.557       28.142        0.122      334.678        4.809      853.253
04/26/2014  07:57:00     -127.657      -45.257       -8.817       73.576       39.523       26.581     5413.428     1562.085      706.532        1.305        0.384      135.442       33.180        0.060      334.684        4.819      853.260
04/26/2014  07:58:00     -204.013       36.096      -17.782       78.204       62.572       36.455     6115.820     3915.233     1328.980        2.730        0.568      207.182       34.984        0.029      334.483        4.482      853.275
04/26/2014  07:59:00     -186.889       18.159      -17.027       33.482       42.694       22.046     1121.024     1822.767      486.042        1.949        0.171      187.769        7.783        0.002      334.505        4.522      853.290
04/26/2014  08:00:00     -135.821      -51.006       -7.516       56.067       70.671       33.380     3143.490     4994.396     1114.247        1.518        0.463      145.083       32.798        0.051      334.653        4.766      853.301
04/26/2014  08:01:00     -142.800      -38.393        3.814       68.117       59.583       32.815     4639.918     3550.108     1076.801        1.557        0.463      147.871       32.805        0.049      334.587        4.657      853.309
04/26/2014  08:02:00      -83.989      -59.635       -0.345       59.921       54.414       34.165     3590.567     2960.868     1167.214        0.916        0.386      103.007       27.029        0.069      334.707        4.856      853.315
04/26/2014  08:03:00     -144.175      -50.949       -2.826       81.825       99.351       43.141     6695.272     9870.577     1861.180        2.090        0.921      152.912       37.308        0.060      334.605        4.685      853.338
04/26/2014  08:04:00     -169.416       33.600      -22.078       67.915       60.216       48.269     4612.444     3625.914     2329.869        2.044        0.528      172.716       24.646        0.020      334.612        4.698      853.351
04/26/2014  08:05:00      -56.620        7.557       -7.393       39.517       44.830       31.510     1561.614     2009.728      992.868        0.394        0.228       57.122       27.050        0.224      334.770        4.962      853.372
04/26/2014  08:06:00      -33.203       69.630        3.817       46.411       77.148       37.211     2153.954     5951.823     1384.659        0.773        0.475       77.141       35.497        0.212      334.790        4.996      853.383
04/26/2014  08:07:00     -244.434      134.330      -40.687       87.584       77.124       52.994     7670.938     5948.154     2808.396        4.793        0.821      278.913       40.616        0.021      334.518        4.540      853.393
04/26/2014  08:08:00     -145.650      -30.635      -10.273       86.070       71.985       53.779     7408.026     5181.854     2892.197        1.887        0.774      148.837       57.133        0.147      334.666        4.786      853.382
04/26/2014  08:09:00     -215.221      -38.634      -13.683      108.682       70.314       46.467    11811.809     4943.991     2159.136        3.345        0.946      218.661       45.137        0.043      334.559        4.609      853.372
04/26/2014  08:10:00     -186.908      -17.359       -6.238      119.451      113.907       59.047    14268.460    12974.821     3486.491        3.300        1.536      187.712       67.504        0.129      334.600        4.677      853.359
04/26/2014  08:11:00     -118.746      -65.060       -2.991      100.048       59.393       46.278    10009.578     3527.489     2141.696        1.701        0.784      135.401       28.733        0.045      334.607        4.689      853.350
04/26/2014  08:12:00     -112.319      -34.309       -3.556       65.061       52.337       30.669     4232.879     2739.193      940.580        1.086        0.396      117.442       28.101        0.057      334.640        4.744      853.357
04/26/2014  08:13:00     -201.970      -80.303      -16.753       54.409       74.400       39.479     2960.313     5535.403     1558.595        2.879        0.503      217.349       23.826        0.012      334.636        4.735      853.378
04/26/2014  08:14:00     -111.478       23.784      -17.078       60.756       33.315       27.122     3691.274     1109.883      735.578        0.941        0.277      113.987       21.588        0.036      334.626        4.721      853.394
04/26/2014  08:15:00       -5.242      -34.731       14.038       39.626       33.998       26.967     1570.220     1155.831      727.216        0.244        0.173       35.124       21.693        0.381      334.830        5.061      853.400
04/26/2014  08:16:00      -12.093      -34.894       17.032       35.392       32.094       24.429     1252.566     1030.020      596.752        0.227        0.144       36.930       21.788        0.348      334.940        5.244      853.391
04/26/2014  08:17:00        6.524      -21.710       19.163       32.160       30.969       29.671     1034.274      959.101      880.353        0.188        0.144       22.669       24.770        1.194      335.049        5.427      853.403
04/26/2014  08:18:00      -24.962      -41.400        8.900       37.266       43.804       25.246     1388.785     1918.783      637.344        0.318        0.197       48.343       27.424        0.322      334.923        5.216      853.412
04/26/2014  08:19:00      -61.653      -53.553       11.820       60.466       42.500       32.761     3656.113     1806.234     1073.277        0.667        0.327       81.664       37.157        0.207      334.915        5.202      853.440
04/26/2014  08:20:00      -50.762      -91.648       -4.988       28.370       21.907       16.076      804.877      479.899      258.447        0.627        0.077      104.767       10.950        0.011      334.777        4.973      853.455
04/26/2014  08:21:00     -130.241      -53.579       -7.343       44.543       49.065       24.430     1984.074     2407.381      596.816        1.244        0.249      140.831       11.535        0.007      334.763        4.950      853.470
04/26/2014  08:22:00     -118.001      -58.283        1.736       57.105       58.502       28.168     3260.944     3422.472      793.440        1.240        0.374      131.610       27.495        0.044      334.702        4.847      853.470
04/26/2014  08:23:00      -83.102      -51.680        3.175       76.083       46.195       37.555     5788.674     2133.944     1410.343        0.946        0.467       97.861       40.450        0.171      334.943        5.248      853.466
04/26/2014  08:24:00     -145.001      -81.532       -8.142       51.923       44.870       27.597     2695.950     2013.349      761.572        1.660        0.274      166.351       24.806        0.022      334.836        5.070      853.463
04/26/2014  08:25:00      -49.635      -61.242       12.669       45.431       38.986       27.687     2063.970     1519.912      766.596        0.536        0.218       78.830       24.252        0.095      334.996        5.336      853.474
04/26/2014  08:26:00     -110.298       17.668       -9.430       37.024       32.081       24.108     1370.769     1029.201      581.207        0.777        0.149      111.704       16.443        0.022      334.844        5.083      853.477
04/26/2014  08:27:00      -13.873       22.775       20.193       32.327       20.390       22.175     1045.027      415.756      491.717        0.154        0.098       26.668       20.441        0.588      335.258        5.773      853.491
04/26/2014  08:28:00      -54.424      -19.036        2.039       41.141       38.328       26.944     1692.574     1469.060      725.963        0.361        0.194       57.657       24.629        0.182      335.077        5.473      853.491
04/26/2014  08:29:00      -51.995      -62.258        7.003       45.391       37.738       28.524     2060.385     1424.132      813.625        0.546        0.215       81.115       27.058        0.111      334.985        5.319      853.502
04/26/2014  08:30:00      -43.770      -71.102       -6.534       22.639       17.460       13.083      512.537      304.859      171.160        0.400        0.049       83.495        7.517        0.008      334.665        4.788      853.516
04/26/2014  08:31:00       -8.127      -15.396      -11.240       20.034       17.391       11.005      401.364      302.440      121.114        0.063        0.041       17.409        8.061        0.214      334.856        5.105      853.536
04/26/2014  08:32:00       -9.426      -26.968        9.336       19.358       19.351       14.075      374.730      374.456      198.119        0.093        0.047       28.568        6.738        0.056      335.172        5.630      853.562
04/26/2014  08:33:00        3.535       25.290       14.628       15.482       18.472       18.346      239.690      341.206      336.572        0.089        0.046       25.536        4.380        0.029      335.287        5.819      853.568
04/26/2014  08:34:00        4.538       13.441       40.390       19.892       32.561       25.167      395.688     1060.211      633.356        0.196        0.104       14.187       13.317        0.881      335.559        6.273      853.583
04/26/2014  08:35:00      -26.386      -28.223        3.943       26.553       28.836       20.479      705.071      831.511      419.378        0.173        0.098       38.637       19.220        0.247      335.268        5.789      853.599
04/26/2014  08:36:00      -20.498      -41.209       10.226       39.398       40.777       25.756     1552.215     1662.749      663.378        0.305        0.194       46.026       13.008        0.080      335.273        5.798      853.611
04/26/2014  08:37:00       56.707       56.142       31.173       36.411       27.577       26.137     1325.768      760.487      683.157        0.505        0.138       79.797       15.222        0.036      335.230        5.726      853.612
04/26/2014  08:38:00       40.495       47.013       53.811       52.510       41.297       45.844     2757.283     1705.418     2101.644        0.665        0.328       62.049       31.281        0.254      335.185        5.651      853.618
04/26/2014  08:39:00       12.639       -2.437       32.530       22.682       21.727       13.406      514.492      472.044      179.708        0.119        0.058       12.871        9.647        0.562      335.487        6.153      853.618
04/26/2014  08:40:00      -22.866      -45.045        6.217       31.981       33.449       24.046     1022.781     1118.868      578.209        0.265        0.136       50.516       23.481        0.216      335.351        5.926      853.623
04/26/2014  08:41:00        3.112      -46.904        5.779       55.504       57.103       36.537     3080.644     3260.786     1334.943        0.496        0.384       47.007       39.983        0.723      335.164        5.617      853.629
04/26/2014  08:42:00     -114.052      -85.735        1.829       72.406       53.909       31.948     5242.579     2906.154     1020.686        1.476        0.458      142.683       33.054        0.054      334.922        5.213      853.624
04/26/2014  08:43:00      -99.292      -49.304        3.311       70.840       42.938       32.969     5018.367     1843.630     1086.938        1.012        0.397      110.859       34.631        0.098      334.956        5.271      853.619
04/26/2014  08:44:00      -43.368      -41.211       -9.189       47.832       31.447       26.092     2287.858      988.907      680.802        0.381        0.198       59.826       23.092        0.149      334.820        5.045      853.613
04/26/2014  08:45:00      -55.599       -1.603       -5.517       26.302       32.289       23.299      691.782     1042.574      542.861        0.270        0.114       55.622       24.081        0.187      334.803        5.017      853.610
04/26/2014  08:46:00       -5.116       30.660        9.995       19.857       37.879       18.191      394.310     1434.845      330.929        0.161        0.108       31.084        9.384        0.091      334.969        5.293      853.610
04/26/2014  08:47:00      -19.049      -54.063       -8.991       13.743       16.735       13.078      188.877      280.068      171.039        0.200        0.032       57.321        6.108        0.011      334.892        5.164      853.629
04/26/2014  08:48:00     -111.422      -16.780        2.491       45.916       38.242       21.527     2108.309     1462.489      463.418        0.837        0.202      112.678       17.560        0.024      335.031        5.397      853.653
04/26/2014  08:49:00      -17.729      -15.304       -3.530       44.569       41.711       24.377     1986.430     1739.774      594.234        0.244        0.216       23.420       22.350        0.911      335.098        5.506      853.680
04/26/2014  08:50:00      -56.994       11.083        6.094       29.149       22.700       15.997      849.693      515.278      255.909        0.251        0.081       58.062       10.080        0.030      335.113        5.532      853.697
04/26/2014  08:51:00      -48.304      104.151       -2.160       37.649       64.179       29.853     1417.445     4118.885      891.201        0.981        0.321      114.807       32.549        0.080      335.022        5.379      853.712
04/26/2014  08:52:00       -6.535      116.026        7.071       30.880       53.930       36.556      953.587     2908.450     1336.321        0.938        0.260      116.210       32.969        0.080      335.115        5.534      853.727
04/26/2014  08:53:00       29.392       55.625       11.674       55.558      116.673       56.332     3086.738    13612.627     3173.264        1.198        0.994       62.913       48.546        0.595      334.910        5.195      853.734
04/26/2014  08:54:00       28.171      217.005      -20.429       52.835       96.823       48.682     2791.574     9374.720     2369.967        3.142        0.727      218.826       49.686        0.052      334.910        5.192      853.724
04/26/2014  08:55:00      -75.845      242.823      -25.762       69.958       85.349       39.920     4894.089     7284.536     1593.573        3.957        0.689      254.392       44.376        0.030      335.026        5.382      853.722
04/26/2014  08:56:00      -41.520      171.652       -2.267       74.564      116.423       48.977     5559.858    13554.329     2398.756        2.635        1.076      176.602       56.858        0.104      335.129        5.557      853.730
04/26/2014  08:57:00      -25.521      305.905      -34.734       61.963       79.972       53.020     3839.391     6395.596     2811.120        5.424        0.652      306.967       42.829        0.019      334.844        5.081      853.719
04/26/2014  08:58:00      -61.613      188.910       -0.566       55.683      101.680       47.953     3100.595    10338.732     2299.515        2.761        0.787      198.704       45.428        0.052      335.188        5.654      853.718
04/26/2014  08:59:00      -90.241      114.600       -6.458       70.617       70.405       45.137     4986.828     4956.848     2037.367        1.665        0.599      145.865       40.026        0.075      335.146        5.585      853.741
04/26/2014  09:00:00      -95.880      130.082      -23.349       62.686       78.755       46.835     3929.548     6202.358     2193.503        1.949        0.616      161.599       42.363        0.069      334.968        5.288      853.753
04/26/2014  09:01:00      -57.461      238.104      -27.299       51.568      114.039       40.942     2659.309    13004.918     1676.210        3.904        0.867      244.939       52.026        0.045      334.903        5.180      853.774
04/26/2014  09:02:00      -48.762      262.279      -32.368       69.930       64.318       32.522     4890.167     4136.751     1057.649        4.115        0.504      266.773       26.424        0.010      334.902        5.177      853.779
04/26/2014  09:03:00      -58.295      211.644      -19.342       75.236      104.571       45.438     5660.453    10935.173     2064.587        3.361        0.933      219.526       49.003        0.050      334.929        5.223      853.785
04/26/2014  09:04:00      -46.959      226.154      -27.911       52.295      128.415       31.736     2734.788    16490.354     1007.154        3.718        1.012      230.978       42.809        0.034      334.949        5.256      853.785
04/26/2014  09:05:00     -119.623      194.720      -26.397       63.990      121.555       47.840     4094.753    14775.728     2288.657        3.704        1.058      228.529       51.739        0.051      334.916        5.201      853.806
04/26/2014  09:06:00     -125.004      240.935      -28.068       66.067       86.153       52.515     4364.877     7422.254     2757.836        4.450        0.727      271.432       46.319        0.029      334.800        5.008      853.819
04/26/2014  09:07:00     -141.170      192.601      -45.443       83.125       73.701       52.382     6909.834     5431.840     2743.878        3.708        0.754      238.797       52.001        0.047      334.810        5.023      853.814
04/26/2014  09:08:00       -0.791      274.338      -26.872       34.805       57.457       31.189     1211.384     3301.345      972.738        4.073        0.274      274.340       30.147        0.012      334.701        4.842      853.834
04/26/2014  09:09:00        2.671      164.832      -13.247       44.801       76.218       41.405     2007.102     5809.163     1714.334        1.844        0.477      164.853       42.277        0.066      334.897        5.171      853.827
04/26/2014  09:10:00      -38.387      181.120       -5.781       76.770      145.982       58.933     5893.573    21310.626     3473.095        3.249        1.534      185.143       62.582        0.114      335.075        5.466      853.841
04/26/2014  09:11:00     -106.689      239.284      -18.805       66.327       80.753       44.377     4399.285     6520.984     1969.290        4.094        0.644      261.991       30.340        0.013      335.114        5.530      853.848
04/26/2014  09:12:00     -138.846      204.409      -40.299       85.644      100.344       40.134     7334.861    10068.966     1610.711        4.085        0.951      247.106       38.675        0.024      334.990        5.323      853.875
04/26/2014  09:13:00     -143.902      199.649      -30.113       93.407       95.620       54.041     8724.954     9143.189     2920.428        4.113        1.039      246.105       52.950        0.046      334.912        5.194      853.904
04/26/2014  09:14:00     -144.794      234.283      -35.385       59.558       95.588       41.787     3547.154     9137.013     1746.114        4.577        0.722      275.416       37.773        0.019      334.739        4.906      853.926
04/26/2014  09:15:00      -60.751      141.885      -12.702       46.949       88.669       36.195     2204.207     7862.266     1310.078        1.768        0.569      154.344       25.698        0.028      335.129        5.556      853.935
04/26/2014  09:16:00      -74.406      143.899      -12.463       43.594       86.802       42.333     1900.409     7534.555     1792.086        1.881        0.561      161.997       50.746        0.098      335.101        5.512      853.951
04/26/2014  09:17:00     -117.799      192.556      -33.134       89.494       92.126       47.549     8009.238     8487.146     2260.947        3.540        0.938      225.731       40.970        0.033      334.919        5.206      853.958
04/26/2014  09:18:00      -19.003      291.603      -36.185       53.170       71.310       31.865     2827.076     5085.054     1015.354        4.781        0.446      292.221       30.204        0.011      334.885        5.149      853.948
04/26/2014  09:19:00      -38.728      149.167      -11.729       57.920       62.307       39.593     3354.688     3882.167     1567.573        1.634        0.440      154.112       32.726        0.045      335.102        5.512      853.925
04/26/2014  09:20:00      -77.999      188.894      -24.312       50.040       66.379       39.516     2504.050     4406.217     1561.493        2.541        0.424      204.364       31.446        0.024      335.000        5.341      853.898
04/26/2014  09:21:00      -92.936      119.877       -6.628       75.309       73.303       46.108     5671.438     5373.324     2125.989        1.811        0.659      151.683       38.120        0.063      335.211        5.695      853.875
04/26/2014  09:22:00     -101.457      216.029      -15.881       66.352       81.060       47.177     4402.594     6570.791     2225.641        3.520        0.660      238.667       48.081        0.041      335.027        5.385      853.855
04/26/2014  09:23:00     -121.193      178.980      -27.296       58.913       67.298       43.805     3470.717     4529.063     1918.894        2.869        0.496      216.152       39.840        0.034      334.847        5.087      853.854
04/26/2014  09:24:00      -56.281      123.134       -9.835       36.315       59.967       34.739     1318.791     3596.094     1206.770        1.227        0.306      135.387       33.877        0.063      334.991        5.327      853.849
04/26/2014  09:25:00       20.655      255.369      -29.644       51.848       63.194       38.463     2688.199     3993.461     1479.377        3.734        0.408      256.203       30.586        0.014      334.971        5.292      853.845
04/26/2014  09:26:00       -9.560      280.047      -32.370       40.958       41.284       34.862     1677.592     1704.335     1215.350        4.208        0.230      280.210       21.076        0.006      334.999        5.338      853.852
04/26/2014  09:27:00      -41.856      217.175      -15.842       49.046       83.056       48.613     2405.496     6898.235     2363.184        3.042        0.583      221.172       48.646        0.048      335.228        5.719      853.842
04/26/2014  09:28:00     -147.913      195.483      -43.617       93.110       69.539       49.958     8669.432     4835.617     2495.799        3.899        0.800      245.136       43.782        0.032      335.139        5.573      853.831
04/26/2014  09:29:00      -92.812      307.358      -27.579       49.639       78.845       39.947     2464.065     6216.477     1595.764        5.706        0.514      321.065       38.580        0.014      334.881        5.143      853.816
04/26/2014  09:30:00      -40.202      204.000      -18.774       56.714      117.195       45.153     3216.501    13734.675     2038.789        3.128        0.949      207.924       57.962        0.078      335.261        5.775      853.812
04/26/2014  09:31:00      -41.429      174.601      -11.591       62.127       95.314       47.981     3859.778     9084.682     2302.197        2.379        0.762      179.448       48.166        0.072      335.258        5.771      853.819
04/26/2014  09:32:00      -96.884      229.327      -27.380       63.726       92.431       37.243     4060.943     8543.432     1387.012        3.836        0.700      248.953       37.733        0.023      334.989        5.321      853.833
04/26/2014  09:33:00      -88.652      295.767      -24.417       65.225      114.669       54.336     4254.279    13148.898     2952.360        5.814        1.018      308.767       52.636        0.029      335.232        5.728      853.854
04/26/2014  09:34:00      -64.750      293.324      -26.683       54.494      110.445       50.209     2969.561    12198.071     2520.961        5.431        0.884      300.386       53.661        0.032      335.117        5.535      853.874
04/26/2014  09:35:00      -36.600       99.205       23.498       52.976       78.516       45.192     2806.407     6164.824     2042.310        1.137        0.551      105.741       44.639        0.178      335.842        6.743      853.871
04/26/2014  09:36:00      -41.124      135.844       -9.225       41.111       44.855       33.805     1690.153     2011.971     1142.754        1.254        0.242      141.933       23.577        0.028      335.218        5.707      853.859
04/26/2014  09:37:00       28.559      104.525       10.521       57.777       59.313       56.191     3338.167     3518.070     3157.426        1.093        0.501      108.357       42.445        0.153      335.490        6.160      853.837
04/26/2014  09:38:00      -53.628      283.556      -18.236       58.577      104.095       49.520     3431.212    10835.714     2452.259        5.016        0.836      288.582       40.412        0.020      335.172        5.626      853.842
04/26/2014  09:39:00      -16.359      152.974       11.517       81.914       86.538       50.345     6709.951     7488.905     2534.657        2.026        0.837      153.846       46.184        0.090      335.647        6.418      853.844
04/26/2014  09:40:00       37.619      141.157       -3.592       56.148      109.092       57.580     3152.653    11901.158     3315.483        1.986        0.918      146.084       64.724        0.196      335.614        6.364      853.842
04/26/2014  09:41:00       54.457      176.334       -7.578       69.558      115.593       59.925     4838.357    13361.642     3591.061        2.795        1.090      184.552       65.852        0.127      335.588        6.321      853.847
04/26/2014  09:42:00       30.665      164.562      -12.045       54.023       96.170       49.919     2918.454     9248.647     2491.945        2.141        0.733      167.395       54.706        0.107      335.472        6.127      853.866
04/26/2014  09:43:00       85.046      125.393       -3.023       68.447       83.655       46.976     4684.990     6998.196     2206.778        1.842        0.694      151.513       43.127        0.081      335.567        6.286      853.866
04/26/2014  09:44:00       55.229      197.777      -28.721       53.612       69.189       37.924     2874.201     4787.179     1438.208        2.604        0.455      205.343       29.799        0.021      335.325        5.882      853.858
04/26/2014  09:45:00        2.074      119.829      -17.016       49.774       82.835       36.648     2477.490     6861.653     1343.055        1.267        0.534      119.847       42.719        0.127      335.426        6.052      853.861
04/26/2014  09:46:00      -39.167      135.570      -14.530       31.779       66.861       36.816     1009.892     4470.375     1355.415        1.348        0.342      141.114       40.519        0.082      335.562        6.279      853.839
04/26/2014  09:47:00      104.599       57.182       28.318       66.591       42.468       47.086     4434.328     1803.513     2217.123        1.173        0.423      119.209       30.549        0.066      335.981        6.977      853.804
04/26/2014  09:48:00      236.105      123.609       14.427       86.692       63.529       56.561     7515.551     4035.976     3199.166        4.299        0.738      266.505       33.138        0.015      335.300        5.838      853.781
04/26/2014  09:49:00      177.685      112.770        0.219       99.507       58.033       51.116     9901.731     3367.794     2612.853        3.008        0.794      210.450       30.052        0.020      335.316        5.866      853.774
04/26/2014  09:50:00      192.971      158.471       24.396       73.377       47.070       63.084     5384.226     2215.628     3979.546        3.726        0.579      249.702       46.974        0.035      335.366        5.950      853.769
04/26/2014  09:51:00      142.127       88.442        5.951       62.437       42.251       44.676     3898.339     1785.140     1995.946        1.787        0.384      167.398       38.604        0.053      335.108        5.521      853.803
04/26/2014  09:52:00       30.836      111.119       95.626       66.211       58.812       70.839     4383.842     3458.837     5018.206        1.765        0.643      115.319       57.944        0.252      335.474        6.131      853.783
04/26/2014  09:53:00       26.687      108.485      121.546       60.718       58.720       50.192     3686.631     3448.063     2519.238        1.845        0.483      111.720       50.481        0.204      335.462        6.111      853.772
04/26/2014  09:54:00      174.635      103.237       18.448       72.507       34.341       40.374     5257.235     1179.324     1630.087        2.478        0.403      202.868       14.120        0.005      335.308        5.855      853.783
04/26/2014  09:55:00      108.522      112.256       26.490       71.605       31.299       43.686     5127.270      979.596     1908.429        1.655        0.401      156.136       38.410        0.061      335.299        5.840      853.793
04/26/2014  09:56:00       52.515       37.386       24.900       51.530       33.648       30.629     2655.303     1132.195      938.107        0.475        0.236       64.463       19.236        0.089      335.949        6.923      853.792
04/26/2014  09:57:00       -5.891       -7.379       57.539       39.394       69.158       34.850     1551.850     4782.823     1214.505        0.547        0.377        9.442       15.814        2.805      336.299        7.507      853.763
04/26/2014  09:58:00       12.691        6.842       39.666       24.811       37.127       26.292      615.583     1378.383      691.256        0.223        0.134       14.418       15.499        1.156      336.536        7.904      853.738
04/26/2014  09:59:00       36.513        9.153       46.484       46.192       34.611       26.113     2133.728     1197.951      681.899        0.379        0.201       37.643       24.611        0.427      336.387        7.655      853.709
04/26/2014  10:00:00       46.497        7.809       70.683       69.685      105.235       60.978     4856.009    11074.417     3718.364        1.343        0.982       47.148       74.612        2.504      335.905        6.849      853.694
04/26/2014  10:01:00       73.658       73.023       79.822       60.549       43.674       37.207     3666.228     1907.433     1384.368        1.204        0.348      103.720       14.898        0.021      335.910        6.857      853.683
04/26/2014  10:02:00       17.283       30.511      -11.249       29.484       43.878       26.921      869.298     1925.295      724.740        0.244        0.176       35.066       14.526        0.172      335.671        6.460      853.698
04/26/2014  10:03:00       30.696      -30.767       28.527       52.449       68.147       40.524     2750.927     4643.973     1642.199        0.587        0.452       43.461       36.841        0.719      336.502        7.847      853.690
04/26/2014  10:04:00       68.372     -104.286       13.179       64.349      105.476       49.797     4140.776    11125.129     2479.785        1.673        0.887      124.701       57.794        0.215      336.448        7.754      853.670
04/26/2014  10:05:00       34.425      -53.523       24.470       65.018       89.026       63.773     4227.346     7925.554     4067.019        1.043        0.811       63.638       54.555        0.735      336.449        7.757      853.629
04/26/2014  10:06:00      -20.641     -124.042       -6.432       84.965      108.814       78.766     7219.135    11840.379     6204.158        2.055        1.263      125.748       37.379        0.088      336.253        7.429      853.572
04/26/2014  10:07:00       -2.046     -179.781      -35.562      112.299      103.807       62.674    12611.140    10775.977     3927.980        3.045        1.366      179.793       53.406        0.088      336.171        7.291      853.563
04/26/2014  10:08:00     -127.197     -157.684       -7.800      138.554       81.691       62.254    19197.313     6673.468     3875.594        3.542        1.487      202.592       48.156        0.057      335.981        6.974      853.586
04/26/2014  10:09:00     -223.476     -175.308       -4.918      118.022       87.513       53.784    13929.195     7658.448     2892.705        5.258        1.224      284.032       49.168        0.030      335.842        6.742      853.592
04/26/2014  10:10:00     -219.136      -84.075       10.835      143.330       89.117       70.238    20543.611     7941.905     4933.324        4.431        1.671      234.711       70.642        0.091      335.756        6.598      853.627
04/26/2014  10:11:00     -226.605     -136.411      -14.708       80.842       84.121       47.284     6535.356     7076.330     2235.792        4.301        0.792      264.496       44.442        0.028      335.668        6.453      853.663
04/26/2014  10:12:00      -76.715      -54.478        2.465       60.060       45.639       26.731     3607.262     2082.911      714.554        0.763        0.320       94.090       23.496        0.062      335.557        6.269      853.673
04/26/2014  10:13:00      -30.214       -4.104       11.376       27.138       17.548       16.771      736.479      307.949      281.265        0.119        0.066       30.492       17.178        0.317      335.893        6.831      853.657
04/26/2014  10:14:00     -205.270      -22.937      -12.378       97.183       53.767       27.320     9444.632     2890.943      746.375        2.795        0.654      206.547       21.417        0.011      335.701        6.507      853.665
04/26/2014  10:15:00     -232.836      -70.734       -0.406       92.093       75.040       44.847     8481.045     5631.008     2011.230        3.767        0.806      243.343       48.357        0.039      335.635        6.396      853.672
04/26/2014  10:16:00     -231.660      -45.088      -10.825       65.280       41.971       30.537     4261.498     1761.593      932.497        3.138        0.348      236.007       29.498        0.016      335.622        6.375      853.672
04/26/2014  10:17:00     -174.996      -80.965      -12.648       78.515       60.488       33.786     6164.627     3658.796     1141.471        2.415        0.548      192.819       19.048        0.010      335.743        6.578      853.662
04/26/2014  10:18:00     -237.834       55.315      -25.639       95.457       61.020       38.411     9112.020     3723.468     1475.394        3.729        0.716      244.182       28.078        0.013      335.793        6.661      853.662
04/26/2014  10:19:00     -249.381      -36.022      -16.990       51.698       68.097       38.087     2672.732     4637.269     1450.641        3.627        0.438      251.969       33.367        0.018      335.680        6.470      853.657
04/26/2014  10:20:00     -176.638      -52.948       -9.500       81.548       52.110       34.243     6650.022     2715.426     1172.572        2.231        0.527      184.403       30.560        0.027      335.707        6.519      853.639
04/26/2014  10:21:00     -129.812      -56.126        5.294      127.905       72.365       43.211    16359.804     5236.697     1867.202        2.174        1.173      141.426       57.617        0.166      336.129        7.222      853.623
04/26/2014  10:22:00     -357.278       13.088      -28.761       89.152       79.980       51.956     7948.062     6396.872     2699.434        7.284        0.852      357.518       44.196        0.015      335.796        6.664      853.613
04/26/2014  10:23:00     -151.458        7.994      -12.804       73.110       53.455       25.786     5345.110     2857.476      664.943        1.602        0.443      151.669       27.379        0.033      335.719        6.539      853.625
04/26/2014  10:24:00     -237.147       26.987      -21.617      151.796       78.800       54.509    23042.155     6209.453     2971.177        4.482        1.611      238.678       71.890        0.091      335.870        6.790      853.625
04/26/2014  10:25:00     -322.593      -67.956      -13.970      105.189       64.817       44.201    11064.821     4201.233     1953.752        6.305        0.861      329.673       43.998        0.018      335.654        6.428      853.631
04/26/2014  10:26:00     -199.024     -120.873      -13.188       56.560       63.604       42.666     3198.980     4045.437     1820.379        3.173        0.453      232.854       32.473        0.019      335.716        6.531      853.641
04/26/2014  10:27:00     -178.011      -94.165      -21.393       91.722       49.388       39.093     8412.958     2439.136     1528.248        2.669        0.619      201.383       39.528        0.039      335.772        6.625      853.639
04/26/2014  10:28:00     -241.669      -83.701       -2.653      137.153      100.935       49.384    18811.006    10187.850     2438.753        4.842        1.572      255.753       42.582        0.028      335.683        6.478      853.617
04/26/2014  10:29:00     -241.158     -218.213      -19.115      137.637       93.339       48.257    18943.973     8712.244     2328.751        6.806        1.499      325.229       54.646        0.028      335.662        6.442      853.630
04/26/2014  10:30:00     -159.076     -110.016       -6.193       95.506       67.831       39.225     9121.400     4601.012     1538.565        2.635        0.763      193.414       39.002        0.041      335.728        6.554      853.646
04/26/2014  10:31:00      -21.532      -81.108        3.074       69.774       60.810       40.324     4868.465     3697.885     1626.004        0.862        0.510       83.918       23.124        0.076      335.887        6.820      853.656
04/26/2014  10:32:00     -170.439      -52.052       -1.520       89.142       74.726       39.347     7946.237     5583.999     1548.164        2.342        0.754      178.210       47.190        0.070      336.035        7.064      853.686
04/26/2014  10:33:00     -107.930      -84.176        1.863       83.163       58.911       37.254     6916.040     3470.505     1387.865        1.525        0.589      136.874       35.707        0.068      336.033        7.061      853.706
04/26/2014  10:34:00     -112.529        8.053       -0.692       51.194       37.736       30.453     2620.776     1424.040      927.385        0.885        0.249      112.817       27.870        0.061      335.805        6.683      853.676
04/26/2014  10:35:00      -72.768      -84.653        7.426       56.905       81.728       32.424     3238.125     6679.472     1051.299        1.174        0.548      111.630       38.206        0.117      336.102        7.177      853.674
04/26/2014  10:36:00      -76.110     -116.533      -16.014       75.486       55.699       34.093     5698.074     3102.395     1162.310        1.479        0.498      139.186       26.814        0.037      335.859        6.772      853.671
04/26/2014  10:37:00      -98.971      -56.962        3.068       43.885       43.651       33.082     1925.866     1905.380     1094.426        0.899        0.246      114.193       24.155        0.045      336.051        7.094      853.673
04/26/2014  10:38:00     -241.287      -44.625       -6.967      210.235       81.042       51.443    44198.722     6567.804     2646.368        5.683        2.671      245.379       82.622        0.113      336.077        7.136      853.694
04/26/2014  10:39:00     -207.684     -152.522       10.567      161.210      209.830       90.864    25988.612    44028.463     8256.319        7.237        3.914      257.673       74.957        0.085      336.047        7.083      853.653
04/26/2014  10:40:00     -215.715     -130.187       -5.732      132.263       98.645       65.955    17493.407     9730.802     4350.044        4.754        1.579      251.956       56.277        0.050      335.956        6.932      853.703
04/26/2014  10:41:00     -200.539     -210.022       -5.036      103.803      123.657       56.197    10775.124    15291.151     3158.104        5.678        1.461      290.388       47.939        0.027      335.944        6.912      853.710
04/26/2014  10:42:00     -205.993     -139.874        3.240       89.288       89.985       46.001     7972.287     8097.293     2116.050        4.009        0.909      248.994       30.640        0.015      335.927        6.883      853.709
04/26/2014  10:43:00     -107.692      -51.228        2.089       73.912       60.481       34.103     5463.027     3657.935     1163.009        1.225        0.514      119.255       37.111        0.097      336.147        7.252      853.711
04/26/2014  10:44:00      -58.806      -49.537       -1.352       31.818       56.245       23.954     1012.403     3163.486      573.812        0.533        0.237       76.890       25.228        0.108      336.138        7.238      853.712
04/26/2014  10:45:00     -150.415      -46.941       -7.744       57.636       43.823       29.169     3321.865     1920.473      850.817        1.549        0.305      157.570       14.354        0.008      336.001        7.009      853.725
04/26/2014  10:46:00      -61.200      -69.543      -23.599       71.066       55.565       32.770     5050.374     3087.507     1073.899        0.917        0.461       92.637       14.842        0.026      336.018        7.038      853.735
04/26/2014  10:47:00     -185.599        7.154      -11.874      103.186      108.528       62.741    10647.386    11778.286     3936.390        3.050        1.318      185.737       56.528        0.093      336.470        7.789      853.756
04/26/2014  10:48:00     -103.694       66.514        5.826       82.593      108.071       52.071     6821.628    11679.341     2711.388        1.821        1.061      123.193       57.423        0.217      336.848        8.425      853.785
04/26/2014  10:49:00     -280.598     -111.016        1.423      149.121      146.415       74.804    22236.956    21437.271     5595.654        7.016        2.463      301.761       76.585        0.064      336.469        7.789      853.799
04/26/2014  10:50:00     -190.924     -143.365       14.834      113.102       97.735       67.388    12792.040     9552.209     4541.105        4.205        1.344      238.759       57.629        0.058      336.543        7.912      853.845
04/26/2014  10:51:00      -82.655      -46.993       10.001      111.472      120.317       59.044    12426.016    14476.083     3486.215        1.976        1.519       95.080       68.006        0.512      336.619        8.042      853.838
04/26/2014  10:52:00      -95.929       -1.696       -5.089       43.060       55.911       27.474     1854.201     3126.027      754.823        0.748        0.287       95.944       16.140        0.028      336.314        7.533      853.814
04/26/2014  10:53:00     -150.603      104.701      -16.205       66.964       90.399       48.090     4484.165     8172.025     2312.687        2.443        0.748      183.421       40.410        0.049      336.495        7.834      853.829
04/26/2014  10:54:00     -187.283     -132.568       14.612      148.531      141.052       70.781    22061.480    19895.775     5009.911        4.991        2.348      229.454       70.849        0.095      336.626        8.053      853.828
04/26/2014  10:55:00     -428.367       39.380      -16.249      146.760      145.186       73.079    21538.526    21078.878     5340.485       11.663        2.398      430.173       68.855        0.026      336.397        7.667      853.842
04/26/2014  10:56:00     -204.690      -15.270        3.150      157.817      126.254       63.723    24906.333    15940.067     4060.568        4.352        2.245      205.259       69.402        0.114      336.617        8.037      853.871
04/26/2014  10:57:00     -164.834      -18.683        7.712      165.302       85.836       65.745    27324.785     7367.806     4322.427        3.329        1.951      165.890       74.029        0.199      336.988        8.657      853.856
04/26/2014  10:58:00     -327.236      -23.373      -25.064      125.560      106.916       59.987    15765.233    11431.021     3598.420        6.952        1.540      328.069       61.099        0.035      336.389        7.654      853.894
04/26/2014  10:59:00     -190.330       -4.352      -18.415      120.166       80.619       50.248    14439.842     6499.474     2524.868        3.002        1.173      190.379       56.137        0.087      336.644        8.083      853.879
04/26/2014  11:00:00     -172.558       83.726      -25.058       86.045       83.325       55.830     7403.825     6943.096     3117.035        2.744        0.873      191.798       50.523        0.069      336.774        8.299      853.864
04/26/2014  11:01:00     -109.930      -33.440        0.992      117.103       78.896       54.369    13713.136     6224.591     2955.969        1.804        1.145      114.903       61.245        0.284      337.030        8.727      853.875
04/26/2014  11:02:00     -197.144     -143.535        4.097      131.600      127.457       66.449    17318.499    16245.314     4415.409        4.872        1.899      243.861       68.608        0.079      336.599        8.007      853.900
04/26/2014  11:03:00     -235.725     -164.507        0.706       86.865       74.602       44.097     7545.566     5565.476     1944.564        4.884        0.753      287.452       43.618        0.023      336.190        7.322      853.911
04/26/2014  11:04:00      -70.482     -179.062       14.029       80.951       91.998       42.995     6553.093     8463.553     1848.539        2.704        0.843      192.434       51.280        0.071      336.366        7.618      853.911
04/26/2014  11:05:00     -186.826     -142.639      -10.506       76.601       52.848       36.232     5867.775     2792.916     1312.749        3.266        0.499      235.053       26.423        0.013      336.171        7.291      853.928
04/26/2014  11:06:00     -269.877     -315.599       -8.016      195.427      177.655       91.845    38191.812    31561.476     8435.464       12.533        3.909      415.255      101.645        0.060      336.259        7.438      853.942
04/26/2014  11:07:00     -334.221     -163.962       -2.411      247.564      170.934       94.153    61287.878    29218.331     8864.718       11.896        4.969      372.273      116.151        0.097      336.445        7.748      853.946
04/26/2014  11:08:00     -193.331      -92.356      -12.917      135.399      104.551       66.119    18332.952    10930.868     4371.718        3.985        1.682      214.258       59.366        0.077      336.384        7.648      853.976
04/26/2014  11:09:00      -61.881      -96.980        5.003      114.378       84.027       50.366    13082.275     7060.485     2536.738        1.796        1.134      115.041       51.585        0.201      336.565        7.951      853.942
04/26/2014  11:10:00     -189.256     -195.737       -0.654      125.013       96.921       58.929    15628.348     9393.766     3472.573        5.131        1.425      272.270       56.043        0.042      336.403        7.678      853.927
04/26/2014  11:11:00     -143.918     -145.342       -1.982      105.149       72.789       49.675    11056.404     5298.307     2467.578        3.033        0.941      204.540       48.224        0.056      336.320        7.539      853.903
04/26/2014  11:12:00     -208.100      -11.067      -10.471       51.752       70.230       35.137     2678.231     4932.210     1234.587        2.619        0.442      208.394       27.430        0.017      336.339        7.571      853.929
04/26/2014  11:13:00     -502.369       42.494      -57.590      121.867       90.690       59.115    14851.591     8224.674     3494.587       14.203        1.329      504.163       48.284        0.009      336.462        7.777      853.956
04/26/2014  11:14:00     -400.616      -21.278      -36.600      126.950       88.576       63.071    16116.186     7845.673     3977.918        9.511        1.397      401.181       56.736        0.020      336.458        7.768      853.959
04/26/2014  11:15:00     -145.735      -25.825      -11.004      155.697      120.868       60.986    24241.553    14609.183     3719.342        3.229        2.129      148.006       69.326        0.219      336.893        8.498      853.938
04/26/2014  11:16:00      -75.560      132.104       -5.040       79.233       80.445       55.571     6277.947     6471.371     3088.172        1.951        0.792      152.187       38.876        0.065      337.219        9.045      853.931
04/26/2014  11:17:00      -45.102      205.313      -12.204       60.951       88.490       44.142     3715.006     7830.401     1948.514        2.891        0.675      210.208       34.278        0.027      336.701        8.178      853.868
04/26/2014  11:18:00      -65.272      140.582       -7.341       55.750       77.330       40.962     3108.107     5979.966     1677.848        1.742        0.538      154.996       41.098        0.070      336.997        8.674      853.805
04/26/2014  11:19:00       -3.070      106.656        0.871       96.191       89.413       50.544     9252.704     7994.749     2554.686        1.559        0.990      106.700       45.369        0.181      337.112        8.867      853.777
04/26/2014  11:20:00     -114.468      131.138        4.331       62.937       99.654       50.191     3961.076     9930.941     2519.160        2.336        0.821      174.070       40.936        0.055      337.023        8.716      853.796
04/26/2014  11:21:00      -51.279       32.828       -5.089       97.769       59.138       36.100     9558.762     3497.298     1303.224        0.904        0.718       60.886       28.688        0.222      337.431        9.401      853.819
04/26/2014  11:22:00     -431.571     -134.429       -4.334      222.836      150.023       78.482    49655.701    22506.854     6159.498       14.132        3.916      452.023       97.576        0.047      336.906        8.520      853.825
04/26/2014  11:23:00     -282.968     -127.510      -10.873      140.628      159.411       73.538    19776.339    25411.721     5407.801        7.351        2.530      310.371       75.237        0.059      336.712        8.195      853.788
04/26/2014  11:24:00     -216.336     -141.703       -0.976      197.860      162.666       85.195    39148.761    26460.069     7258.157        6.986        3.643      258.614       91.619        0.126      336.962        8.614      853.745
04/26/2014  11:25:00     -325.487     -129.414       -0.885      153.373      189.102       71.291    23523.306    35759.434     5082.415        9.351        3.218      350.271       72.037        0.042      336.957        8.605      853.729
04/26/2014  11:26:00     -308.475        8.414      -13.250      151.612      132.084       70.100    22986.133    17446.165     4913.974        7.037        2.267      308.590       79.449        0.066      336.976        8.635      853.801
04/26/2014  11:27:00     -275.312       -7.159      -20.327      189.237      117.475       65.959    35810.549    13800.322     4350.607        6.510        2.698      275.406       59.257        0.046      336.877        8.472      853.818
04/26/2014  11:28:00     -107.855      103.241       -1.795       83.345       89.391       48.995     6946.435     7990.814     2400.476        1.981        0.867      149.303       38.953        0.068      336.962        8.615      853.819
04/26/2014  11:29:00      -63.037       87.764       15.059       77.056       70.586       48.434     5937.611     4982.371     2345.829        1.258        0.663      108.056       46.866        0.188      337.285        9.156      853.799
04/26/2014  11:30:00      -25.784       80.602       21.621       63.827       63.795       45.760     4073.917     4069.839     2093.951        0.893        0.512       84.625       37.448        0.196      337.248        9.096      853.803
04/26/2014  11:31:00      -36.518       73.858       15.569       52.014       95.335       50.362     2705.410     9088.738     2536.375        1.068        0.717       82.393       44.190        0.288      337.667        9.796      853.786
04/26/2014  11:32:00     -102.916       52.313       -1.298       67.848       91.396       50.042     4603.366     8353.165     2504.165        1.439        0.773      115.448       28.571        0.061      337.291        9.165      853.785
04/26/2014  11:33:00     -268.953       65.777      -34.447       98.958       77.753       48.573     9792.703     6045.555     2359.371        4.802        0.910      276.880       27.984        0.010      336.747        8.253      853.789
04/26/2014  11:34:00     -212.708       26.811      -15.679       94.116      102.516       45.741     8857.861    10509.435     2092.196        3.383        1.073      214.391       43.688        0.042      336.822        8.379      853.757
04/26/2014  11:35:00      -43.305       47.664      -11.929       77.603       45.476       44.393     6022.165     2068.108     1970.752        0.717        0.503       64.399       43.536        0.457      337.292        9.168      853.749
04/26/2014  11:36:00     -226.648      123.403      -23.656      138.916      100.680       53.801    19297.656    10136.466     2894.512        4.974        1.616      258.065       51.180        0.039      337.059        8.776      853.733
04/26/2014  11:37:00     -326.107     -164.752      -22.273      154.228      152.597       75.229    23786.231    23285.706     5659.420        9.335        2.637      365.361       60.849        0.028      336.965        8.616      853.723
04/26/2014  11:38:00     -215.431     -182.435       -8.360      131.768      121.930       57.893    17362.812    14866.945     3351.627        5.767        1.779      282.300       62.267        0.049      336.794        8.334      853.772
04/26/2014  11:39:00      -91.137      -64.712       22.179      129.706      102.496       59.587    16823.651    10505.428     3550.575        2.193        1.544      111.774       60.249        0.291      337.160        8.946      853.784
04/26/2014  11:40:00     -380.543     -270.015        7.447      238.655      203.996      107.005    56956.339    41614.560    11450.119       16.388        5.501      466.605      111.085        0.057      336.869        8.456      853.745
04/26/2014  11:41:00     -420.152     -224.317       -6.048      250.914      176.938      111.762    62957.774    31307.015    12490.741       16.680        5.338      476.283      108.599        0.052      336.787        8.320      853.790
04/26/2014  11:42:00     -327.731     -288.268       33.810      264.418      181.916      128.548    69916.804    33093.320    16524.486       15.557        5.977      436.470      146.053        0.112      336.777        8.303      853.775
04/26/2014  11:43:00     -266.274     -148.250       10.795      216.513      127.017       92.275    46877.950    16133.269     8514.724        8.225        3.576      304.762      106.302        0.122      336.971        8.628      853.823
04/26/2014  11:44:00     -253.204     -151.974       -7.275      187.251      141.397       75.365    35063.011    19993.189     5679.850        7.399        3.037      295.311       91.608        0.096      337.037        8.738      853.821
04/26/2014  11:45:00     -335.370      -95.243       -9.880      199.296      135.415       72.071    39719.017    18337.283     5194.248        9.243        3.163      348.632       74.014        0.045      337.064        8.782      853.841
04/26/2014  11:46:00     -317.417     -184.744       -4.918      244.489      164.409       92.224    59774.727    27030.405     8505.184       11.509        4.766      367.265      106.701        0.084      337.077        8.806      853.836
04/26/2014  11:47:00     -152.050       32.618       -0.902      125.439       81.229       59.489    15734.902     6598.150     3538.901        2.502        1.294      155.509       69.979        0.203      337.301        9.182      853.842
04/26/2014  11:48:00     -122.738       55.222       13.075      116.102       68.896       63.633    13479.767     4746.668     4049.165        2.028        1.114      134.588       55.315        0.169      337.281        9.147      853.792
04/26/2014  11:49:00     -302.870      -65.600        5.583      153.339      116.704       69.035    23512.961    13619.737     4765.886        6.897        2.095      309.893       69.397        0.050      336.962        8.613      853.791
04/26/2014  11:50:00     -300.908       13.280      -12.558      150.974       94.195       68.076    22793.097     8872.692     4634.365        6.358        1.815      301.201       81.703        0.074      336.846        8.420      853.775
04/26/2014  11:51:00     -358.692     -101.220      -28.747      126.450       78.409       58.294    15989.536     6147.926     3398.170        8.263        1.277      372.700       56.022        0.023      336.807        8.351      853.766
04/26/2014  11:52:00     -439.694     -134.790      -28.019      196.962      145.942       83.855    38794.021    21298.997     7031.719       13.969        3.356      459.890       88.592        0.037      337.096        8.837      853.783
04/26/2014  11:53:00     -428.820      -99.797       -8.446      214.369      132.461       83.462    45953.891    17545.987     6965.906       13.218        3.523      440.280       95.985        0.048      337.196        9.005      853.788
04/26/2014  11:54:00     -335.778      -23.924      -26.253      196.431      167.762       87.480    38585.181    28144.212     7652.720        9.418        3.719      336.629      105.548        0.098      337.187        8.990      853.863
04/26/2014  11:55:00     -282.537       60.073      -27.579      139.718      179.521       77.442    19521.225    32227.799     5997.206        7.096        2.887      288.852       70.253        0.059      337.017        8.704      853.854
04/26/2014  11:56:00     -228.686       -3.012      -19.055      181.016      133.241       73.137    32766.904    17753.053     5349.081        5.426        2.793      228.706       61.600        0.073      337.084        8.817      853.826
04/26/2014  11:57:00     -178.164       35.453      -13.152      130.272      100.209       64.811    16970.902    10041.857     4200.512        3.219        1.561      181.657       62.530        0.118      337.230        9.062      853.774
04/26/2014  11:58:00     -513.537      -69.502      -41.562      183.282      210.479       82.655    33592.421    44301.352     6831.812       17.748        4.236      518.218       68.728        0.018      337.107        8.855      853.769
04/26/2014  11:59:00     -442.912     -158.360      -24.043      182.757      135.525       85.480    33400.040    18366.951     7306.756       14.044        2.954      470.371       76.155        0.026      336.886        8.484      853.809
04/26/2014  12:00:00     -345.833      -10.129       -0.061      142.064      122.517       77.132    20182.064    15010.299     5949.340        8.041        2.057      345.981       72.321        0.044      337.327        9.223      853.817
04/26/2014  12:01:00     -405.439      -78.204       -8.199      216.113      200.058       80.518    46704.733    40023.196     6483.137       13.187        4.661      412.912       97.551        0.056      337.238        9.076      853.827
04/26/2014  12:02:00     -282.467      -26.845      -17.124      128.241      154.889       66.728    16445.708    23990.669     4452.685        6.284        2.244      283.740       56.147        0.039      337.131        8.895      853.868
04/26/2014  12:03:00     -178.051      -13.778      -24.873      121.703      107.620       68.489    14811.676    11582.100     4690.707        3.179        1.554      178.583       68.075        0.145      337.115        8.868      853.830
04/26/2014  12:04:00     -264.903      -69.309       -6.182      155.405      162.076       58.499    24150.865    26268.681     3422.119        6.442        2.692      273.820       53.990        0.039      337.090        8.828      853.772
04/26/2014  12:05:00     -247.403      -54.727      -24.842      105.589      152.827       45.923    11149.140    23356.182     2108.963        5.071        1.831      253.384       27.123        0.011      337.236        9.071      853.788
04/26/2014  12:06:00     -456.167     -170.837      -22.000      206.505      157.053       84.041    42644.124    24665.623     7062.846       15.605        3.719      487.107       75.240        0.024      337.082        8.814      853.747
04/26/2014  12:07:00     -286.674      -61.938        4.658      172.066      160.645       84.738    29606.869    25806.687     7180.609        7.430        3.130      293.289       89.703        0.094      337.148        8.924      853.764
04/26/2014  12:08:00     -379.492     -166.063      -12.401      149.187      144.097       81.039    22256.805    20764.065     6567.271       11.066        2.479      414.235       78.503        0.036      336.931        8.561      853.800
04/26/2014  12:09:00     -332.032      -67.689      -19.856      136.239      132.193       72.180    18560.949    17474.890     5209.982        7.823        2.062      338.862       75.207        0.049      336.860        8.441      853.820
04/26/2014  12:10:00     -445.191       66.554      -39.055      122.335      128.760       61.811    14965.737    16579.035     3820.649       11.975        1.768      450.138       57.017        0.016      336.873        8.463      853.792
04/26/2014  12:11:00     -424.150      -85.671      -30.792      270.637      116.630       94.858    73244.476    13602.602     8998.113       14.200        4.792      432.715      131.237        0.092      336.808        8.356      853.787
04/26/2014  12:12:00     -421.069      -21.024      -25.943      197.965      162.994       71.024    39190.269    26566.939     5044.395       12.459        3.540      421.594       75.954        0.032      337.055        8.770      853.758
04/26/2014  12:13:00     -455.403     -142.576       -0.873      243.996      172.722      108.830    59533.841    29832.766    11843.968       16.445        5.061      477.200      117.514        0.061      337.032        8.729      853.783
04/26/2014  12:14:00     -287.710      -16.716        9.677      283.226      186.338      111.171    80216.945    34722.025    12359.082       10.520        6.365      288.195      136.675        0.225      337.411        9.365      853.758
04/26/2014  12:15:00     -560.968      -52.391      -37.053      226.503      160.869       91.408    51303.400    25878.772     8355.463       20.215        4.277      563.409      101.975        0.033      337.019        8.708      853.752
04/26/2014  12:16:00     -627.436     -176.117        4.548      343.399      196.904      123.191   117922.872    38771.075    15176.064       29.826        8.594      651.685      160.818        0.061      336.832        8.395      853.704
04/26/2014  12:17:00     -494.420       18.836      -36.395      276.661      193.234       93.968    76541.141    37339.437     8829.954       18.440        6.136      494.779      111.551        0.051      337.093        8.831      853.733
04/26/2014  12:18:00     -526.241     -142.908      -28.968      259.718      190.290      100.623    67453.251    36210.379    10125.049       20.597        5.689      545.301      105.426        0.037      336.908        8.521      853.796
04/26/2014  12:19:00     -513.732      -91.599      -39.236      188.550      127.332       77.540    35551.080    16213.521     6012.506       16.580        2.889      521.834       64.936        0.015      336.845        8.417      853.796
04/26/2014  12:20:00     -450.267     -119.090       -1.631      203.196      152.507       92.199    41288.680    23258.336     8500.690       14.497        3.652      465.750      108.517        0.054      337.128        8.891      853.745
04/26/2014  12:21:00     -391.966     -142.643       -9.527      185.506      115.638       80.151    34412.655    13372.085     6424.213       11.413        2.710      417.115       78.486        0.035      337.087        8.822      853.747
04/26/2014  12:22:00     -358.755     -108.904      -19.161      198.400      161.574       82.135    39362.393    26106.101     6746.142       10.656        3.611      374.920       92.248        0.061      337.113        8.866      853.714
04/26/2014  12:23:00      -96.508       13.950       23.463      146.455      130.404       74.639    21449.161    17005.211     5570.931        2.703        2.201       97.511       73.299        0.565      337.702        9.852      853.681
04/26/2014  12:24:00     -204.146     -126.835       10.023      186.075      111.222       74.399    34623.861    12370.253     5535.218        5.519        2.626      240.339       95.290        0.157      337.233        9.067      853.658
04/26/2014  12:25:00     -195.427      -36.644       16.794      197.812      146.607       87.081    39129.550    21493.624     7583.086        5.400        3.410      198.833      105.580        0.282      337.440        9.414      853.617
04/26/2014  12:26:00     -249.933      -44.646      -12.283      206.232      162.523       88.893    42531.460    26413.599     7901.969        7.071        3.842      253.889       81.973        0.104      337.499        9.511      853.628
04/26/2014  12:27:00     -391.195       13.753      -21.541      193.767      174.956       88.372    37545.835    30609.728     7809.678       11.481        3.798      391.436      104.649        0.071      337.126        8.886      853.628
04/26/2014  12:28:00     -422.720     -104.857       -8.005      209.256      161.221       82.579    43788.226    25992.051     6819.343       13.316        3.830      435.531       91.539        0.044      336.999        8.674      853.645
04/26/2014  12:29:00     -332.140     -167.236        3.147      220.549      188.141       88.792    48642.061    35396.853     7884.028       11.509        4.596      371.867      105.147        0.080      337.034        8.735      853.592
04/26/2014  12:30:00     -405.977       65.460      -33.847      186.339      165.611       82.517    34722.275    27426.941     6808.997       11.959        3.448      411.221       79.462        0.037      337.124        8.884      853.662
04/26/2014  12:31:00     -327.949      -30.343      -20.310      142.145      125.665       67.741    20205.069    15791.814     4588.863        7.473        2.029      329.350       57.013        0.030      337.264        9.117      853.639
04/26/2014  12:32:00     -337.416       13.816      -32.656       83.635      113.633       42.020     6994.746    12912.428     1765.656        6.839        1.084      337.699       31.907        0.009      336.803        8.347      853.618
04/26/2014  12:33:00     -238.676       36.628      -27.060      142.004      148.887       66.007    20165.275    22167.462     4356.930        5.286        2.334      241.470       73.007        0.091      337.118        8.874      853.574
04/26/2014  12:34:00     -120.971      -71.922      -11.680      127.983      100.156       52.056    16379.561    10031.273     2709.868        2.453        1.456      140.737       43.523        0.096      337.558        9.612      853.511
04/26/2014  12:35:00      -61.139       81.529       -4.699      121.264      161.236       80.157    14704.888    25997.121     6425.090        2.876        2.356      101.906       61.929        0.369      337.592        9.670      853.499
04/26/2014  12:36:00     -365.500     -100.403      -16.573      221.575      131.583       78.349    49095.546    17314.041     6138.558       10.823        3.627      379.040       69.625        0.034      337.346        9.256      853.449
04/26/2014  12:37:00     -295.016      -35.904       -6.745      160.983      123.591       77.738    25915.608    15274.802     6043.209        6.779        2.362      297.192       83.069        0.078      337.183        8.981      853.442
04/26/2014  12:38:00     -230.477     -130.463        7.213      165.913      124.520       71.842    27527.088    15505.239     5161.340        5.918        2.410      264.840       81.758        0.095      337.516        9.541      853.523
04/26/2014  12:39:00     -323.087     -198.273       -8.364      142.943       86.940       62.522    20432.712     7558.572     3909.017        8.783        1.595      379.074       63.329        0.028      337.208        9.024      853.546
04/26/2014  12:40:00     -279.982     -154.745       -1.581      161.529      133.136       77.653    26091.567    17725.107     6030.004        7.608        2.492      319.900       91.809        0.082      337.554        9.605      853.541
04/26/2014  12:41:00     -283.634     -208.730      -12.144      168.684      154.254       83.532    28454.317    23794.405     6977.646        9.168        2.961      352.160       89.078        0.064      337.259        9.109      853.570
04/26/2014  12:42:00     -311.414     -191.185       -7.296       98.939      104.942       59.291     9788.997    11012.920     3515.459        7.895        1.216      365.418       57.350        0.025      337.172        8.963      853.540
04/26/2014  12:43:00     -337.405      -71.097      -18.553      152.652      153.109       70.938    23302.766    23442.352     5032.207        8.550        2.589      344.814       68.877        0.040      337.610        9.697      853.525
04/26/2014  12:44:00     -364.761     -189.768        4.623      217.935      186.719       84.837    47495.705    34864.167     7197.338       12.930        4.478      411.172       98.446        0.057      337.165        8.953      853.552
04/26/2014  12:45:00     -280.736       10.998      -14.551      160.982      124.515       65.529    25915.301    15504.074     4294.031        6.242        2.286      280.951       58.434        0.043      337.329        9.227      853.535
04/26/2014  12:46:00     -393.050        6.879      -28.178      227.297      149.943       97.305    51663.853    22482.789     9468.313       11.946        4.181      393.110      105.251        0.072      337.715        9.874      853.483
04/26/2014  12:47:00     -518.498     -174.430      -15.703      191.698      163.553       92.715    36748.300    26749.738     8596.162       18.579        3.605      547.052       98.713        0.033      337.390        9.328      853.516
04/26/2014  12:48:00     -351.106     -114.357      -12.738      147.618      153.672       73.485    21791.196    23615.166     5400.093        9.365        2.540      369.260       68.924        0.035      337.475        9.471      853.536
04/26/2014  12:49:00     -509.233     -132.809      -17.633      170.633      150.152       83.032    29115.710    22545.597     6894.383       16.790        2.928      526.266       76.203        0.021      337.335        9.236      853.548
04/26/2014  12:50:00     -510.931     -200.711      -11.448      302.391      159.839      106.782    91440.540    25548.591    11402.419       21.490        6.420      548.940      148.381        0.073      337.185        8.985      853.599
04/26/2014  12:51:00     -348.935     -112.066       -6.594      230.112      164.739       70.851    52951.365    27138.861     5019.795       10.972        4.256      366.489       95.258        0.068      337.567        9.626      853.628
04/26/2014  12:52:00     -269.700     -238.096        8.006      198.549      139.499       87.367    39421.711    19459.962     7633.053        9.799        3.326      359.761      107.505        0.089      337.499        9.511      853.649
04/26/2014  12:53:00     -224.660     -106.048       13.883      151.156      142.222       74.460    22848.034    20227.016     5544.327        5.526        2.431      248.432       75.476        0.092      337.619        9.712      853.660
04/26/2014  12:54:00     -108.607     -136.890       26.806      148.712      122.520       85.715    22115.150    15011.223     7347.041        3.785        2.224      174.741       84.984        0.237      337.945       10.260      853.664
04/26/2014  12:55:00     -235.174      -68.189        1.168      168.456      106.902       64.617    28377.311    11427.957     4175.325        5.196        2.199      244.860       86.536        0.125      337.773        9.972      853.693
04/26/2014  12:56:00     -319.520     -150.981       -4.872      175.688      158.174       83.777    30866.390    25019.120     7018.643        9.390        3.145      353.395       92.830        0.069      337.703        9.853      853.710
04/26/2014  12:57:00     -600.223     -212.520      -21.067      265.788      209.612      106.231    70643.186    43937.048    11285.071       26.585        6.293      636.736      116.689        0.034      337.476        9.473      853.719
04/26/2014  12:58:00     -507.169     -110.513      -20.297      287.039      211.182      114.920    82391.131    44597.638    13206.497       20.499        7.010      519.070      137.440        0.070      337.521        9.548      853.731
04/26/2014  12:59:00     -547.572     -374.531      -18.588      266.513      231.794       95.508    71029.277    53728.248     9121.837       28.714        6.694      663.407      106.620        0.026      337.191        8.995      853.778
04/26/2014  13:00:00     -275.185     -208.132       14.776      208.482      169.549       94.305    43464.859    28746.912     8893.388       10.017        4.055      345.030       96.370        0.078      337.544        9.586      853.754
04/26/2014  13:01:00     -233.516     -119.177        8.920      176.881      126.213       79.719    31286.965    15929.802     6355.132        6.118        2.679      262.170       73.936        0.080      337.726        9.893      853.787
04/26/2014  13:02:00     -290.107     -177.136        5.100      207.193      149.255       97.642    42929.029    22276.913     9534.001        9.514        3.737      339.911      122.349        0.130      337.551        9.600      853.806
04/26/2014  13:03:00     -356.679      -46.732        8.119      211.191      176.545       83.538    44601.475    31168.179     6978.583       10.609        4.137      359.728       96.892        0.073      337.675        9.807      853.786
04/26/2014  13:04:00     -319.595     -237.118       -6.844      201.409      208.512       81.778    40565.593    43477.337     6687.684       12.455        4.537      397.952       95.117        0.057      337.864       10.123      853.791
04/26/2014  13:05:00     -246.089     -179.475       13.223      167.603      130.381       83.941    28090.644    16999.119     7046.011        7.253        2.607      304.583       89.775        0.087      337.569        9.628      853.788
04/26/2014  13:06:00     -357.181     -222.785      -17.444      180.974      113.163       89.129    32751.634    12805.840     7944.014       11.550        2.675      420.965       96.038        0.052      337.617        9.707      853.787
04/26/2014  13:07:00     -371.429     -172.058       -0.535      184.880      159.618       75.556    34180.768    25477.871     5708.773       11.645        3.268      409.345       77.852        0.036      337.525        9.557      853.798
04/26/2014  13:08:00     -306.548     -138.407        7.628      243.003      144.363       82.199    59050.416    20840.780     6756.640        9.990        4.332      336.345       83.996        0.062      337.579        9.646      853.796
04/26/2014  13:09:00     -587.939     -123.088      -35.836      267.904      234.912      113.613    71772.539    55183.828    12907.889       25.096        6.993      600.686      134.788        0.050      337.491        9.498      853.778
04/26/2014  13:10:00     -219.451      -81.532        0.274      175.385      130.757       74.970    30759.844    17097.374     5620.571        5.413        2.674      234.107       83.738        0.128      337.884       10.157      853.800
04/26/2014  13:11:00     -534.534     -132.455      -30.230      227.149      168.066       93.026    51596.561    28246.149     8653.744       19.632        4.425      550.701      107.361        0.038      337.368        9.292      853.795
04/26/2014  13:12:00     -235.430     -175.438       10.169      173.921      122.268       79.689    30248.386    14949.550     6350.380        6.892        2.577      293.608       84.625        0.083      337.607        9.692      853.824
04/26/2014  13:13:00     -255.245      -97.622       -5.267      215.061      113.534       59.569    46251.147    12889.939     3548.483        6.869        3.134      273.276       81.448        0.089      337.429        9.396      853.780
04/26/2014  13:14:00     -215.800     -206.526        6.348      190.398      187.208       77.196    36251.446    35046.872     5959.210        8.324        3.863      298.702       76.551        0.066      337.565        9.624      853.782
04/26/2014  13:15:00     -330.230     -165.318        1.891      213.149      173.554       84.093    45432.312    30120.964     7071.702       10.949        4.131      369.299       97.965        0.070      337.426        9.389      853.812
04/26/2014  13:16:00     -429.114     -110.124        3.760      186.221      156.421       86.051    34678.105    24467.495     7404.744       13.140        3.328      443.019       89.782        0.041      337.764        9.954      853.826
04/26/2014  13:17:00     -399.192     -193.738       -1.690      267.692      194.116      109.429    71658.873    37681.052    11974.773       15.908        6.066      443.721      131.127        0.087      337.788        9.996      853.835
04/26/2014  13:18:00     -458.116     -139.519      -34.372      210.095      182.497       85.985    44140.102    33305.103     7393.416       15.766        4.242      478.890       90.868        0.036      337.485        9.488      853.895
04/26/2014  13:19:00     -289.445     -181.785      -24.558      150.781      141.473       70.140    22734.918    20014.561     4919.667        8.254        2.383      341.796       83.839        0.060      337.377        9.307      853.876
04/26/2014  13:20:00     -383.627     -169.316       -8.390      165.141      120.326       75.910    27271.670    14478.301     5762.305       11.170        2.376      419.329       72.826        0.030      337.478        9.476      853.861
04/26/2014  13:21:00     -562.701     -300.381       -3.003      343.500      182.179      142.146   117992.168    33189.144    20205.360       28.909        8.569      637.857      177.097        0.077      337.440        9.413      853.862
04/26/2014  13:22:00     -173.480      -58.171       36.290      257.883      187.861      112.412    66503.448    35291.686    12636.420        7.459        5.722      182.973      137.628        0.566      337.798       10.014      853.878
04/26/2014  13:23:00     -558.505     -100.504      -23.300      246.935      204.753      102.496    60976.861    41923.962    10505.405       21.797        5.670      567.476      131.719        0.054      337.042        8.746      853.895
04/26/2014  13:24:00     -470.852      -22.333      -32.510      153.921      142.674       76.500    23691.729    20355.808     5852.267       13.657        2.495      471.381       71.802        0.023      337.409        9.359      853.842
04/26/2014  13:25:00     -552.651      -71.861      -48.351      149.108      138.791       95.050    22233.254    19262.996     9034.574       18.172        2.527      557.303       86.876        0.024      337.453        9.433      853.863
04/26/2014  13:26:00     -407.363     -218.475       -5.325      314.384      171.631       86.097    98837.140    29457.188     7412.699       17.468        6.785      462.251      110.515        0.057      337.234        9.065      853.864
04/26/2014  13:27:00     -158.148      -70.683       15.349      185.767      172.051       86.272    34509.448    29601.378     7442.909        5.088        3.578      173.225       86.030        0.247      337.615        9.707      853.809
04/26/2014  13:28:00     -447.461      -58.195      -21.184      269.174      195.062       87.474    72454.845    38049.296     7651.726       16.108        5.908      451.230      102.998        0.052      337.520        9.545      853.823
04/26/2014  13:29:00     -714.060      -60.114      -40.561      236.438      207.864      109.842    55903.064    43207.301    12065.288       31.314        5.559      716.585      116.302        0.026      337.255        9.103      853.858
04/26/2014  13:30:00     -498.707     -150.572      -44.426      293.709      239.134      121.876    86264.957    57184.866    14853.701       21.580        7.915      520.942      132.823        0.065      337.283        9.150      853.922
04/26/2014  13:31:00     -254.791      -74.322        6.928      227.387      158.240       80.814    51704.879    25039.986     6530.923        7.687        4.164      265.409       85.462        0.104      337.758        9.946      853.935
04/26/2014  13:32:00     -465.048      -38.906      -11.822      214.894      223.527       93.021    46179.305    49964.177     8652.929       16.134        5.240      466.673       96.406        0.043      337.372        9.298      853.919
04/26/2014  13:33:00     -311.438     -187.567      -10.242      283.311      290.732      105.293    80265.275    84525.220    11086.664       15.404        8.794      363.558      133.640        0.135      337.516        9.540      853.856
04/26/2014  13:34:00     -589.287     -143.467      -24.134      329.553      207.098      129.487   108605.301    42889.549    16766.929       26.831        8.413      606.499      167.625        0.076      337.356        9.272      853.787
04/26/2014  13:35:00     -609.011      -63.286      -32.391      182.842      162.702       90.965    33431.125    26471.885     8274.686       22.205        3.409      612.290       81.493        0.018      337.377        9.308      853.786
04/26/2014  13:36:00     -314.273     -209.177        9.417      265.037      222.438      114.056    70244.805    49478.482    13008.866       13.764        6.637      377.522      139.676        0.137      337.474        9.470      853.802
04/26/2014  13:37:00     -395.466     -153.546      -12.925      260.888      153.093       95.588    68062.731    23437.397     9137.141       14.037        5.032      424.229      120.188        0.080      337.547        9.590      853.794
04/26/2014  13:38:00     -325.217      -18.402      -18.379      190.231      122.970       69.716    36187.766    15121.640     4860.287        8.130        2.808      325.738       72.008        0.049      337.722        9.886      853.797
04/26/2014  13:39:00     -463.695      -52.950      -49.278      205.452      160.824       65.254    42210.652    25864.271     4258.053       14.627        3.617      466.708       79.347        0.029      337.937       10.245      853.813
04/26/2014  13:40:00     -392.799      -49.941      -30.548      213.296      195.292       91.215    45495.177    38138.794     8320.258       12.482        4.598      395.961      101.198        0.065      337.917       10.212      853.854
04/26/2014  13:41:00     -480.535      -82.547      -44.125      216.922      254.109      106.376    47055.004    64571.617    11315.897       18.128        6.147      487.573      101.084        0.043      337.694        9.838      853.842
04/26/2014  13:42:00     -488.107     -114.012      -27.040      272.412      169.124      100.609    74208.484    28603.072    10122.233       18.243        5.647      501.246      108.251        0.047      337.661        9.783      853.773
04/26/2014  13:43:00     -444.247      -60.108      -17.332      257.969      181.791      105.112    66547.839    33048.051    11048.628       15.593        5.532      448.295      107.606        0.058      337.844       10.088      853.761
04/26/2014  13:44:00     -430.890      -50.174      -17.368      260.086      209.161      108.807    67644.549    43748.519    11838.867       15.583        6.162      433.801      121.339        0.078      337.741        9.917      853.797
04/26/2014  13:45:00     -644.632     -225.517      -49.726      286.327      189.509      118.586    81982.979    35913.697    14062.681       30.039        6.598      682.941      136.757        0.040      337.412        9.365      853.722
04/26/2014  13:46:00     -461.221     -135.491      -15.500      217.306      204.291       90.826    47222.007    41734.787     8249.362       16.425        4.860      480.711       65.114        0.018      337.491        9.496      853.771
04/26/2014  13:47:00     -403.274      -71.123      -29.911      146.426      163.977       73.271    21440.469    26888.576     5368.692       11.113        2.685      409.498       50.248        0.015      337.627        9.726      853.811
04/26/2014  13:48:00     -453.721      115.163      -36.791      237.452      192.013      102.782    56383.576    36868.837    10564.143       16.213        5.191      468.108      105.648        0.051      337.774        9.973      853.820
04/26/2014  13:49:00     -603.481      -59.084      -32.680      220.945      170.049      114.984    48816.759    28916.687    13221.300       22.983        4.548      606.366      128.450        0.045      337.737        9.911      853.859
04/26/2014  13:50:00     -466.938     -168.797      -11.532      196.285      135.945       83.364    38527.967    18481.066     6949.635       15.529        3.198      496.511       91.257        0.034      337.610        9.697      853.880
04/26/2014  13:51:00     -268.562     -196.626        0.287      211.040      205.814       98.272    44538.000    42359.353     9657.472       10.365        4.828      332.847      114.235        0.118      337.552        9.602      853.867
04/26/2014  13:52:00     -260.129     -101.694        0.215      226.017      141.505       73.785    51083.781    20023.583     5444.158        7.726        3.828      279.300       80.698        0.083      337.512        9.535      853.847
04/26/2014  13:53:00     -285.944     -190.047       17.413      222.693      152.070       94.650    49592.349    23125.304     8958.567        9.991        4.084      343.340      112.203        0.107      337.600        9.680      853.830
04/26/2014  13:54:00     -356.630     -313.578       -4.108      234.171      218.975      129.783    54835.999    47950.269    16843.713       17.256        5.981      474.885      147.776        0.097      337.702        9.851      853.823
04/26/2014  13:55:00     -330.278     -226.920        9.518      346.109      246.500      118.950   119791.428    60762.359    14149.010       17.765        9.735      400.720      127.187        0.101      337.639        9.747      853.850
04/26/2014  13:56:00     -614.612     -222.230      -46.253      282.054      220.390      114.583    79554.712    48571.550    13129.243       28.524        7.063      653.555      123.825        0.036      337.433        9.400      853.871
04/26/2014  13:57:00     -464.726     -265.353      -26.230      271.842      205.708      111.122    73898.129    42315.792    12348.192       20.779        6.428      535.147      126.126        0.056      337.583        9.652      853.919
04/26/2014  13:58:00     -306.216     -124.059       13.184      281.959      215.596      131.874    79500.658    46481.802    17390.822       12.632        7.169      330.392      146.587        0.197      337.524        9.553      853.929
04/26/2014  13:59:00     -495.656     -146.587      -21.150      202.027      194.926       94.866    40814.812    37995.955     8999.533       17.769        4.391      516.877       80.558        0.024      337.470        9.462      853.940
04/26/2014  14:00:00     -360.709     -123.630       21.830      298.174      178.685      106.392    88907.778    31928.357    11319.241       13.899        6.608      381.307      135.629        0.127      337.905       10.193      853.983
04/26/2014  14:01:00     -498.102     -330.986      -19.709      261.306      243.496      117.367    68280.777    59290.139    13775.046       24.967        7.067      598.045      129.823        0.047      337.512        9.533      854.026
04/26/2014  14:02:00     -334.481     -267.605       10.720      237.942      229.195      117.435    56616.329    52530.252    13790.908       15.325        6.147      428.357      133.246        0.097      337.602        9.683      853.971
04/26/2014  14:03:00     -148.449      -24.429       19.837      175.946      127.332       85.675    30956.965    16213.547     7340.173        3.876        2.726      150.445       87.864        0.341      338.358       10.954      854.062
04/26/2014  14:04:00     -417.033     -171.740       -0.820      350.414      215.410      130.253   122789.977    46401.373    16965.803       19.475        9.308      451.011      165.039        0.134      337.803       10.021      854.119
04/26/2014  14:05:00     -517.416     -230.851       -9.211      310.281      221.165      109.142    96274.494    48913.957    11911.869       23.907        7.855      566.579      126.485        0.050      337.399        9.344      854.197
04/26/2014  14:06:00     -345.970     -134.683       -9.100      179.187      147.072       73.427    32107.884    21630.054     5391.519        9.851        2.956      371.261       69.346        0.035      337.182        8.981      854.183
04/26/2014  14:07:00     -366.150     -195.265       -6.817      214.680      182.564      106.928    46087.488    33329.534    11433.529       13.153        4.543      414.963      112.563        0.074      337.502        9.516      854.168
04/26/2014  14:08:00     -497.992     -214.895      -20.753      243.568      186.893      110.259    59325.430    34928.971    12157.114       20.049        5.321      542.380      131.900        0.059      337.860       10.116      854.247
04/26/2014  14:09:00     -462.691     -124.574       -7.517      276.129      170.022       84.336    76247.106    28907.378     7112.619       17.094        5.613      479.168       85.621        0.032      337.744        9.923      854.326
04/26/2014  14:10:00     -607.329     -148.957      -28.665      300.268      193.505       96.417    90160.797    37444.361     9296.225       26.435        6.845      625.329       85.570        0.019      337.103        8.848      854.350
04/26/2014  14:11:00     -158.628      -53.777       24.454      164.842      139.499       74.635    27172.731    19459.951     5570.378        4.042        2.610      167.496       81.678        0.238      337.769        9.964      854.327
04/26/2014  14:12:00     -161.698      -38.590      -33.839      265.870       94.979       54.345    70686.934     9020.981     2953.408        5.570        4.133      166.239       61.959        0.139      337.821       10.051      854.326
04/26/2014  14:13:00     -518.065      -18.982      -39.234      187.645      165.189       78.538    35210.489    27287.565     6168.146       16.946        3.433      518.413       83.292        0.026      337.958       10.281      854.346
04/26/2014  14:14:00     -479.133      -35.286      -31.243      216.456      156.898       89.242    46853.227    24616.867     7964.170       15.560        3.972      480.430       87.511        0.033      337.660        9.782      854.368
04/26/2014  14:15:00     -500.075      -35.324      -43.022      203.512      138.823       86.804    41417.293    19271.691     7534.893       16.069        3.411      501.321      107.702        0.046      337.411        9.363      854.363
04/26/2014  14:16:00     -296.120      -64.729       -7.930      196.321      238.424       94.259    38541.820    56846.209     8884.738        9.809        5.214      303.112       94.387        0.097      337.776        9.975      854.358
04/26/2014  14:17:00     -525.261     -104.350      -42.833      235.579      158.541       95.879    55497.404    25135.406     9192.792       18.921        4.491      535.525       83.621        0.024      337.607        9.692      854.394
04/26/2014  14:18:00     -410.264      -40.194      -32.854      253.309      126.362       95.068    64165.638    15967.437     9037.966       13.007        4.459      412.228      105.832        0.066      337.784        9.989      854.388
04/26/2014  14:19:00     -467.615     -111.229      -48.685      173.670      147.998       77.448    30161.205    21903.520     5998.266       14.572        2.903      480.662       80.386        0.028      337.812       10.036      854.394
04/26/2014  14:20:00     -528.290     -169.321      -23.236      254.950      206.780      100.751    64999.546    42758.092    10150.709       21.308        5.895      554.761      108.122        0.038      337.735        9.906      854.391
04/26/2014  14:21:00     -287.509     -117.630       21.192      335.437      181.403      102.436   112517.865    32907.116    10493.225       12.640        7.796      310.642      150.035        0.233      337.738        9.912      854.393
04/26/2014  14:22:00     -507.101     -118.535      -28.017      222.812      159.216       91.466    49645.110    25349.744     8365.945       17.766        4.168      520.770       95.754        0.034      337.443        9.418      854.399
04/26/2014  14:23:00     -427.391      -15.696      -18.435      150.763      150.391       82.452    22729.370    22617.448     6798.266       11.769        2.607      427.679       77.155        0.033      337.656        9.774      854.366
04/26/2014  14:24:00     -171.383     -127.875        6.440      126.966      159.139       66.054    16120.429    25325.138     4363.118        4.578        2.290      213.832       60.402        0.080      337.670        9.798      854.309
04/26/2014  14:25:00     -391.385      -88.939      -14.826      275.758      212.428      108.837    76042.708    45125.566    11845.439       14.714        6.651      401.363      124.106        0.096      337.883       10.155      854.303
04/26/2014  14:26:00     -331.163     -100.246       -8.456      222.428      141.996       83.405    49474.033    20162.845     6956.317        9.818        3.830      346.004       88.309        0.065      337.973       10.305      854.328
04/26/2014  14:27:00     -253.228      -86.489        2.153      170.138      125.719       69.812    28947.012    15805.276     4873.763        6.061        2.481      267.590       77.885        0.085      337.701        9.851      854.359
04/26/2014  14:28:00     -284.401      -96.571      -27.000      192.473      115.699       69.122    37045.727    13386.259     4777.899        7.306        2.760      300.350       66.677        0.049      337.832       10.070      854.351
04/26/2014  14:29:00     -329.224      -69.985      -10.657      253.270      118.779       69.400    64145.894    14108.394     4816.415        9.822        4.154      336.581       87.475        0.068      337.953       10.272      854.378
04/26/2014  14:30:00     -455.254     -157.534      -14.635      304.051      192.663      112.757    92446.935    37119.184    12714.249       18.726        7.114      481.739      141.534        0.086      337.606        9.691      854.316
04/26/2014  14:31:00     -553.582     -142.902      -35.637      284.896      210.867       98.732    81165.746    44464.893     9747.989       23.173        6.769      571.729       91.350        0.026      337.565        9.622      854.283
04/26/2014  14:32:00     -421.635     -173.778      -25.307      251.996      219.286      109.813    63502.145    48086.161    12058.914       16.611        6.182      456.042      126.656        0.077      337.743        9.920      854.247
04/26/2014  14:33:00     -487.832      -27.630      -31.572      189.943      136.617       87.340    36078.177    18664.168     7628.212       15.104        3.119      488.613       93.739        0.037      337.476        9.473      854.300
04/26/2014  14:34:00     -391.817      -79.473       -3.906      180.860      133.666       74.888    32710.409    17866.586     5608.266       10.801        2.809      399.796       81.305        0.041      337.614        9.704      854.272
04/26/2014  14:35:00     -355.838      -27.635      -15.146      207.259      161.991       69.394    42956.493    26241.053     4815.489       10.080        3.701      356.910       88.824        0.062      337.864       10.123      854.268
04/26/2014  14:36:00     -227.190     -131.128       -0.441      206.834      162.198       88.897    42780.129    26308.219     7902.606        7.289        3.850      262.316       92.802        0.125      337.869       10.133      854.292
04/26/2014  14:37:00     -535.118      -30.483      -20.944      232.133      155.941       91.295    53885.776    24317.657     8334.841       18.711        4.327      535.985       84.721        0.025      337.711        9.866      854.332
04/26/2014  14:38:00     -580.455      -27.876      -58.510      224.660      210.938       97.584    50472.160    44494.727     9522.693       22.279        5.224      581.124       95.137        0.027      337.795       10.007      854.356
04/26/2014  14:39:00     -459.449       -6.157      -26.704      176.982      143.322       77.176    31322.698    20541.205     5956.188       13.482        2.891      459.490       64.578        0.020      337.362        9.280      854.396
04/26/2014  14:40:00     -365.450     -125.817       -4.516      223.394      150.444       75.204    49904.718    22633.474     5655.700       11.378        3.910      386.502       64.605        0.028      337.748        9.929      854.378
04/26/2014  14:41:00     -659.185      -96.720      -49.976      230.185      171.638       98.863    52985.356    29459.612     9773.851       26.928        4.611      666.243      109.349        0.027      337.440        9.412      854.372
04/26/2014  14:42:00     -383.473      -57.232      -10.406      230.328      148.858       73.577    53051.053    22158.834     5413.521       11.551        4.031      387.720       77.548        0.040      337.597        9.675      854.411
04/26/2014  14:43:00     -603.121     -180.607      -29.323      248.294      169.293       91.230    61650.078    28660.001     8322.921       24.791        4.932      629.582      108.511        0.030      337.282        9.147      854.415
04/26/2014  14:44:00     -426.706      -56.179      -10.380      182.490      150.137       80.653    33302.598    22541.134     6504.854       12.383        3.117      430.388       72.712        0.029      337.491        9.498      854.400
04/26/2014  14:45:00     -520.522     -142.106      -10.353      239.979      165.883       94.120    57589.767    27517.119     8858.582       19.259        4.698      539.571      111.421        0.043      337.374        9.302      854.373
04/26/2014  14:46:00     -499.253     -139.227       -5.633      196.566      112.256       74.108    38638.174    12601.515     5491.986       16.269        2.837      518.303       90.669        0.031      337.357        9.273      854.400
04/26/2014  14:47:00     -425.700      -28.580      -25.297      183.813      146.959       76.810    33787.208    21596.838     5899.841       12.197        3.064      426.658       74.151        0.030      337.726        9.891      854.388
04/26/2014  14:48:00     -408.058     -117.465      -17.938      240.991      177.190       86.866    58076.695    31396.468     7545.619       13.881        4.851      424.628       62.468        0.022      337.987       10.329      854.345
04/26/2014  14:49:00     -574.006     -104.210      -16.109      215.404      229.632       92.317    46398.787    52730.670     8522.505       22.411        5.383      583.389       91.098        0.024      337.829       10.064      854.361
04/26/2014  14:50:00     -547.010     -132.235      -29.882      296.234      200.701      120.833    87754.826    40280.832    14600.565       23.009        7.132      562.767      144.946        0.066      337.558        9.610      854.342
04/26/2014  14:51:00     -343.985      -87.543      -42.692      147.846      165.052       83.096    21858.556    27242.148     6904.886        9.190        2.800      354.950       79.366        0.050      337.663        9.786      854.363
04/26/2014  14:52:00     -437.190        9.814      -43.371      263.779      125.716       90.273    69579.580    15804.608     8149.161       14.330        4.677      437.300       99.324        0.052      337.745        9.925      854.351
04/26/2014  14:53:00     -587.061      -64.407      -42.214      152.774      232.426       85.027    23339.980    54022.004     7229.615       21.756        4.230      590.584       68.090        0.013      337.768        9.961      854.387
04/26/2014  14:54:00     -438.699     -159.634       -0.502      235.002      176.218       99.343    55225.781    31052.735     9869.095       15.702        4.807      466.840      123.843        0.070      337.811       10.033      854.394
04/26/2014  14:55:00     -548.326     -177.540      -34.034      258.707      178.311       94.731    66929.364    31794.866     8973.979       22.050        5.385      576.352      110.725        0.037      337.780        9.983      854.431
04/26/2014  14:56:00     -430.766      -10.178      -17.862      223.954      154.510      106.641    50155.545    23873.272    11372.304       13.567        4.270      430.886      114.739        0.071      337.818       10.046      854.451
04/26/2014  14:57:00     -369.672       -0.410      -17.026      275.677      181.878       97.789    75997.539    33079.606     9562.605       12.777        5.932      369.672      103.826        0.079      338.117       10.548      854.431
04/26/2014  14:58:00     -185.304     -193.453       26.676      206.124      138.378       92.188    42486.945    19148.420     8498.570        7.129        3.507      267.884      109.861        0.168      338.037       10.413      854.460
04/26/2014  14:59:00     -337.004     -162.837        2.780      152.630      151.760       79.570    23295.966    23031.182     6331.314        9.637        2.633      374.283       77.456        0.043      337.873       10.137      854.441
04/26/2014  15:00:00     -437.505     -190.672       -6.621      207.889      186.273       95.290    43217.787    34697.546     9080.141       15.739        4.350      477.249       94.894        0.040      337.708        9.861      854.473
04/26/2014  15:01:00     -478.376     -207.105       -9.210      214.188      157.286      100.660    45876.345    24738.904    10132.506       17.627        4.037      521.283      105.400        0.041      337.577        9.642      854.506
04/26/2014  15:02:00     -532.563     -118.733      -20.576      266.472      249.676       96.702    71007.105    62338.114     9351.361       22.039        7.135      545.638      113.007        0.043      337.558        9.610      854.479
04/26/2014  15:03:00     -347.112      -76.719      -13.531      195.525      144.361       82.070    38230.051    20840.242     6735.429        9.617        3.290      355.489       77.004        0.047      337.953       10.273      854.493
04/26/2014  15:04:00     -332.763     -278.471        0.866      249.579      193.193       91.806    62289.741    37323.454     8428.322       14.814        5.402      433.909      111.367        0.066      337.855       10.109      854.525
04/26/2014  15:05:00     -558.894     -425.483      -13.308      263.265      218.693      122.883    69308.225    47826.769    15100.204       31.288        6.612      702.423      140.072        0.040      337.352        9.265      854.472
04/26/2014  15:06:00     -413.464     -210.929        3.397      229.425      192.342      103.976    52635.737    36995.397    10810.994       15.793        5.022      464.159      106.268        0.052      337.526        9.555      854.460
04/26/2014  15:07:00     -465.878     -171.080        4.475      225.070      214.110      114.182    50656.466    45843.081    13037.512       17.791        5.477      496.297      133.156        0.072      337.511        9.530      854.468
04/26/2014  15:08:00     -456.201     -260.446      -18.006      218.795      186.575       88.210    47871.457    34810.248     7781.000       18.335        4.523      525.311       86.655        0.027      337.446        9.423      854.485
04/26/2014  15:09:00     -379.783     -276.864       -3.364      204.756      150.274       95.612    41924.834    22582.307     9141.620       14.726        3.682      469.988      104.723        0.050      337.193        8.999      854.451
04/26/2014  15:10:00     -303.751      -65.652       18.741      267.124      199.526      105.525    71355.170    39810.509    11135.445       10.959        6.115      310.765      131.212        0.178      337.962       10.288      854.428
04/26/2014  15:11:00     -585.521     -283.805      -33.613      217.811      155.958      112.053    47441.613    24323.035    12555.899       25.440        4.216      650.677      112.070        0.030      337.489        9.495      854.401
04/26/2014  15:12:00     -559.038     -305.724      -24.452      270.842      186.214      100.831    73355.387    34675.770    10166.982       26.237        5.910      637.174      102.659        0.026      337.611        9.700      854.399
04/26/2014  15:13:00     -500.554     -302.104      -20.044      268.263      276.756      132.645    71965.153    76593.925    17594.743       25.416        8.308      584.655      139.869        0.057      337.681        9.815      854.385
04/26/2014  15:14:00     -557.020     -212.829      -17.079      262.867      203.019      107.332    69098.837    41216.630    11520.060       23.882        6.092      596.294      124.828        0.044      337.675        9.806      854.376
04/26/2014  15:15:00     -295.422     -205.462       23.561      259.052      269.497      111.242    67108.002    72628.405    12374.802       14.105        7.606      359.845      139.421        0.150      337.912       10.204      854.466
04/26/2014  15:16:00     -370.568     -272.166        2.605      224.578      210.188      110.859    50435.326    44179.088    12289.785       15.913        5.345      459.777      127.015        0.076      337.657        9.775      854.431
04/26/2014  15:17:00     -422.447      -83.636       -8.693      272.858      181.300       99.402    74451.741    32869.817     9880.822       15.134        5.860      430.647      115.821        0.072      337.923       10.222      854.402
04/26/2014  15:18:00     -461.404     -183.193       -1.556      235.772      202.897      109.336    55588.652    41167.384    11954.356       17.756        5.436      496.441      126.858        0.065      337.365        9.286      854.419
04/26/2014  15:19:00     -293.037      -98.627       13.293      178.964      146.153       81.433    32028.191    21360.843     6631.335        7.789        3.001      309.189       85.992        0.077      337.506        9.523      854.394
04/26/2014  15:20:00     -427.724     -204.166      -15.335      274.523      189.570      101.200    75362.605    35936.970    10241.495       17.318        6.077      473.953      121.229        0.065      337.415        9.370      854.384
04/26/2014  15:21:00     -427.196     -272.692       -3.310      149.617      139.437       77.036    22385.188    19442.715     5934.486       15.231        2.388      506.811       70.592        0.019      337.384        9.319      854.380
04/26/2014  15:22:00     -452.986     -163.729      -13.300      181.042      170.121       91.324    32776.267    28940.994     8340.156       15.111        3.503      481.668       91.933        0.036      337.669        9.796      854.413
04/26/2014  15:23:00     -433.635     -106.255      -15.510      219.289      177.649       87.922    48087.550    31559.189     7730.204       14.346        4.369      446.463       95.206        0.045      337.722        9.884      854.414
04/26/2014  15:24:00     -473.861      -32.168      -35.792      165.814      184.999       70.464    27494.151    34224.797     4965.111       14.676        3.334      474.951       75.278        0.025      337.679        9.813      854.421
04/26/2014  15:25:00     -553.032      -34.907      -33.474      247.454      179.882       92.362    61233.269    32357.379     8530.746       20.513        5.106      554.132       95.085        0.029      337.603        9.686      854.442
04/26/2014  15:26:00     -541.772     -118.592      -38.892      196.459      201.394       84.915    38596.324    40559.381     7210.603       19.771        4.318      554.600       77.155        0.019      337.769        9.963      854.474
04/26/2014  15:27:00     -495.377     -151.959      -39.989      266.546      176.433      112.069    71046.676    31128.744    12559.410       19.239        5.737      518.160      115.976        0.050      337.775        9.974      854.505
04/26/2014  15:28:00     -669.478     -164.119      -43.266      311.913      183.113      108.762    97289.452    33530.241    11829.133       30.980        7.132      689.301      130.614        0.036      337.569        9.630      854.512
04/26/2014  15:29:00     -479.222       39.863      -28.794      178.766      109.109       75.188    31957.327    11904.770     5653.182       14.078        2.476      480.877       82.078        0.029      337.712        9.869      854.516
04/26/2014  15:30:00     -530.216      -90.153      -27.677      227.062      159.609       97.288    51557.264    25475.067     9464.955       18.824        4.325      537.825      107.499        0.040      337.894       10.174      854.537
04/26/2014  15:31:00     -572.000       66.444      -19.377      234.276      157.115      102.831    54885.124    24685.181    10574.248       21.104        4.507      575.846      107.091        0.035      337.712        9.867      854.554
04/26/2014  15:32:00     -363.805     -246.608       -2.706      229.285      207.984       96.773    52571.704    43257.210     9365.081       14.916        5.260      439.511      109.430        0.062      337.746        9.925      854.564
04/26/2014  15:33:00     -645.171     -460.456      -31.695      290.761      250.069      115.456    84542.225    62534.338    13330.043       39.481        8.020      792.632      127.171        0.026      337.353        9.266      854.539
04/26/2014  15:34:00     -553.734     -383.812      -15.413      293.325      214.661      127.510    86039.605    46079.356    16258.760       30.124        7.419      673.745      153.708        0.052      337.226        9.054      854.555
04/26/2014  15:35:00     -325.228     -285.010        8.112      229.969      190.389      116.067    52885.774    36247.818    13471.594       14.482        5.130      432.440      110.962        0.066      337.359        9.277      854.592
04/26/2014  15:36:00     -350.194     -307.783       11.739      244.909      180.331      115.397    59980.355    32519.374    13316.532       16.164        5.291      466.225      130.817        0.079      337.331        9.230      854.637
04/26/2014  15:37:00     -309.657     -151.054       -1.339      247.934      125.347       71.649    61471.514    15711.802     5133.521       10.050        4.116      344.536       86.044        0.062      337.410        9.363      854.629
04/26/2014  15:38:00     -340.019      -92.979       -9.170      214.665      154.682       85.943    46081.200    23926.662     7386.115       10.085        3.870      352.502       83.942        0.057      337.591        9.665      854.614
04/26/2014  15:39:00     -312.691     -169.836        3.473      166.415      193.089       95.804    27693.856    37283.345     9178.449       10.038        3.708      355.837       87.595        0.061      337.511        9.532      854.562
04/26/2014  15:40:00     -427.696     -121.515       -0.427      240.100      145.707       88.026    57648.241    21230.405     7748.492       14.214        4.331      444.623      103.863        0.055      337.693        9.837      854.568
04/26/2014  15:41:00     -383.269     -120.562       10.303      197.988      200.209       95.403    39199.191    40083.453     9101.693       12.494        4.419      401.784      100.653        0.063      337.863       10.121      854.648
04/26/2014  15:42:00     -192.381     -160.226       16.689      173.135      129.164       96.582    29975.841    16683.417     9328.126        5.946        2.799      250.365       90.836        0.132      337.822       10.054      854.651
04/26/2014  15:43:00     -367.317       49.028      -25.431      173.339      126.910       84.673    30046.472    16106.274     7169.459        9.564        2.666      370.575       83.119        0.050      337.956       10.278      854.661
04/26/2014  15:44:00     -464.072     -114.093      -27.402      196.401      179.726       89.213    38573.200    32301.489     7959.040       15.397        3.942      477.892      105.413        0.049      337.848       10.095      854.658
04/26/2014  15:45:00     -297.068      -83.664      -19.657      147.095      144.778       75.597    21636.971    20960.673     5714.882        7.196        2.416      308.625       64.388        0.044      337.823       10.053      854.647
04/26/2014  15:46:00     -482.022      -48.352       -7.972      216.472      190.254       91.365    46860.084    36196.682     8347.497       16.306        4.570      484.441      106.862        0.049      337.690        9.831      854.689
04/26/2014  15:47:00     -487.325     -258.956      -14.852      250.091      176.440      104.676    62545.584    31131.010    10957.098       20.468        5.232      551.855      130.573        0.056      337.637        9.742      854.728
04/26/2014  15:48:00     -337.959     -272.358       -0.502      218.701      174.470      106.628    47830.325    30439.751    11369.529       13.900        4.482      434.045      124.344        0.082      337.625        9.723      854.730
04/26/2014  15:49:00     -390.690      -77.550      -27.495      212.882      210.507       88.419    45318.923    44313.161     7817.913       12.841        4.872      398.312       98.307        0.061      337.780        9.982      854.789
04/26/2014  15:50:00     -428.412     -217.338      -15.804      209.579      167.709      111.229    43923.155    28126.210    12371.857       15.770        4.221      480.388      119.792        0.062      337.684        9.820      854.840
04/26/2014  15:51:00     -554.761     -319.707      -27.880      347.200      236.747      116.474   120547.620    56049.212    13566.250       30.042        9.508      640.291      151.152        0.056      337.406        9.355      854.819
04/26/2014  15:52:00     -504.689     -178.360      -38.432      281.523      210.143      112.565    79255.060    44160.260    12670.770       21.202        6.804      535.278      131.852        0.061      337.258        9.106      854.775
04/26/2014  15:53:00     -442.309     -266.790       -7.748      246.669      154.368       96.872    60845.598    23829.405     9384.232       18.045        4.703      516.541      108.536        0.044      337.425        9.387      854.732
04/26/2014  15:54:00     -288.045     -254.345        6.735      232.597      154.849       95.158    54101.379    23978.181     9055.016       11.740        4.357      384.267       90.456        0.055      337.494        9.504      854.748
04/26/2014  15:55:00     -232.053     -116.316       -9.014      168.993      120.241       72.189    28558.672    14457.926     5211.280        5.783        2.411      259.573       65.517        0.064      337.784        9.990      854.731
04/26/2014  15:56:00     -228.276     -114.413        0.544      188.680      138.636       71.778    35600.108    19219.909     5152.051        6.257        2.999      255.343       59.179        0.054      337.793       10.004      854.749
04/26/2014  15:57:00     -454.045     -129.453      -23.419      178.871      153.364       68.851    31994.720    23520.493     4740.518       14.185        3.013      472.139       80.300        0.029      337.265        9.119      854.739
04/26/2014  15:58:00     -273.793      -58.606      -11.603      148.317      109.317       62.167    21998.036    11950.268     3864.781        5.816        1.891      279.995       71.757        0.066      337.443        9.418      854.772
04/26/2014  15:59:00     -185.216     -246.556        7.874      211.438      257.113       75.787    44706.053    66107.233     5743.633       10.583        5.828      308.374      105.565        0.117      337.553        9.603      854.763
04/26/2014  16:00:00     -473.925     -272.927      -12.724      271.710      182.449      102.269    73826.477    33287.549    10458.946       20.839        5.879      546.894      112.900        0.043      337.360        9.279      854.709
04/26/2014  16:01:00     -441.377      -20.146      -33.582      220.633      139.752       87.881    48678.929    19530.504     7723.078       13.612        3.797      441.836       96.465        0.048      337.543        9.584      854.798
04/26/2014  16:02:00     -566.822        4.224      -35.839      245.705      143.347      103.234    60371.034    20548.239    10657.279       20.706        4.579      566.838      114.383        0.041      337.387        9.323      854.830
04/26/2014  16:03:00     -226.110     -100.347       11.591      236.790      156.086       73.399    56069.412    24362.828     5387.435        7.356        4.291      247.377       93.054        0.141      337.455        9.440      854.846
04/26/2014  16:04:00     -293.019      -55.815        3.979      213.083      136.017       74.332    45404.320    18500.561     5525.224        7.920        3.472      298.288       90.135        0.091      337.423        9.386      854.822
04/26/2014  16:05:00     -445.310     -251.483      -11.507      208.792      164.438       92.718    43593.924    27039.918     8596.650       17.044        3.962      511.415      102.043        0.040      337.354        9.269      854.809
04/26/2014  16:06:00     -282.984     -198.183       -8.545      161.987      153.785       87.086    26239.891    23649.921     7583.970        8.844        2.874      345.480       93.811        0.074      337.448        9.425      854.858
04/26/2014  16:07:00     -303.559     -175.549      -10.483      161.115      144.579       71.454    25957.917    20903.168     5105.678        8.751        2.598      350.664       70.794        0.041      337.399        9.344      854.842
04/26/2014  16:08:00     -221.454      -84.926        1.154      157.173      103.780       64.077    24703.282    10770.334     4105.893        4.791        1.979      237.180       57.306        0.058      337.558        9.612      854.874
04/26/2014  16:09:00     -410.297     -123.369      -17.298      215.243      140.884       78.008    46329.619    19848.185     6085.211       12.805        3.613      428.443       92.968        0.047      337.361        9.280      854.863
04/26/2014  16:10:00     -461.349     -162.296      -36.245      179.849      154.465       88.137    32345.698    23859.576     7768.142       15.222        3.199      489.063       82.890        0.029      337.400        9.345      854.833
04/26/2014  16:11:00     -560.130      -81.294      -26.971      168.293      152.753       74.977    28322.561    23333.346     5621.592       18.917        2.864      565.998       88.780        0.025      337.207        9.021      854.817
04/26/2014  16:12:00     -517.138     -115.566      -23.761      204.446      141.024       84.547    41798.347    19887.650     7148.195       17.508        3.442      529.894       92.381        0.030      337.321        9.214      854.797
04/26/2014  16:13:00     -592.360     -225.137      -52.431      229.225      233.059      110.170    52544.219    54316.432    12137.364       26.164        5.950      633.701      102.336        0.026      337.215        9.036      854.813
04/26/2014  16:14:00     -486.205     -189.090      -24.084      316.599      170.396      100.832   100235.121    29034.803    10167.122       20.606        6.972      521.680      135.313        0.067      337.386        9.321      854.832
04/26/2014  16:15:00     -557.662     -138.884      -16.485      295.782      213.194      116.822    87486.928    45451.594    13647.360       23.854        7.329      574.696      117.063        0.041      337.224        9.051      854.875
04/26/2014  16:16:00     -406.285     -142.721       -6.782      156.513      154.568       83.850    24496.434    23891.357     7030.894       12.044        2.771      430.624       69.715        0.026      337.268        9.124      854.937
04/26/2014  16:17:00     -289.720     -129.766       -6.519      141.278      156.493       80.303    19959.542    24490.192     6448.539        7.585        2.545      317.454       77.601        0.060      337.406        9.356      854.957
04/26/2014  16:18:00     -229.469     -135.734       12.714      177.447      138.925       84.289    31487.426    19300.126     7104.588        6.456        2.895      266.608       90.726        0.116      337.409        9.361      854.951
04/26/2014  16:19:00     -573.324     -112.550       -2.118      285.313      193.247      104.917    81403.711    37344.232    11007.572       23.554        6.488      584.267      124.383        0.045      337.086        8.820      854.928
04/26/2014  16:20:00     -528.440     -302.007      -21.477      252.858      216.580      114.103    63937.350    46906.731    13019.442       24.737        6.193      608.652      121.969        0.040      337.131        8.893      854.920
04/26/2014  16:21:00     -386.526     -100.585       -8.159      210.069      156.954       98.865    44128.998    24634.663     9774.318       11.905        3.927      399.400      112.946        0.080      337.166        8.954      854.958
04/26/2014  16:22:00     -469.943     -297.435      -10.469      295.318      195.277      107.647    87212.491    38133.286    11587.813       22.315        6.847      556.160      118.175        0.045      337.033        8.730      854.956
04/26/2014  16:23:00     -487.660     -337.778      -22.680      247.320      227.279      107.862    61167.019    51655.759    11634.307       23.841        6.223      593.217      108.469        0.033      337.072        8.796      854.932
04/26/2014  16:24:00     -512.029     -331.389        3.386      282.407      213.759      131.535    79753.759    45692.850    17301.395       25.735        7.137      609.912      141.731        0.054      337.127        8.889      854.945
04/26/2014  16:25:00     -558.637     -267.183       -6.506      267.214      262.509      117.716    71403.369    68910.924    13857.129       26.881        7.709      619.243      127.200        0.042      337.089        8.823      854.942
04/26/2014  16:26:00     -516.191      -75.992       -1.047      243.866      205.952      112.126    59470.766    42416.325    12572.204       19.332        5.723      521.754      123.117        0.056      337.222        9.047      854.985
04/26/2014  16:27:00     -391.170     -174.678       -2.590      268.050      244.207      124.824    71850.751    59636.923    15581.145       16.527        7.353      428.400      144.232        0.113      337.275        9.137      854.996
04/26/2014  16:28:00     -354.017     -267.756       -9.798      250.311      190.737      116.329    62655.493    36380.576    13532.342       15.482        5.628      443.870      122.685        0.076      337.203        9.016      855.019
04/26/2014  16:29:00     -326.457     -166.494        8.191      267.723      167.144      104.568    71675.574    27937.206    10934.383       12.243        5.527      366.462      128.071        0.122      337.198        9.007      855.008
04/26/2014  16:30:00     -461.075     -337.933       -4.737      297.047      270.557      118.865    88236.817    73201.316    14128.850       25.115        8.778      571.654      145.014        0.064      337.014        8.700      854.983
04/26/2014  16:31:00     -292.727     -211.807        3.013      229.757      188.427      117.195    52788.132    35504.826    13734.770       11.627        5.101      361.318      122.157        0.114      337.161        8.945      854.970
04/26/2014  16:32:00     -405.937     -235.081      -10.200      257.464      196.687      113.334    66287.688    38685.866    12844.553       16.896        5.891      469.093      139.479        0.088      337.059        8.776      855.007
04/26/2014  16:33:00     -443.038     -305.918      -31.467      200.445      161.461      100.874    40178.329    26069.652    10175.542       18.363        3.821      538.394       93.617        0.030      337.097        8.838      854.999
04/26/2014  16:34:00     -475.614     -313.265      -17.546      272.754      172.513      118.261    74394.608    29760.673    13985.690       22.137        5.907      569.512      145.238        0.065      337.043        8.747      854.992
04/26/2014  16:35:00     -482.947     -340.396       11.764      291.072      286.022      125.564    84722.946    81808.350    15766.428       26.573        9.115      590.853      146.860        0.062      336.963        8.614      854.973
04/26/2014  16:36:00     -647.871     -477.457      -49.867      326.680      240.590      148.700   106720.131    57883.722    22111.765       41.842        9.336      804.800      165.511        0.042      336.845        8.417      854.944
04/26/2014  16:37:00     -521.624     -418.366      -19.868      312.864      271.053      146.787    97883.647    73469.898    21546.545       32.017        9.645      668.672      172.763        0.067      336.964        8.615      854.924
04/26/2014  16:38:00     -556.101     -293.670      -18.350      213.568      180.212      101.334    45611.179    32476.329    10268.487       24.207        4.418      628.881      101.534        0.026      336.985        8.650      854.987
04/26/2014  16:39:00     -609.760     -353.058       -8.309      368.516      210.614      106.757   135803.756    44358.298    11397.028       34.400        9.578      704.597      143.696        0.042      336.907        8.520      854.982
04/26/2014  16:40:00     -514.095     -331.013       -8.171      241.604      162.190       88.731    58372.365    26305.578     7873.165       23.322        4.628      611.444      103.385        0.029      336.899        8.507      855.034
04/26/2014  16:41:00     -502.574     -263.359      -17.113      273.111      253.826      102.575    74589.529    64427.536    10521.565       23.586        7.477      567.396      116.459        0.042      336.952        8.593      855.019
04/26/2014  16:42:00     -391.512     -323.350       -3.520      203.794      185.661      107.898    41532.076    34470.119    11642.082       17.273        4.382      507.776      107.804        0.045      337.002        8.678      854.980
04/26/2014  16:43:00     -555.189     -347.458       -3.502      328.636      306.789      132.050   108001.298    94119.364    17437.156       32.422       10.978      654.951      156.513        0.057      336.851        8.428      854.945
04/26/2014  16:44:00     -600.642     -290.846      -27.737      275.614      248.985      106.845    75962.847    61993.615    11415.839       29.772        7.469      667.355      119.939        0.032      336.781        8.310      854.954
04/26/2014  16:45:00     -543.310     -315.948      -28.360      354.184      200.201      111.271   125446.428    40080.498    12381.125       28.682        8.895      628.497      132.229        0.044      336.800        8.342      855.004
04/26/2014  16:46:00     -568.833     -393.973      -16.876      214.961      163.554      103.148    46208.184    26750.004    10639.481       28.132        4.180      691.944      106.351        0.024      336.860        8.440      855.055
04/26/2014  16:47:00     -472.911     -257.565       -8.525      286.952      182.064      113.210    82341.685    33147.229    12816.604       20.916        6.415      538.502      129.334        0.058      336.858        8.437      855.051
04/26/2014  16:48:00     -537.110     -135.067      -20.105      241.090      168.546      100.483    58124.303    28407.679    10096.900       20.186        4.831      553.832      118.285        0.046      336.888        8.489      855.059
04/26/2014  16:49:00     -455.689     -132.892      -13.173      194.471      181.596       93.168    37819.032    32977.023     8680.325       15.247        3.974      474.671      107.373        0.051      336.958        8.604      855.074
04/26/2014  16:50:00     -408.612     -196.043       -2.792      239.297      256.163      116.599    57263.108    65619.315    13595.330       17.091        6.824      453.207      108.456        0.057      336.930        8.558      855.036
04/26/2014  16:51:00     -329.525     -123.175       15.901      231.234      202.130      110.971    53469.168    40856.674    12314.527       11.530        5.332      351.794      111.959        0.101      337.065        8.783      855.072
04/26/2014  16:52:00     -313.820     -122.709       20.207      258.349      197.689      113.026    66743.955    39080.847    12774.946       11.625        5.930      336.958      132.551        0.155      337.026        8.720      855.108
04/26/2014  16:53:00     -469.431     -227.710       -6.726      298.471      291.281      148.680    89084.882    84844.848    22105.834       23.411        9.802      521.745      174.106        0.111      336.827        8.388      855.060
04/26/2014  16:54:00     -500.474     -256.729      -20.540      262.863      184.394      107.509    69097.149    34001.171    11558.242       21.571        5.733      562.480      111.365        0.039      336.839        8.407      855.048
04/26/2014  16:55:00     -367.111     -229.969       -3.377      255.761      216.006      129.495    65413.725    46658.559    16768.829       15.823        6.442      433.193      135.933        0.098      336.872        8.463      855.015
04/26/2014  16:56:00     -533.355     -150.940      -10.743      248.905      190.638      115.089    61953.507    36342.845    13245.572       20.943        5.577      554.302      120.711        0.047      336.881        8.478      854.988
04/26/2014  16:57:00     -456.193     -199.688      -17.522      201.433      204.568       92.407    40575.094    41848.231     8539.117       16.961        4.548      497.983       93.735        0.035      336.905        8.517      855.028
04/26/2014  16:58:00     -409.495     -141.260        2.359      343.573      240.030      128.548   118042.612    57614.359    16524.488       18.988        9.609      433.175      150.358        0.120      336.980        8.641      855.012
04/26/2014  16:59:00     -368.826     -226.065        4.278      240.476      235.930      126.493    57828.611    55663.168    16000.387       15.830        6.475      432.595      129.697        0.090      336.966        8.619      855.044
04/26/2014  17:00:00     -608.540     -258.764      -39.858      251.318      312.418      120.686    63160.561    97604.860    14565.136       30.707        8.767      661.271      125.204        0.036      336.844        8.414      855.056
04/26/2014  17:01:00     -708.940     -368.887      -34.917      308.173      182.408      127.452    94970.902    33272.602    16243.978       39.216        7.224      799.170      148.723        0.035      336.763        8.279      855.070
04/26/2014  17:02:00     -490.692     -419.409      -23.812      252.417      221.046      135.999    63714.503    48861.492    18495.820       27.413        6.554      645.510      142.978        0.049      336.779        8.306      855.065
04/26/2014  17:03:00     -506.622     -148.895      -35.699      217.789      158.953       91.207    47432.266    25266.093     8318.664       18.055        4.051      528.049      105.193        0.040      336.767        8.287      855.091
04/26/2014  17:04:00     -471.232     -264.659      -17.340      292.507      213.620      117.400    85560.447    45633.687    13782.856       21.866        7.249      540.466      136.708        0.064      336.858        8.438      855.075
04/26/2014  17:05:00     -651.470     -235.450      -39.122      255.769      262.635      112.670    65417.910    68977.217    12694.466       31.421        7.354      692.713      112.305        0.026      336.833        8.396      855.087
04/26/2014  17:06:00     -397.839     -172.787      -19.021      262.354      182.507      105.668    68829.529    33308.780    11165.809       15.088        5.665      433.741      121.030        0.078      336.942        8.579      855.131
04/26/2014  17:07:00     -482.221     -167.430      -33.648      237.798      219.659      109.137    56547.916    48250.163    11910.958       18.918        5.835      510.460       98.592        0.037      336.883        8.481      855.117
04/26/2014  17:08:00     -547.751      -75.303      -13.001      229.611      166.136      100.417    52721.378    27601.204    10083.591       19.812        4.520      552.903      118.199        0.046      336.864        8.449      855.083
04/26/2014  17:09:00     -654.221      -92.194      -22.131      275.371      222.196      121.972    75829.228    49370.848    14877.195       28.851        7.004      660.685      140.068        0.045      336.827        8.385      855.049
04/26/2014  17:10:00     -615.076     -169.397      -18.885      225.452      168.857       89.844    50828.557    28512.829     8071.990       24.737        4.371      637.976       97.702        0.023      336.881        8.477      855.133
04/26/2014  17:11:00     -497.295     -149.306      -37.250      177.303      165.561       81.217    31436.426    27410.466     6596.258       16.820        3.272      519.225       76.501        0.022      336.932        8.561      855.167
04/26/2014  17:12:00     -290.480     -161.955       16.196      236.822      181.655       97.450    56084.641    32998.585     9496.410       10.471        4.929      332.578       97.138        0.085      336.939        8.575      855.090
04/26/2014  17:13:00     -312.870     -282.969       12.996      260.628      167.562      108.645    67926.794    28076.917    11803.654       14.295        5.390      421.852      107.216        0.065      336.864        8.449      855.065
04/26/2014  17:14:00     -525.464     -235.754      -13.440      345.109      253.682      129.293   119100.073    64354.486    16716.799       26.598       10.009      575.927      162.799        0.080      336.788        8.322      855.000
04/26/2014  17:15:00     -524.319     -287.725      -25.570      253.550      198.274      126.860    64287.735    39312.734    16093.421       23.900        5.985      598.077      137.270        0.053      336.762        8.279      855.035
04/26/2014  17:16:00     -503.835     -196.619        0.728      293.833      269.606      117.065    86337.554    72687.598    13704.234       23.258        8.636      540.841      141.304        0.068      336.752        8.261      855.023
04/26/2014  17:17:00     -496.537     -264.808      -21.283      270.414      200.920      105.348    73123.723    40368.893    11098.174       22.083        6.230      562.736      124.134        0.049      336.777        8.304      855.062
04/26/2014  17:18:00     -540.915     -396.530      -14.585      339.703      270.066      149.487   115397.911    72935.393    22346.462       33.032       10.534      670.691      178.839        0.071      336.684        8.147      855.038
04/26/2014  17:19:00     -589.111     -327.516       -4.607      369.027      285.902      156.504   136181.275    81739.683    24493.433       34.833       12.121      674.032      194.063        0.083      336.624        8.048      855.078
04/26/2014  17:20:00     -663.026     -463.540       -9.718      333.172      260.805      154.005   111003.329    68019.211    23717.404       42.861       10.137      808.995      163.078        0.041      336.551        7.926      855.083
04/26/2014  17:21:00     -497.131     -293.989        2.630      317.222      213.508      119.484   100629.625    45585.486    14276.500       24.700        8.025      577.554      141.604        0.060      336.615        8.032      855.134
04/26/2014  17:22:00     -302.733     -301.681       38.603      290.046      208.661      147.284    84126.752    43539.463    21692.554       16.672        7.468      427.386      170.635        0.159      336.661        8.110      855.108
04/26/2014  17:23:00     -647.438     -292.349      -22.128      334.203      285.164      146.439   111691.565    81318.455    21444.383       35.975       10.723      710.383      180.824        0.065      336.612        8.027      855.074
04/26/2014  17:24:00     -558.053     -279.611      -22.561      285.448      249.298      121.172    81480.815    62149.315    14682.721       27.418        7.916      624.184      130.899        0.044      336.598        8.005      855.094
04/26/2014  17:25:00     -402.950     -281.447       13.206      351.351      287.312      138.302   123447.784    82548.294    19127.349       23.339       11.256      491.508      172.995        0.124      336.594        7.998      855.099
04/26/2014  17:26:00     -439.382     -236.757      -18.269      252.417      192.972      103.382    63714.538    37238.310    10687.801       18.052        5.582      499.109      122.628        0.060      336.674        8.131      855.141
04/26/2014  17:27:00     -428.275     -222.501      -15.135      198.672      215.649      105.798    39470.407    46504.276    11193.124       16.514        4.858      482.625       92.721        0.037      336.682        8.145      855.161
04/26/2014  17:28:00     -621.696     -388.682      -15.360      286.629      183.283      110.989    82156.455    33592.679    12318.565       33.292        6.403      733.198      115.831        0.025      336.573        7.963      855.151
04/26/2014  17:29:00     -364.704     -208.780       -8.501      315.785      235.632      104.485    99720.009    55522.541    10917.191       17.138        8.308      420.236      125.267        0.089      336.634        8.065      855.115
04/26/2014  17:30:00     -489.469     -172.609      -29.668      245.234      173.545       94.820    60139.650    30117.740     8990.838       18.473        4.962      519.013       90.063        0.030      336.634        8.065      855.153
04/26/2014  17:31:00     -552.438     -233.274       -0.308      334.445      281.240      133.484   111853.349    79096.006    17817.916       28.414       10.438      599.671      166.918        0.077      336.552        7.928      855.059
04/26/2014  17:32:00     -617.903     -238.656      -27.753      324.441      251.715      123.103   105262.182    63360.595    15154.347       31.162        9.189      662.390      137.822        0.043      336.593        7.996      855.056
04/26/2014  17:33:00     -449.559      -91.466        6.129      320.843      223.393      123.365   102939.932    49904.602    15218.800       18.925        8.403      458.769      135.713        0.088      336.620        8.043      855.121
04/26/2014  17:34:00     -628.067     -102.038      -33.038      307.894      207.777      113.009    94798.941    43171.153    12770.943       27.833        7.537      636.301      127.159        0.040      336.546        7.918      855.151
04/26/2014  17:35:00     -445.938     -121.018      -11.181      202.164      171.786      111.604    40870.215    29510.322    12455.461       14.822        4.142      462.067      103.910        0.051      336.618        8.038      855.172
04/26/2014  17:36:00     -219.969      -41.611       26.611      179.742      142.516       85.646    32307.060    20310.706     7335.200        5.538        2.998      223.870       95.954        0.184      336.736        8.236      855.211
04/26/2014  17:37:00     -288.180      -39.415       -4.663      184.795      120.713       69.083    34149.303    14571.538     4772.473        6.905        2.675      290.863       84.855        0.085      336.774        8.299      855.210
04/26/2014  17:38:00     -397.142      -95.492      -12.037      205.089      123.960       81.716    42061.376    15366.083     6677.496       11.553        3.205      408.461       94.524        0.054      336.710        8.193      855.185
04/26/2014  17:39:00     -295.771     -127.035      -13.905      232.018      163.946       93.363    53832.410    26878.164     8716.649        9.660        4.471      321.898       98.200        0.093      336.697        8.171      855.143
04/26/2014  17:40:00     -519.329     -239.850      -21.060      306.402      209.665      123.431    93882.116    43959.393    15235.119       24.035        7.654      572.041      124.951        0.048      336.540        7.906      855.122
04/26/2014  17:41:00     -443.318     -304.618        3.834      313.469      235.527      138.978    98262.874    55473.138    19314.826       23.116        8.653      537.887      162.359        0.091      336.501        7.841      855.118
04/26/2014  17:42:00     -318.835      -62.027      -20.102      143.169       99.583       76.524    20497.324     9916.828     5855.957        7.108        1.814      324.812       75.520        0.054      336.618        8.038      855.186
04/26/2014  17:43:00     -575.170       18.245      -37.265      260.305      208.620       90.438    67758.614    43522.242     8179.008       22.598        5.973      575.459      109.934        0.036      336.564        7.946      855.178
04/26/2014  17:44:00     -539.372     -151.627      -25.358      283.245      211.075      104.863    80227.488    44552.758    10996.343       22.514        6.789      560.279      115.593        0.043      336.522        7.877      855.202
04/26/2014  17:45:00     -579.090     -154.236      -31.397      229.591      231.557      103.102    52711.879    53618.724    10630.083       23.852        5.848      599.278       98.978        0.027      336.511        7.859      855.205
04/26/2014  17:46:00     -422.269     -106.523       13.565      242.014      214.701      115.638    58570.891    46096.569    13372.057       15.392        5.902      435.498      121.683        0.078      336.568        7.954      855.245
04/26/2014  17:47:00     -575.584     -202.599      -20.680      312.065      241.398      105.472    97384.264    58272.850    11124.396       26.974        8.339      610.200      117.372        0.037      336.512        7.861      855.230
04/26/2014  17:48:00     -489.994      -74.082      -29.509      199.122      171.112       88.616    39649.410    29279.298     7852.784       16.160        3.839      495.563       97.630        0.039      336.527        7.884      855.266
04/26/2014  17:49:00     -471.374      -88.768      -45.123      177.674      223.740       91.095    31568.078    50059.372     8298.347       16.100        4.496      479.659       63.341        0.017      336.566        7.951      855.283
04/26/2014  17:50:00     -370.451      -18.281      -22.746      142.605      128.752       76.652    20336.138    16577.204     5875.461        9.043        2.139      370.902       71.249        0.037      336.643        8.080      855.301
04/26/2014  17:51:00     -353.908      -53.052      -15.971      285.072      152.716       73.609    81265.813    23322.203     5418.223       11.914        5.500      357.862       81.448        0.052      336.622        8.046      855.267
04/26/2014  17:52:00     -269.600      -62.706       -3.061      209.527      152.697       88.851    43901.394    23316.262     7894.429        7.585        3.756      276.796       78.253        0.080      336.649        8.089      855.302
04/26/2014  17:53:00     -316.735     -175.036        9.152      331.722      223.935      137.728   110039.652    50147.052    18969.036       15.506        8.958      361.882      170.856        0.223      336.606        8.018      855.317
04/26/2014  17:54:00     -468.801     -315.656      -17.304      232.715      175.019       94.713    54156.280    30631.610     8970.557       20.672        4.688      565.167       99.852        0.031      336.470        7.790      855.245
04/26/2014  17:55:00     -402.520      -89.758      -22.264      260.208      249.790      101.435    67708.458    62395.261    10288.971       15.546        7.020      412.406      102.035        0.061      336.578        7.970      855.259
04/26/2014  17:56:00     -384.730     -195.578        1.582      297.783      142.427       99.192    88674.796    20285.376     9838.981       15.251        5.940      431.588      123.878        0.082      336.597        8.003      855.276
04/26/2014  17:57:00     -261.318     -130.221        3.913      150.553      152.433       80.480    22666.119    23235.804     6476.979        6.881        2.619      291.967       80.572        0.076      336.651        8.095      855.334
04/26/2014  17:58:00     -512.100     -114.804      -22.078      362.800      178.425      102.341   131624.062    31835.658    10473.778       22.489        8.697      524.810      117.123        0.050      336.526        7.884      855.281
04/26/2014  17:59:00     -496.003     -106.256      -46.349      239.993      188.302       86.309    57596.838    35457.562     7449.318       17.996        5.025      507.257       92.720        0.033      336.539        7.906      855.281
04/26/2014  18:00:00     -299.120     -165.532        6.416      269.796      178.941      106.487    72790.004    32019.904    11339.553       11.651        5.807      341.867      122.775        0.129      336.540        7.907      855.306
04/26/2014  18:01:00     -284.645     -177.468       -8.235      224.133      148.921       82.841    50235.495    22177.533     6862.680        9.591        3.964      335.436       79.808        0.057      336.534        7.898      855.314
04/26/2014  18:02:00     -421.220     -155.358      -12.015      272.025      173.806      107.899    73997.750    30208.398    11642.181       15.875        5.792      448.957      122.298        0.074      336.512        7.862      855.286
04/26/2014  18:03:00     -449.733     -166.142      -31.798      151.703      206.696       91.062    23013.655    42723.066     8292.213       15.244        3.701      479.440       87.978        0.034      336.495        7.833      855.313
04/26/2014  18:04:00     -371.146     -267.536      -15.791      206.594      180.601       89.099    42681.161    32616.664     7938.716       14.639        4.162      457.521       95.353        0.043      336.528        7.887      855.333
04/26/2014  18:05:00     -356.326     -280.309      -16.525      185.026      221.420      103.491    34234.553    49026.739    10710.349       14.987        4.699      453.366       91.455        0.041      336.487        7.819      855.314
04/26/2014  18:06:00     -370.958     -208.255       18.469      257.045      215.551      118.109    66072.073    46462.261    13949.844       15.388        6.324      425.417      138.974        0.107      336.492        7.827      855.319
04/26/2014  18:07:00     -386.009     -289.639      -12.943      232.677      196.705       93.027    54138.783    38692.686     8653.978       16.725        5.074      482.590       83.340        0.030      336.437        7.735      855.265
04/26/2014  18:08:00     -261.912     -265.212        8.041      227.232      134.176      109.691    51634.184    18003.165    12032.212       11.032        4.083      372.740      118.733        0.101      336.483        7.812      855.293
04/26/2014  18:09:00     -427.513      -86.871       -3.551      251.503      172.664      102.880    63253.992    29812.714    10584.195       14.697        5.183      436.250      124.048        0.081      336.454        7.763      855.280
04/26/2014  18:10:00     -359.770     -170.473       -8.392      247.089      223.650      123.193    61052.827    50019.350    15176.584       14.238        6.312      398.115      139.758        0.123      336.455        7.763      855.255
04/26/2014  18:11:00     -382.160     -125.961        4.644      226.692      170.916       98.013    51389.382    29212.267     9606.524       12.605        4.510      402.383      109.129        0.074      336.455        7.765      855.270
04/26/2014  18:12:00     -282.770     -106.791      -12.962      187.036      140.131       77.984    34982.408    19636.622     6081.578        7.610        3.035      302.264       80.082        0.070      336.487        7.819      855.333
04/26/2014  18:13:00     -155.319      -36.848        2.977      139.971      113.541       77.461    19591.998    12891.505     6000.256        3.198        1.924      159.630       53.817        0.114      336.564        7.950      855.279
04/26/2014  18:14:00     -272.254     -174.335      -10.167      177.925      173.586       83.437    31657.335    30131.949     6961.693        8.667        3.438      323.287       91.206        0.080      336.587        7.987      855.256
04/26/2014  18:15:00     -328.646      -69.267       -0.671      232.491      177.079       98.834    54051.919    31357.010     9768.135       10.397        4.759      335.866      116.606        0.121      336.577        7.969      855.289
04/26/2014  18:16:00     -354.652     -141.682        3.879      229.033      155.468       99.501    52456.225    24170.385     9900.363       11.618        4.326      381.906      118.482        0.096      336.548        7.920      855.266
04/26/2014  18:17:00     -659.036     -353.316      -39.029      287.302      210.618      108.944    82542.314    44360.133    11868.736       34.970        6.939      747.770      129.750        0.030      336.393        7.662      855.274
04/26/2014  18:18:00     -540.142     -248.277      -29.980      247.042      152.768       91.324    61029.735    23338.076     8340.132       22.348        4.635      594.470      109.322        0.034      336.403        7.677      855.281
04/26/2014  18:19:00     -479.718     -223.158      -19.440      257.984      258.225      110.230    66555.581    66680.276    12150.649       21.282        7.269      529.083      102.886        0.038      336.370        7.622      855.230
04/26/2014  18:20:00     -622.579     -353.374      -33.023      271.372      210.416      121.135    73642.506    44274.806    14673.778       32.305        6.630      715.875      125.007        0.030      336.367        7.617      855.238
04/26/2014  18:21:00     -428.497     -293.691       -3.300      231.395      189.825      112.263    53543.794    36033.547    12602.892       18.601        5.109      519.484      122.243        0.055      336.426        7.715      855.273
04/26/2014  18:22:00     -333.174      -79.913       20.389      254.531      226.200      108.363    64785.983    51166.643    11742.637       12.273        6.385      342.623      115.175        0.113      336.428        7.718      855.288
04/26/2014  18:23:00     -292.870     -155.571        6.378      261.540      203.487      135.278    68403.241    41406.953    18300.003       11.904        6.406      331.625      151.424        0.208      336.416        7.700      855.304
04/26/2014  18:24:00     -251.158     -152.947       25.045      226.320      194.914      102.717    51220.959    37991.289    10550.870        9.341        4.988      294.063      120.262        0.167      336.458        7.769      855.283
04/26/2014  18:25:00     -420.280     -303.305        3.414      244.369      216.702      121.373    59716.129    46959.960    14731.305       19.500        6.070      518.295      137.395        0.070      336.390        7.655      855.308
04/26/2014  18:26:00     -486.181     -301.979      -32.336      239.851      208.573      108.624    57528.271    43502.715    11799.084       22.070        5.642      572.332      117.144        0.042      336.369        7.619      855.282
04/26/2014  18:27:00     -402.658     -281.022      -23.257      201.074      158.598       98.269    40430.607    25153.272     9656.792       15.843        3.762      491.026       82.207        0.028      336.390        7.656      855.281
04/26/2014  18:28:00     -616.107     -216.341      -16.581      291.506      223.943      106.748    84975.486    50150.502    11395.190       28.656        7.326      652.987      139.194        0.045      336.326        7.549      855.271
04/26/2014  18:29:00     -480.157     -166.083      -11.885      270.683      220.651      110.388    73269.300    48686.934    12185.501       19.618        6.707      508.070      137.463        0.073      336.370        7.621      855.203
04/26/2014  18:30:00     -539.833      -58.135      -27.077      259.428      194.856      109.674    67302.954    37968.912    12028.481       20.639        5.865      542.954      115.768        0.045      336.355        7.598      855.214
04/26/2014  18:31:00     -462.601     -179.849      -24.390      292.913      267.552      110.991    85797.938    71584.063    12319.074       20.829        8.485      496.332      120.887        0.059      336.407        7.683      855.247
04/26/2014  18:32:00     -171.179      -70.389        4.126      139.792      109.901       64.262    19541.813    12078.230     4129.572        3.500        1.787      185.086       58.331        0.099      336.532        7.896      855.239
04/26/2014  18:33:00     -632.320     -221.930      -19.573      314.267      330.412      127.050    98763.839   109171.977    16141.609       33.673       11.204      670.136      144.243        0.046      336.339        7.571      855.239
04/26/2014  18:34:00     -608.826     -308.207      -24.923      293.522      311.211      130.099    86155.086    96852.510    16925.797       33.307        9.997      682.393      153.120        0.050      336.302        7.508      855.175
04/26/2014  18:35:00     -530.016     -248.459      -26.039      292.692      245.439      102.747    85668.332    60240.417    10556.985       24.987        7.823      585.362      122.395        0.044      336.327        7.550      855.228
04/26/2014  18:36:00     -502.823     -242.777       -6.970      225.175      202.875      101.879    50703.727    41158.158    10379.410       20.701        5.112      558.365      110.545        0.039      336.322        7.541      855.282
04/26/2014  18:37:00     -526.689     -311.837      -26.325      175.526      214.335      102.803    30809.503    45939.390    10568.448       23.131        4.366      612.082       98.265        0.026      336.355        7.596      855.270
04/26/2014  18:38:00     -722.579     -297.290      -53.244      350.986      198.971      121.069   123191.009    39589.437    14657.806       39.535        8.872      781.346      143.279        0.034      336.308        7.519      855.245
04/26/2014  18:39:00     -452.129     -269.607      -31.275      256.708      274.933      128.027    65898.809    75587.928    16391.010       21.795        7.894      526.411      105.191        0.040      336.283        7.477      855.245
04/26/2014  18:40:00     -577.522     -316.869        7.324      320.882      229.516      122.778   102965.281    52677.625    15074.487       30.232        8.536      658.740      159.844        0.059      336.293        7.492      855.225
04/26/2014  18:41:00     -429.481     -177.174      -10.408      255.670      173.224      111.931    65367.011    30006.483    12528.477       16.191        5.395      464.591      113.061        0.059      336.327        7.551      855.281
04/26/2014  18:42:00     -578.673     -248.488      -21.975      402.719      270.422      132.974   162182.456    73127.797    17681.972       32.499       12.650      629.769      162.536        0.067      336.274        7.462      855.252
04/26/2014  18:43:00     -519.259     -367.292      -10.112      294.724      228.648      124.436    86862.093    52279.831    15484.362       27.960        7.731      636.029      132.175        0.043      336.231        7.389      855.240
04/26/2014  18:44:00     -493.853     -362.130      -18.739      283.181      241.204      128.119    80191.402    58179.366    16414.540       26.505        7.739      612.396      149.672        0.060      336.231        7.390      855.323
04/26/2014  18:45:00     -581.715     -296.994       -7.738      298.618      213.226      108.692    89172.859    45465.436    11813.860       28.653        7.323      653.144      124.209        0.036      336.246        7.415      855.286
04/26/2014  18:46:00     -579.183     -116.858      -19.458      275.231      228.307      111.447    75752.077    52124.301    12420.502       24.486        7.015      590.854      122.528        0.043      336.239        7.403      855.337
04/26/2014  18:47:00     -466.747     -120.459      -25.302      210.240      203.503       94.096    44200.925    41413.502     8854.151       16.372        4.723      482.041      102.063        0.045      336.242        7.407      855.374
04/26/2014  18:48:00     -384.538     -147.086       -7.469      257.523      206.612      111.122    66318.269    42688.613    12348.183       14.543        6.068      411.708      126.528        0.094      336.252        7.426      855.377
04/26/2014  18:49:00     -370.040      -77.711        5.220      211.808      164.801       81.466    44862.497    27159.431     6636.736       11.081        3.933      378.112       98.174        0.067      336.285        7.481      855.363
04/26/2014  18:50:00     -306.735      -75.351       13.183      225.575      116.926       86.594    50883.914    13671.754     7498.527        8.598        3.603      315.854       90.919        0.083      336.256        7.433      855.393
04/26/2014  18:51:00     -213.321      -53.972       -1.992      189.088      112.309       64.655    35754.452    12613.255     4180.258        5.047        2.627      220.042       77.813        0.125      336.328        7.554      855.414
04/26/2014  18:52:00     -439.130     -124.110      -14.666      209.856      161.345       89.159    44039.630    26032.163     7949.416       14.322        3.901      456.331       96.656        0.045      336.213        7.361      855.431
04/26/2014  18:53:00     -424.667      -67.134      -22.979      160.284      133.012       78.494    25690.933    17692.226     6161.384       11.745        2.477      429.940       88.314        0.042      336.221        7.374      855.462
04/26/2014  18:54:00     -289.297     -126.691      -11.004      130.234      126.803       59.014    16960.919    16078.886     3482.682        6.819        1.826      315.822       54.871        0.030      336.265        7.446      855.507
04/26/2014  18:55:00     -271.855     -151.109       -5.646      151.593      130.473       70.927    22980.434    17023.220     5030.703        7.089        2.252      311.029       61.776        0.039      336.249        7.420      855.476
04/26/2014  18:56:00     -393.158     -240.753      -12.491      226.266      119.073       91.571    51196.343    14178.460     8385.334       14.321        3.688      461.016       96.756        0.044      336.201        7.340      855.487
04/26/2014  18:57:00     -286.131     -144.718       -8.524      152.493      139.160       80.578    23253.982    19365.429     6492.754        7.599        2.456      320.647       75.755        0.056      336.245        7.414      855.487
04/26/2014  18:58:00     -560.158     -301.820      -48.150      285.697      261.637      130.020    81622.529    68453.870    16905.188       28.705        8.349      636.296      140.754        0.049      336.186        7.314      855.432
04/26/2014  18:59:00     -289.743     -201.542       -3.384      273.623      211.232      102.094    74869.770    44619.017    10423.210       12.722        6.496      352.945      108.244        0.094      336.226        7.382      855.474
04/26/2014  19:00:00     -516.736     -133.417      -37.384      185.718      247.876      110.948    34491.046    61442.305    12309.398       19.721        5.412      533.682      105.433        0.039      336.152        7.258      855.471
04/26/2014  19:01:00     -524.682      -22.936      -25.331      205.356      177.604       96.794    42171.078    31543.053     9369.150       17.975        4.154      525.183       89.370        0.029      336.141        7.241      855.477
04/26/2014  19:02:00     -372.566     -256.868       -8.479      268.716      238.782      126.566    72208.041    57016.655    16018.955       17.502        7.262      452.534      144.999        0.103      336.151        7.256      855.499
04/26/2014  19:03:00     -380.681     -128.051      -21.487      360.617      183.949      145.823   130044.736    33837.231    21264.240       17.342        9.257      401.641      173.936        0.188      336.176        7.298      855.486
04/26/2014  19:04:00     -505.943     -224.521      -17.606      256.181      247.636      130.793    65628.623    61323.382    17106.699       22.535        7.203      553.524      135.582        0.060      336.149        7.253      855.515
04/26/2014  19:05:00     -625.968     -165.074      -26.772      355.427      251.541      114.725   126328.102    63272.983    13161.847       31.124       10.138      647.368      141.316        0.048      336.118        7.202      855.564
04/26/2014  19:06:00     -494.596     -121.429      -20.565      275.225      213.879      104.306    75748.978    45744.032    10879.754       19.606        6.619      509.284      125.056        0.060      336.108        7.187      855.600
04/26/2014  19:07:00     -493.275      -98.092      -20.701      276.122      182.902      112.006    76243.349    33453.094    12545.375       18.778        6.112      502.934      127.608        0.064      336.132        7.225      855.610
04/26/2014  19:08:00     -370.399     -222.216      -16.396      302.539      214.342      123.570    91529.823    45942.289    15269.561       16.976        7.637      431.943      131.373        0.093      336.175        7.297      855.598
04/26/2014  19:09:00     -520.896     -324.841      -22.636      319.748      252.323      139.343   102238.793    63667.111    19416.604       28.131        9.266      613.885      170.062        0.077      336.115        7.196      855.549
04/26/2014  19:10:00     -455.295     -273.869       -8.954      323.443      197.792      129.251   104615.468    39121.848    16705.737       22.138        8.022      531.317      158.071        0.089      336.138        7.235      855.622
04/26/2014  19:11:00     -579.521     -211.125      -21.190      343.029      230.103      120.925   117668.796    52947.320    14622.814       28.302        9.262      616.781      122.705        0.040      336.090        7.155      855.615
04/26/2014  19:12:00     -356.166     -242.473       -4.344      262.177      217.194      110.888    68736.774    47173.122    12296.139       15.691        6.410      430.868      133.216        0.096      336.154        7.262      855.701
04/26/2014  19:13:00     -353.577      -97.456      -13.242      197.825      207.825       80.767    39134.814    43191.412     6523.250       11.175        4.442      366.762       96.630        0.069      336.126        7.216      855.711
04/26/2014  19:14:00     -422.161      -66.713      -31.649      209.160      152.038       89.019    43747.862    23115.589     7924.344       12.922        3.739      427.400       98.023        0.053      336.164        7.280      855.751
04/26/2014  19:15:00     -572.279      -86.021      -20.785      276.509      253.286      106.719    76456.997    64153.694    11389.034       24.364        7.600      578.708      115.392        0.040      336.121        7.206      855.724
04/26/2014  19:16:00     -353.753     -310.895        8.535      264.604      249.118      138.415    70015.525    62059.899    19158.786       18.652        7.562      470.953      161.700        0.118      336.142        7.243      855.738
04/26/2014  19:17:00     -383.629      -97.900      -10.368      324.414      178.563      101.725   105244.251    31884.700    10347.974       15.214        7.374      395.924      145.933        0.136      336.167        7.284      855.767
04/26/2014  19:18:00     -570.294     -100.980      -20.158      350.345      232.701      142.217   122741.411    54149.915    20225.804       26.644        9.856      579.165      141.677        0.060      336.093        7.160      855.728
04/26/2014  19:19:00     -599.926     -169.820      -42.580      214.151      211.109      104.601    45860.721    44567.052    10941.415       24.595        5.068      623.498      102.051        0.027      336.087        7.149      855.758
04/26/2014  19:20:00     -639.480     -222.735      -29.665      271.052      244.605      120.739    73469.181    59831.661    14577.966       30.362        7.394      677.160      138.961        0.042      336.030        7.055      855.726
04/26/2014  19:21:00     -492.736     -235.152      -15.833      233.088      224.084      112.101    54330.075    50213.640    12566.570       20.770        5.856      545.972      128.513        0.055      336.073        7.127      855.745
04/26/2014  19:22:00     -265.882     -205.432       15.971      226.762      168.392      109.507    51420.925    28355.802    11991.702       10.244        4.588      335.999      112.233        0.112      336.108        7.186      855.751
04/26/2014  19:23:00     -421.020     -276.736       -1.898      281.243      212.575      111.855    79097.565    45188.039    12511.521       19.529        6.840      503.826      122.630        0.059      336.052        7.092      855.708
04/26/2014  19:24:00     -414.427      -30.301       20.973      323.544      198.834      137.039   104680.782    39535.113    18779.743       16.802        8.150      415.533      150.600        0.131      336.114        7.196      855.680
04/26/2014  19:25:00     -441.502      -32.110       -4.483      310.584      178.926      105.512    96462.597    32014.626    11132.847       16.776        6.981      442.668      139.751        0.100      336.106        7.182      855.692
04/26/2014  19:26:00     -388.594     -101.194        2.702      264.432      157.103      108.515    69924.029    24681.335    11775.474       13.380        5.319      401.554      133.525        0.111      336.052        7.092      855.632
04/26/2014  19:27:00     -382.742       18.026      -16.139      207.597      176.794      106.554    43096.443    31256.234    11353.678       11.637        4.285      383.166      111.526        0.085      336.036        7.066      855.591
04/26/2014  19:28:00     -557.042       32.191      -26.653      288.511      192.866       98.029    83238.730    37197.164     9609.700       22.102        6.502      557.971      102.274        0.034      335.996        7.000      855.575
04/26/2014  19:29:00     -566.234      -59.571      -22.009      302.862      181.247      114.879    91725.231    32850.384    13197.177       23.119        6.889      569.359      139.681        0.060      335.978        6.969      855.522
04/26/2014  19:30:00     -550.301      -45.105      -25.152      226.605      193.725       97.143    51349.601    37529.230     9436.763       20.189        4.916      552.147       99.511        0.032      335.970        6.953      855.490
04/26/2014  19:31:00     -775.345     -216.068      -45.322      270.474      221.010      112.932    73156.262    48845.216    12753.650       39.230        6.738      804.889      121.119        0.023      335.936        6.898      855.433
04/26/2014  19:32:00     -637.632     -174.397      -17.580      361.014      260.533      120.554   130331.143    67877.654    14533.343       32.498       10.637      661.051      162.983        0.061      335.943        6.910      855.457
04/26/2014  19:33:00     -553.339       39.909      -42.756      290.719      155.803       87.311    84517.378    24274.600     7623.152       21.299        5.821      554.776      120.759        0.047      335.960        6.938      855.494
04/26/2014  19:34:00     -548.049      -93.162      -23.820      278.415      148.459       92.813    77515.081    22040.216     8614.232       20.887        5.408      555.911       96.148        0.030      335.985        6.979      855.464
04/26/2014  19:35:00     -627.274      -90.079      -52.816      224.944      237.597      117.921    50599.788    56452.313    13905.291       26.264        6.048      633.709      117.535        0.034      335.888        6.820      855.405
04/26/2014  19:36:00     -718.481      -68.074      -56.343      220.802      184.503       97.409    48753.465    34041.403     9488.532       30.814        4.614      721.699       96.453        0.018      335.914        6.861      855.408
04/26/2014  19:37:00     -499.514     -124.406      -16.984      220.113      155.170       86.167    48449.928    24077.648     7424.755       17.260        3.998      514.773       84.763        0.027      335.934        6.895      855.411
04/26/2014  19:38:00     -660.846      -66.402      -24.120      281.076      207.451      102.384    79003.806    43036.004    10482.490       28.709        6.626      664.173      111.278        0.028      335.907        6.850      855.411
04/26/2014  19:39:00     -537.912     -101.315      -15.543      248.130      180.934       96.731    61568.281    32737.165     9356.809       20.174        5.183      547.370      110.324        0.041      335.927        6.884      855.377
04/26/2014  19:40:00     -664.805      -67.686      -31.630      298.085      256.252      134.106    88854.563    65665.250    17984.485       30.999        8.625      668.241      140.094        0.044      335.908        6.853      855.379
04/26/2014  19:41:00     -442.456      -30.145       -2.551      249.608      255.708      113.037    62304.364    65386.667    12777.326       16.855        7.023      443.482      126.794        0.082      335.933        6.893      855.397
04/26/2014  19:42:00     -554.166      -85.065      -42.140      249.667      265.065      121.318    62333.708    70259.590    14717.941       23.168        7.366      560.657      122.028        0.047      335.907        6.850      855.444
04/26/2014  19:43:00     -753.132     -124.979      -49.890      339.037      283.812      121.781   114946.239    80549.409    14830.659       39.778       10.516      763.431      149.920        0.039      335.862        6.776      855.464
04/26/2014  19:44:00     -720.165        7.753      -58.542      243.743      213.571       94.162    59410.667    45612.470     8866.493       31.798        5.694      720.206       91.450        0.016      335.880        6.805      855.423
04/26/2014  19:45:00     -782.208     -129.832      -37.309      348.859      247.997      127.586   121702.285    61502.583    16278.187       41.475        9.974      792.909      141.465        0.032      335.854        6.762      855.465
04/26/2014  19:46:00     -629.707      -14.306      -35.370      247.407      187.475      122.394    61210.389    35146.863    14980.344       25.464        5.567      629.869      136.171        0.047      335.890        6.821      855.561
04/26/2014  19:47:00     -415.342      -65.123       -7.568      269.522      163.692      105.364    72642.305    26795.035    11101.527       14.365        5.527      420.417      131.160        0.097      335.941        6.907      855.606
04/26/2014  19:48:00     -549.239      -76.920      -21.807      237.248      152.933       99.374    56286.414    23388.549     9875.262       19.878        4.478      554.599      108.654        0.038      335.853        6.760      855.627
04/26/2014  19:49:00     -620.547     -161.891      -19.732      231.586      247.912       98.081    53632.214    61460.472     9619.973       26.817        6.236      641.317      106.148        0.027      335.819        6.703      855.599
04/26/2014  19:50:00     -730.859     -221.107      -45.626      253.548      217.322      111.758    64286.560    47228.822    12489.923       35.454        6.200      763.572      100.117        0.017      335.805        6.680      855.627
04/26/2014  19:51:00     -322.676      -63.496      -12.453      189.881      163.168       79.620    36054.702    26623.902     6339.419        8.865        3.451      328.864       91.814        0.078      335.851        6.756      855.626
04/26/2014  19:52:00     -547.806      -83.566      -34.952      215.138      176.539       88.242    46284.475    31166.185     7786.573       19.675        4.262      554.143       78.425        0.020      335.796        6.664      855.638
04/26/2014  19:53:00     -373.052        2.641      -15.150      167.759      119.808       85.843    28143.104    14354.020     7369.029        9.463        2.493      373.062       87.911        0.056      335.833        6.726      855.686
04/26/2014  19:54:00     -428.994       39.482      -27.763      227.156      230.320       98.878    51599.966    53047.222     9776.846       15.037        5.721      430.807      105.097        0.060      335.815        6.697      855.728
04/26/2014  19:55:00     -286.520       59.102        0.789      206.827      117.799       86.351    42777.346    13876.708     7456.540        7.484        3.206      292.552      111.430        0.145      335.884        6.812      855.777
04/26/2014  19:56:00     -460.923      -52.608      -16.476      221.202      180.727       91.575    48930.289    32662.275     8385.910       15.272        4.499      463.915      102.269        0.049      335.848        6.752      855.842
04/26/2014  19:57:00     -576.972      -26.844      -16.575      253.481      214.923      100.930    64252.751    46192.109    10186.853       22.724        6.032      577.597       92.519        0.026      335.802        6.675      855.817
04/26/2014  19:58:00     -679.119        1.940      -45.961      235.668      215.588       93.544    55539.381    46478.066     8750.509       28.702        5.538      679.122      107.459        0.025      335.780        6.637      855.839
04/26/2014  19:59:00     -517.696       -2.132      -25.135      186.843      183.505       75.512    34910.150    33674.224     5701.993       17.145        3.714      517.701       78.907        0.023      335.816        6.699      855.832
04/26/2014  20:00:00     -615.924     -235.653      -27.502      271.958      210.437      106.046    73961.339    44283.748    11245.687       28.255        6.475      659.466      131.172        0.040      335.795        6.663      855.819
04/26/2014  20:01:00     -590.693      -51.647      -44.573      342.933      274.895      117.919   117603.133    75567.030    13904.928       28.028       10.354      592.947      129.594        0.048      335.804        6.677      855.769
04/26/2014  20:02:00     -513.200      -16.228      -15.932      269.925      177.038      101.779    72859.435    31342.318    10358.883       18.920        5.728      513.457      115.350        0.050      335.812        6.693      855.817
04/26/2014  20:03:00     -571.692      -87.828      -20.753      254.968      230.461       99.374    65008.777    53112.415     9875.112       23.146        6.400      578.399      121.412        0.044      335.775        6.631      855.784
04/26/2014  20:04:00     -412.749     -184.603        4.811      295.437      219.660      107.268    87283.019    48250.305    11506.449       17.572        7.352      452.150      122.579        0.073      335.818        6.702      855.762
04/26/2014  20:05:00     -455.931     -114.886        0.874      325.008      194.379      105.202   105629.905    37783.184    11067.559       18.775        7.724      470.183      124.135        0.070      335.802        6.675      855.775
04/26/2014  20:06:00     -527.142      -55.384      -14.127      270.072      229.461      109.195    72939.101    52652.417    11923.552       20.930        6.876      530.043      127.293        0.058      335.765        6.613      855.763
04/26/2014  20:07:00     -426.754      -73.044      -18.913      306.906      237.096      115.866    94191.433    56214.692    13424.863       17.579        8.192      432.960      153.823        0.126      335.798        6.669      855.710
04/26/2014  20:08:00     -631.510      -84.278      -33.888      268.164      196.928      112.986    71912.038    38780.483    12765.807       26.523        6.173      637.109      127.996        0.040      335.744        6.578      855.666
04/26/2014  20:09:00     -627.259      -67.377      -29.117      277.805      169.946      108.582    77175.656    28881.648    11790.128       25.832        5.892      630.867      135.347        0.046      335.749        6.586      855.618
04/26/2014  20:10:00     -558.684      -35.086       -3.024      353.083      208.088      107.612   124667.437    43300.734    11580.245       24.642        8.977      559.785      129.446        0.053      335.769        6.622      855.629
04/26/2014  20:11:00     -246.466       17.782        1.090      303.792      144.810      113.862    92289.741    20970.070    12964.544        9.362        6.311      247.107      132.215        0.286      335.832        6.726      855.707
04/26/2014  20:12:00     -548.247      -28.878      -34.830      244.305      207.509      104.920    59685.123    43059.989    11008.103       20.817        5.688      549.007      101.670        0.034      335.746        6.581      855.740
04/26/2014  20:13:00     -642.299      -93.611      -41.850      218.400      216.561      107.035    47698.492    46898.594    11456.431       26.454        5.303      649.085      106.929        0.027      335.748        6.585      855.833
04/26/2014  20:14:00     -455.074      -55.500      -12.415      289.222      248.613      109.935    83649.247    61808.314    12085.708       18.390        7.877      458.446      128.173        0.078      335.785        6.646      855.947
04/26/2014  20:15:00     -464.396     -121.914       -6.465      328.922      297.258      122.798   108189.653    88362.365    15079.399       22.106       10.582      480.132      128.115        0.071      335.799        6.670      855.996
04/26/2014  20:16:00     -402.954      -91.477       17.155      301.988      219.076      139.165    91196.625    47994.265    19367.016       16.476        7.928      413.207      159.076        0.148      335.799        6.670      856.002
04/26/2014  20:17:00     -647.151       -2.794      -29.964      322.065      247.311      115.334   103725.631    61162.488    13301.929       29.891        8.910      647.157      143.662        0.049      335.751        6.591      856.056
04/26/2014  20:18:00     -599.449     -229.323      -26.854      265.047      238.491      112.679    70250.124    56877.828    12696.606       27.621        6.991      641.816      105.068        0.027      335.752        6.592      856.049
04/26/2014  20:19:00     -533.037     -217.066      -19.152      277.660      181.006      110.488    77094.946    32763.132    12207.540       22.681        6.103      575.540      130.985        0.052      335.745        6.581      856.047
04/26/2014  20:20:00     -607.618     -115.547      -36.526      341.100      240.917      117.307   116349.338    58041.109    13760.973       28.598        9.408      618.507      118.136        0.036      335.729        6.553      856.033
04/26/2014  20:21:00     -953.407       69.720      -84.567      290.596      208.806      112.671    84446.057    43600.138    12694.863       53.084        7.037      955.953      132.879        0.019      335.692        6.491      855.982
04/26/2014  20:22:00     -400.494     -153.103       -3.713      229.381      218.785      117.235    52615.867    47867.024    13743.979       14.902        5.711      428.761      128.454        0.090      335.770        6.621      856.035
04/26/2014  20:23:00     -342.241     -146.403       -8.708      175.801      141.272       77.722    30906.049    19957.691     6040.648        9.776        2.845      372.240       76.799        0.043      335.782        6.643      856.120
04/26/2014  20:24:00     -486.916      -77.776       -5.850      270.609      205.858      113.544    73229.132    42377.438    12892.257       18.581        6.425      493.089      123.600        0.063      335.770        6.623      856.125
04/26/2014  20:25:00     -422.473     -173.588       -7.414      235.778      214.144      111.816    55591.133    45857.816    12502.784       16.129        5.698      456.746      119.339        0.068      335.767        6.616      856.158
04/26/2014  20:26:00     -459.057     -110.992        0.393      310.930      237.517      115.309    96677.685    56414.416    13296.228       19.469        8.319      472.284      133.722        0.080      335.768        6.619      856.145
04/26/2014  20:27:00     -614.872      -78.004       -9.388      247.078      198.031      118.046    61047.692    39216.083    13934.750       24.920        5.710      619.800      133.960        0.047      335.736        6.566      856.136
04/26/2014  20:28:00     -345.548     -194.821      -25.615      192.010      109.300       83.164    36867.950    11946.530     6916.281       10.686        2.787      396.684       91.577        0.053      335.775        6.628      856.191
04/26/2014  20:29:00     -471.837     -214.271      -12.785      261.731      218.518      109.635    68503.331    47750.327    12019.781       19.846        6.414      518.210      132.539        0.065      335.738        6.568      856.159
04/26/2014  20:30:00     -269.276     -105.062       10.234      249.655      175.743      112.761    62327.731    30885.694    12714.947        9.477        5.296      289.046      140.737        0.237      335.742        6.575      856.190
04/26/2014  20:31:00     -404.983     -268.055       -6.025      348.230      280.215      133.139   121264.250    78520.443    17726.106       22.666       10.876      485.659      152.644        0.099      335.716        6.532      856.199
04/26/2014  20:32:00     -401.354        0.617        1.727      238.017      169.006       97.917    56652.021    28563.168     9587.655       12.793        4.740      401.355      111.873        0.078      335.692        6.492      856.268
04/26/2014  20:33:00     -341.093     -113.209      -12.109      270.361      153.921       85.506    73094.920    23691.573     7311.286       11.668        5.205      359.390       97.389        0.073      335.691        6.489      856.277
04/26/2014  20:34:00     -498.382     -164.256      -19.272      264.774      249.355      115.192    70105.088    62177.686    13269.082       21.062        7.278      524.752      130.890        0.062      335.663        6.443      856.249
04/26/2014  20:35:00     -702.004     -172.615      -43.733      236.099      192.116      113.557    55742.953    36908.455    12895.234       31.501        5.277      722.915      113.789        0.025      335.605        6.347      856.244
04/26/2014  20:36:00     -482.637     -147.609      -14.722      264.027      187.220       99.178    69710.254    35051.435     9836.307       18.475        5.730      504.705      116.172        0.053      335.635        6.397      856.271
04/26/2014  20:37:00     -553.163     -118.914      -21.946      316.650      298.221      130.655   100267.081    88935.532    17070.761       26.340       10.314      565.800      138.151        0.060      335.621        6.373      856.254
04/26/2014  20:38:00     -336.266      -50.089        3.539      246.613      204.905      109.867    60817.904    41986.137    12070.847       11.521        5.744      339.976      125.036        0.135      335.673        6.459      856.264
04/26/2014  20:39:00     -423.424     -162.216      -12.639      263.408      149.705       91.952    69383.533    22411.453     8455.184       15.299        5.013      453.434      112.504        0.062      335.657        6.435      856.355
04/26/2014  20:40:00     -452.493     -220.229      -33.661      229.373      162.724       82.303    52612.048    26479.153     6773.816       17.011        4.293      503.240       82.237        0.027      335.646        6.414      856.387
04/26/2014  20:41:00     -395.642     -124.236       11.115      270.074      187.830      104.606    72940.097    35280.237    10942.345       14.560        5.958      414.689      118.175        0.081      335.677        6.469      856.389
04/26/2014  20:42:00     -419.193     -132.898      -12.660      309.845      186.014      102.755    96003.850    34601.076    10558.553       16.733        7.058      439.755      135.837        0.095      335.682        6.477      856.389
04/26/2014  20:43:00     -287.598     -122.007      -14.277      288.115      165.190      103.962    83010.208    27287.776    10808.062       10.943        6.055      312.407      119.204        0.146      335.706        6.515      856.432
04/26/2014  20:44:00     -558.008      -77.813       -4.147      281.049      260.315      119.110    78988.722    67763.902    14187.256       23.916        8.047      563.408      115.465        0.042      335.624        6.378      856.491
04/26/2014  20:45:00     -618.254      -43.209      -40.097      313.286      233.587      126.363    98148.291    54562.723    15967.545       27.716        8.434      619.763      151.066        0.059      335.642        6.408      856.558
04/26/2014  20:46:00     -593.026     -125.267      -31.313      347.437      205.998      128.352   120712.612    42435.002    16474.164       27.395        8.981      606.112      150.335        0.062      335.665        6.446      856.599
04/26/2014  20:47:00     -457.676     -177.396      -20.272      274.445      220.471       98.465    75320.213    48607.517     9695.266       18.746        6.681      490.853      115.423        0.055      335.678        6.467      856.595
04/26/2014  20:48:00     -695.730     -145.763      -29.988      294.600      242.961      114.273    86789.040    59030.136    13058.400       33.250        7.944      710.835      117.076        0.027      335.637        6.399      856.578
04/26/2014  20:49:00     -508.650     -162.521      -17.173      292.306      240.618      123.534    85442.597    57896.976    15260.561       22.198        7.930      533.983      147.612        0.076      335.661        6.442      856.616
04/26/2014  20:50:00     -399.055     -124.800        3.005      225.837      177.016      120.635    51002.557    31334.517    14552.775       13.584        4.844      418.115      110.486        0.070      335.648        6.418      856.638
04/26/2014  20:51:00     -415.139     -142.121       21.688      268.997      213.915      114.112    72359.222    45759.756    13021.435       16.205        6.557      438.792      135.395        0.095      335.636        6.398      856.623
04/26/2014  20:52:00     -482.855     -164.272      -12.864      280.076      217.897      105.933    78442.737    47478.912    11221.825       19.869        6.857      510.034      119.729        0.055      335.653        6.427      856.646
04/26/2014  20:53:00     -391.022     -256.269       -0.344      290.186      210.243      114.590    84208.150    44201.967    13130.875       18.003        7.077      467.517      149.983        0.103      335.676        6.465      856.665
04/26/2014  20:54:00     -363.249     -209.994      -17.902      197.942      207.018      113.519    39181.055    42856.305    12886.585       13.563        4.746      419.580      111.855        0.071      335.643        6.410      856.644
04/26/2014  20:55:00     -255.733      -96.124       16.640      217.989      196.360      103.828    47519.140    38557.302    10780.334        8.587        4.843      273.202      106.311        0.151      335.693        6.493      856.697
04/26/2014  20:56:00     -543.263     -206.297      -15.224      312.248      253.603      133.416    97498.561    64314.691    17799.899       25.873        8.981      581.114      142.461        0.060      335.620        6.370      856.682
04/26/2014  20:57:00     -402.535     -238.935       -2.938      250.668      215.986      116.862    62834.216    46649.839    13656.677       17.111        6.157      468.107      145.055        0.096      335.635        6.397      856.719
04/26/2014  20:58:00     -388.830     -129.317      -24.518      177.728      159.527       87.763    31587.184    25448.949     7702.342       11.661        3.237      409.771       78.369        0.037      335.634        6.395      856.718
04/26/2014  20:59:00     -355.170     -193.221        3.647      262.473      229.643      106.575    68892.149    52736.092    11358.284       14.821        6.649      404.327      114.462        0.080      335.598        6.335      856.701
04/26/2014  21:00:00     -473.603      -63.339       -9.273      284.217      162.906      119.575    80779.451    26538.361    14298.298       17.498        6.081      477.820      143.192        0.090      335.590        6.322      856.701
04/26/2014  21:01:00     -680.331     -143.481      -32.804      385.506      229.325      124.511   148614.807    52589.804    15503.107       35.057       10.835      695.297      164.682        0.056      335.590        6.321      856.667
04/26/2014  21:02:00     -383.044     -187.921       -1.639      273.596      189.872      124.197    74854.609    36051.282    15424.957       15.416        6.317      426.658      113.755        0.071      335.649        6.420      856.611
04/26/2014  21:03:00     -729.048     -133.711      -21.099      402.590      278.952      125.739   162078.378    77814.403    15810.263       40.272       12.785      741.208      152.219        0.042      335.608        6.353      856.608
04/26/2014  21:04:00     -602.264     -252.065        2.776      312.653      259.170      155.003    97751.736    67169.220    24025.793       30.757        9.447      652.885      160.703        0.061      335.625        6.381      856.624
04/26/2014  21:05:00     -557.632     -233.469      -15.320      353.577      258.028      156.532   125016.672    66578.388    24502.395       29.085       10.805      604.534      164.140        0.074      335.646        6.415      856.720
04/26/2014  21:06:00     -389.337     -102.734       21.423      307.341      219.509      127.501    94458.743    48184.121    16256.483       16.072        7.945      402.663      128.389        0.102      335.659        6.436      856.716
04/26/2014  21:07:00     -566.670     -217.038      -17.214      333.123      241.865      136.470   110971.069    58498.501    18624.149       27.827        9.405      606.811      141.592        0.054      335.608        6.353      856.778
04/26/2014  21:08:00     -568.827     -181.495      -24.004      283.881      260.261      137.506    80588.198    67735.934    18907.865       26.212        8.362      597.080      134.837        0.051      335.608        6.351      856.881
04/26/2014  21:09:00     -671.660      -78.328      -38.478      367.374      247.470      117.846   134963.837    61241.340    13887.743       33.438       10.505      676.212      151.484        0.050      335.579        6.304      856.972
04/26/2014  21:10:00     -458.233     -254.034      -18.301      261.606      189.616      121.899    68437.471    35954.341    14859.397       19.702        5.963      523.937      135.254        0.067      335.587        6.316      857.071
04/26/2014  21:11:00     -563.401      -73.293       -7.126      318.819      230.164      117.529   101645.605    52975.443    13813.038       24.560        8.422      568.148      145.083        0.065      335.536        6.231      857.092
04/26/2014  21:12:00     -539.439     -134.056      -20.205      343.238      270.898      124.502   117812.365    73385.772    15500.849       25.800       10.335      555.847      143.439        0.067      335.576        6.300      857.038
04/26/2014  21:13:00     -756.299     -161.508      -35.210      411.286      187.124      118.131   169155.952    35015.505    13955.038       40.868       10.906      773.352      144.764        0.035      335.540        6.239      857.037
04/26/2014  21:14:00     -300.485     -186.043       -3.826      333.637      216.386      109.698   111313.809    46823.036    12033.679       14.751        8.509      353.417      145.114        0.169      335.601        6.341      857.070
04/26/2014  21:15:00     -486.517     -250.101      -29.634      280.892      225.420      118.322    78900.352    50813.972    14000.192       22.189        7.186      547.037      139.148        0.065      335.539        6.238      857.123
04/26/2014  21:16:00     -506.401     -197.440      -27.369      404.251      256.053      143.982   163418.498    65563.250    20730.733       27.289       12.486      543.529      178.666        0.108      335.523        6.211      857.170
04/26/2014  21:17:00     -564.634     -330.371      -29.503      395.290      291.029      144.938   156253.811    84697.829    21007.020       34.534       13.098      654.184      181.597        0.077      335.529        6.219      857.247
04/26/2014  21:18:00     -479.848     -189.073       -4.321      411.182      217.823      130.429   169070.751    47446.941    17011.627       24.973       11.676      515.754      173.632        0.113      335.524        6.212      857.276
04/26/2014  21:19:00     -278.527      -35.947       12.836      253.135      171.383      107.816    64077.401    29372.176    11624.336        9.203        5.254      280.837      117.992        0.177      335.572        6.293      857.300
04/26/2014  21:20:00     -680.481     -180.037      -26.699      298.329      234.965      113.984    89000.257    55208.618    12992.438       32.666        7.860      703.895      120.983        0.030      335.521        6.207      857.338
04/26/2014  21:21:00     -492.202     -132.052      -29.446      358.581      211.690      112.607   128580.648    44812.567    12680.341       22.328        9.304      509.608      136.354        0.072      335.531        6.223      857.278
04/26/2014  21:22:00     -530.653     -115.614      -10.061      266.072      183.760      118.977    70794.407    33767.866    14155.548       20.687        5.936      543.102      117.789        0.047      335.529        6.220      857.261
04/26/2014  21:23:00     -575.172     -208.393      -18.034      379.048      242.020      128.241   143677.531    58573.505    16445.666       29.659       10.935      611.760      154.124        0.063      335.542        6.241      857.253
04/26/2014  21:24:00     -635.390     -135.430       10.127      359.435      242.748      135.499   129193.324    58926.719    18359.850       31.428       10.324      649.663      164.599        0.064      335.527        6.218      857.277
04/26/2014  21:25:00     -611.020     -108.580       -8.848      314.989      207.901      121.477    99218.054    43222.624    14756.712       27.117        7.860      620.593      144.078        0.054      335.527        6.218      857.303
04/26/2014  21:26:00     -468.621     -105.684        5.165      294.672      264.334      135.166    86831.500    69872.608    18269.854       20.285        8.749      480.390      146.422        0.093      335.533        6.228      857.271
04/26/2014  21:27:00     -633.781     -145.674      -29.385      298.424      207.801      112.284    89056.651    43181.184    12607.619       28.427        7.242      650.307      140.701        0.047      335.500        6.172      857.299
04/26/2014  21:28:00     -592.346      -94.147      -13.946      394.061      241.208      140.612   155284.164    58181.131    19771.696       29.654       11.662      599.781      195.143        0.106      335.488        6.152      857.296
04/26/2014  21:29:00     -777.281      -37.863      -59.232      304.584      210.378      109.321    92771.156    44259.109    11951.102       37.901        7.449      778.203      124.848        0.026      335.440        6.074      857.314
04/26/2014  21:30:00     -599.716      -10.163      -43.774      176.915      147.956       96.252    31298.933    21891.045     9264.376       21.205        3.123      599.802       90.372        0.023      335.437        6.067      857.377
04/26/2014  21:31:00     -628.150     -180.128      -23.426      261.598      243.079      119.431    68433.280    59087.521    14263.871       28.465        7.089      653.466      102.793        0.025      335.434        6.060      857.343
04/26/2014  21:32:00     -627.164     -106.308      -35.631      196.575      165.617       87.637    38641.588    27428.889     7680.263       23.981        3.688      636.110       86.226        0.018      335.437        6.067      857.403
04/26/2014  21:33:00     -420.850     -199.411      -15.743      228.905      201.891      109.534    52397.664    40759.892    11997.739       16.112        5.258      465.703      128.642        0.076      335.493        6.160      857.410
04/26/2014  21:34:00     -487.471      -46.018      -27.523      228.420      158.997       84.963    52175.807    25280.119     7218.670       16.257        4.234      489.638       94.259        0.037      335.457        6.101      857.434
04/26/2014  21:35:00     -506.308      -35.029      -10.930      353.198      233.675      124.796   124748.877    54603.982    15574.030       22.627        9.746      507.518      169.992        0.112      335.458        6.102      857.410
04/26/2014  21:36:00     -431.453     -138.562      -21.985      260.954      224.434      119.136    68097.025    50370.427    14193.282       16.922        6.633      453.157      109.846        0.059      335.435        6.064      857.412
04/26/2014  21:37:00     -404.724      -90.441      -10.035      273.964      199.862      109.526    75056.342    39944.660    11995.973       14.951        6.350      414.706      129.333        0.097      335.453        6.095      857.429
04/26/2014  21:38:00     -455.706      -77.279      -14.988      298.325      194.150      116.853    88997.997    37694.112    13654.647       17.708        7.017      462.212      128.462        0.077      335.453        6.094      857.420
04/26/2014  21:39:00     -344.450      -38.041       -1.973      212.288      167.880       93.971    45066.131    28183.839     8830.523       10.107        4.104      346.544      105.931        0.093      335.462        6.109      857.474
04/26/2014  21:40:00     -520.369      -72.515       -6.176      300.886      172.103      125.138    90532.623    29619.315    15659.407       20.592        6.791      525.398      157.408        0.090      335.445        6.080      857.492
04/26/2014  21:41:00     -627.868      -83.335      -22.756      243.924      192.935      110.922    59498.718    37223.937    12303.621       25.533        5.451      633.374      121.969        0.037      335.404        6.013      857.488
04/26/2014  21:42:00     -374.450      -95.426       -7.803      200.684      177.671       87.546    40274.118    31566.969     7664.300       11.443        3.975      386.418       85.174        0.049      335.443        6.077      857.453
04/26/2014  21:43:00     -527.164      -27.724      -22.904      200.260      209.692       90.607    40103.894    43970.691     8209.605       18.572        4.614      527.893       88.994        0.028      335.407        6.017      857.462
04/26/2014  21:44:00     -476.775       22.247      -30.143      224.831      147.227       95.796    50548.833    21675.681     9176.935       15.504        4.070      477.293      102.045        0.046      335.401        6.007      857.439
04/26/2014  21:45:00     -531.734      -67.951      -21.976      260.201      199.410       90.244    67704.324    39764.150     8144.069       20.170        5.781      536.058       90.139        0.028      335.420        6.039      857.475
04/26/2014  21:46:00     -314.919      -90.169       18.797      201.928      163.017       98.355    40774.958    26574.621     9673.673        9.232        3.851      327.573      108.566        0.110      335.448        6.084      857.515
04/26/2014  21:47:00     -407.160      -82.092      -18.561      175.018      175.752       71.100    30631.408    30888.690     5055.238       11.971        3.329      415.353       73.814        0.032      335.450        6.090      857.555
04/26/2014  21:48:00     -445.836      -64.433      -14.164      206.890      167.826       90.995    42803.645    28165.545     8280.107       14.117        3.962      450.467       92.493        0.042      335.446        6.083      857.588
04/26/2014  21:49:00     -423.632     -256.293        0.194      286.684      224.507      126.864    82187.645    50403.318    16094.592       19.689        7.434      495.126      162.775        0.108      335.452        6.092      857.564
04/26/2014  21:50:00     -188.431     -114.920        9.539      219.338      173.021       95.637    48109.085    29936.227     9146.383        6.798        4.360      220.710      108.802        0.243      335.501        6.173      857.577
04/26/2014  21:51:00     -334.439     -204.656        7.298      209.210      215.723       95.788    43768.847    46536.624     9175.346       12.661        4.974      392.089      104.647        0.071      335.482        6.142      857.597
04/26/2014  21:52:00     -380.690      -37.605      -21.321      162.790      150.410       70.978    26500.427    22623.221     5037.825       10.047        2.708      382.543       75.310        0.039      335.475        6.130      857.648
04/26/2014  21:53:00     -667.350     -102.010      -34.351      257.264      204.990      114.890    66184.593    42020.968    13199.781       28.915        6.070      675.101      124.643        0.034      335.407        6.018      857.533
04/26/2014  21:54:00     -394.768     -121.756      -17.140      191.446      129.984       81.517    36651.502    16895.819     6645.059       11.556        3.010      413.117       91.042        0.049      335.451        6.092      857.527
04/26/2014  21:55:00     -452.785     -152.043       -3.343      175.346      151.308       81.446    30746.246    22893.969     6633.436       14.420        3.014      477.631       77.997        0.027      335.460        6.105      857.499
04/26/2014  21:56:00     -430.999     -119.679      -35.940      276.293      236.801      119.550    76337.809    56074.483    14292.138       17.401        7.335      447.306      149.452        0.112      335.481        6.142      857.483
04/26/2014  21:57:00     -427.032       31.810       -8.773      219.394      170.252      108.773    48133.701    28985.805    11831.621       13.618        4.448      428.215      107.409        0.063      335.479        6.138      857.515
04/26/2014  21:58:00     -541.513      -81.759      -27.894      199.609      228.325      104.619    39843.693    52132.359    10945.111       20.179        5.146      547.651       98.921        0.033      335.471        6.123      857.544
04/26/2014  21:59:00     -247.745     -179.909       13.610      253.665      205.254      119.883    64345.782    42129.195    14372.043       10.736        6.042      306.178      130.531        0.182      335.518        6.201      857.572
04/26/2014  22:00:00     -263.872      -94.152       18.680      241.480      161.788       85.755    58312.716    26175.308     7353.895        8.532        4.592      280.166       76.847        0.075      335.527        6.218      857.596
04/26/2014  22:01:00     -525.800     -150.549      -32.799      281.284      225.863      110.269    79120.849    51014.107    12159.178       22.122        7.115      546.928      115.099        0.044      335.459        6.105      857.599
04/26/2014  22:02:00     -503.653     -136.423      -13.463      296.203      215.972      126.875    87736.168    46643.742    16097.288       21.144        7.524      521.802      119.431        0.052      335.471        6.123      857.569
04/26/2014  22:03:00     -384.351     -148.621       -0.840      259.771      175.064      103.046    67481.001    30647.297    10618.446       13.926        5.437      412.085      118.637        0.083      335.495        6.163      857.610
04/26/2014  22:04:00     -404.173      -27.635        2.514      235.850      158.699      103.927    55625.112    25185.465    10800.913       12.785        4.581      405.117      110.904        0.075      335.468        6.119      857.643
04/26/2014  22:05:00     -491.434     -151.558       -8.963      267.949      199.375      107.544    71796.472    39750.300    11565.785       19.381        6.156      514.273      117.978        0.053      335.457        6.100      857.611
04/26/2014  22:06:00     -377.309     -221.850      -16.049      259.731      234.823       99.594    67460.245    55141.845     9919.061       16.215        6.626      437.698      104.141        0.057      335.461        6.106      857.525
04/26/2014  22:07:00     -496.451     -310.010      -13.943      254.371      255.369      127.333    64704.662    65213.452    16213.600       24.442        7.307      585.295      136.986        0.055      335.432        6.059      857.462
04/26/2014  22:08:00     -506.057     -397.138        3.402      289.798      262.648      139.929    83982.940    68983.727    19580.168       29.315        8.627      643.282      134.298        0.044      335.444        6.077      857.415
04/26/2014  22:09:00     -334.254     -115.661       -9.164      285.639      132.354       95.630    81589.679    17517.469     9145.007       11.670        5.413      353.699      129.534        0.134      335.460        6.108      857.455
04/26/2014  22:10:00     -519.439     -167.908      -26.159      287.940      188.503       88.499    82909.163    35533.203     7832.123       21.246        6.314      545.903       91.811        0.028      335.406        6.015      857.456
04/26/2014  22:11:00     -605.499     -182.589      -38.465      203.056      202.403       97.614    41231.659    40967.056     9528.553       24.657        4.586      632.430       73.103        0.013      335.405        6.013      857.453
04/26/2014  22:12:00     -488.969     -169.155      -12.750      257.171      198.722      106.064    66136.718    39490.432    11249.620       19.235        5.844      517.401      125.295        0.059      335.406        6.013      857.430
04/26/2014  22:13:00     -443.824     -169.271      -12.099      239.296      181.910       96.820    57262.665    33091.095     9374.186       16.273        4.986      475.007      104.778        0.049      335.404        6.010      857.448
04/26/2014  22:14:00     -577.129      -57.727      -31.454      189.885      176.043       98.576    36056.424    30991.279     9717.287       20.707        3.838      580.009       99.974        0.030      335.378        5.969      857.486
04/26/2014  22:15:00     -240.398      -52.386       -2.323      144.116      119.367       62.642    20769.521    14248.491     3924.017        4.973        1.947      246.040       61.069        0.062      335.418        6.036      857.521
04/26/2014  22:16:00     -328.667     -118.411        1.014      212.327      176.550      103.043    45082.740    31169.949    10617.844       10.444        4.344      349.347      108.179        0.096      335.427        6.050      857.552
04/26/2014  22:17:00     -418.440     -302.929      -12.786      280.968      192.430      110.856    78943.000    37029.157    12289.095       19.762        6.413      516.583      136.837        0.070      335.444        6.078      857.581
04/26/2014  22:18:00     -698.381     -160.430      -44.149      242.077      259.250      114.609    58601.342    67210.342    13135.279       32.716        6.947      716.571      121.294        0.029      335.397        6.000      857.600
04/26/2014  22:19:00     -444.440     -277.047       -4.370      274.967      232.869      127.762    75606.803    54227.771    16323.004       21.020        7.308      523.720      148.614        0.081      335.402        6.009      857.580
04/26/2014  22:20:00     -633.167     -241.972      -29.172      331.587      218.501      112.154   109949.700    47742.697    12578.475       31.525        8.514      677.828      137.750        0.041      335.376        5.966      857.565
04/26/2014  22:21:00     -442.124     -183.620      -11.868      266.511      169.021      113.053    71028.194    28568.198    12780.898       17.083        5.619      478.738      127.514        0.071      335.384        5.980      857.526
04/26/2014  22:22:00     -508.880     -130.789      -28.117      270.754      220.487       97.627    73307.722    48614.338     9530.990       20.413        6.573      525.418       92.177        0.031      335.375        5.963      857.517
04/26/2014  22:23:00     -382.186     -112.879       12.612      274.842      210.166      111.895    75537.918    44169.893    12520.584       14.557        6.611      398.507      126.777        0.101      335.382        5.976      857.525
04/26/2014  22:24:00     -380.016      -78.454      -11.502      257.992      182.153      105.145    66559.928    33179.593    11055.399       13.073        5.540      388.030       83.005        0.046      335.381        5.973      857.475
04/26/2014  22:25:00     -405.583      -78.063      -22.199      256.970      177.672       98.886    66033.816    31567.384     9778.522       13.921        5.369      413.028      107.198        0.067      335.374        5.961      857.486
04/26/2014  22:26:00     -516.202     -104.464      -22.529      244.996      202.261       96.023    60022.922    40909.591     9220.354       19.400        5.508      526.666      108.094        0.042      335.359        5.935      857.458
04/26/2014  22:27:00     -661.127      -56.757      -46.591      268.433      191.132      106.317    72056.327    36531.496    11303.219       28.116        5.995      663.559      108.857        0.027      335.361        5.939      857.420
04/26/2014  22:28:00     -492.567      -78.606      -27.079      219.536      163.110       95.094    48195.938    26604.859     9042.873       16.667        4.192      498.800       98.593        0.039      335.385        5.982      857.444
04/26/2014  22:29:00     -406.987     -113.231      -11.943      225.269      172.772       89.948    50746.270    29849.992     8090.668       13.363        4.434      422.445      105.341        0.062      335.397        6.000      857.434
04/26/2014  22:30:00     -375.117     -118.213        1.833      291.560      190.230      109.389    85007.448    36187.598    11965.848       14.390        6.658      393.303      119.352        0.092      335.421        6.040      857.402
04/26/2014  22:31:00     -372.638     -144.075      -16.286      227.391      166.440       92.322    51706.813    27702.334     8523.298       12.389        4.397      399.520       66.031        0.027      335.437        6.067      857.440
04/26/2014  22:32:00     -227.936      -75.017       17.570      220.030      160.372       97.983    48413.360    25719.338     9600.626        7.080        4.187      239.963      107.954        0.202      335.451        6.091      857.426
04/26/2014  22:33:00     -381.147      -96.148       -3.376      226.415      161.440      102.979    51263.763    26063.035    10604.764       12.121        4.397      393.087      106.266        0.073      335.417        6.033      857.340
04/26/2014  22:34:00     -546.208     -110.684      -23.198      204.165      193.781       96.242    41683.373    37551.143     9262.534       19.980        4.425      557.310       96.623        0.030      335.398        6.004      857.286
04/26/2014  22:35:00     -475.358      -25.830      -19.525      277.221      177.766       99.149    76851.645    31600.768     9830.508       17.262        5.914      476.059      133.431        0.079      335.406        6.017      857.265
04/26/2014  22:36:00     -491.459      -89.551      -12.812      193.822      182.448       93.629    37566.952    33287.428     8766.336       16.465        3.981      499.551       93.760        0.035      335.381        5.973      857.261
04/26/2014  22:37:00     -310.525      -99.974      -12.392      184.527      151.623       77.544    34050.148    22989.542     6013.145        8.480        3.153      326.221       78.818        0.058      335.426        6.049      857.275
04/26/2014  22:38:00     -492.377      -74.678      -17.345      359.705      192.597      107.954   129387.877    37093.493    11653.971       21.319        8.907      498.008      155.872        0.098      335.442        6.076      857.252
04/26/2014  22:39:00     -596.048     -142.699      -28.546      289.264      200.766      121.473    83673.385    40307.115    14755.783       25.757        6.937      612.891      153.557        0.063      335.406        6.015      857.262
04/26/2014  22:40:00     -455.927      -73.154      -17.201      265.833      198.168      122.463    70666.969    39270.622    14997.155       16.920        6.247      461.759      132.551        0.082      335.392        5.992      857.229
04/26/2014  22:41:00     -572.945      -34.316      -46.307      206.957      168.639       89.859    42831.205    28439.221     8074.575       20.545        3.967      573.972       82.565        0.021      335.394        5.996      857.236
04/26/2014  22:42:00     -453.017      -77.198      -19.585      265.827      174.823       96.596    70664.129    30563.076     9330.813       16.104        5.528      459.547      113.356        0.061      335.406        6.015      857.274
04/26/2014  22:43:00     -324.715      -47.324       -5.700      191.966      132.208       79.493    36850.774    17478.823     6319.074        8.417        3.032      328.145       83.840        0.065      335.435        6.064      857.324
04/26/2014  22:44:00     -507.568      -42.403      -19.647      285.332      170.006      108.456    81414.394    28902.093    11762.679       19.092        6.104      509.336      116.546        0.052      335.389        5.988      857.351
04/26/2014  22:45:00     -661.099     -113.540      -33.802      314.167      201.487      115.047    98700.708    40597.053    13235.804       30.178        7.627      670.778      132.110        0.039      335.370        5.955      857.353
04/26/2014  22:46:00     -597.024      -97.199      -33.979      235.639      223.306       95.393    55525.861    49865.601     9099.832       24.074        5.725      604.884       95.977        0.025      335.370        5.956      857.357
04/26/2014  22:47:00     -428.946       -9.899      -31.550      169.015      145.767       89.498    28566.095    21247.945     8009.929       12.144        2.891      429.061       84.169        0.038      335.390        5.990      857.352
04/26/2014  22:48:00     -592.451      -87.156      -28.933      227.782      155.480       86.752    51884.757    24174.098     7525.896       22.149        4.179      598.828      109.440        0.033      335.402        6.008      857.367
04/26/2014  22:49:00     -652.028      -13.453      -37.713      238.541      163.691      100.032    56901.721    26794.641    10006.466       26.020        4.685      652.167      116.501        0.032      335.407        6.016      857.414
04/26/2014  22:50:00     -383.041     -129.995      -17.505      256.155      162.062       92.979    65615.386    26264.207     8645.152       13.221        5.026      404.499       92.352        0.052      335.429        6.055      857.434
04/26/2014  22:51:00     -646.083     -218.377      -15.474      287.899      186.367      100.200    82885.711    34732.594    10040.030       29.648        6.383      681.991      109.912        0.026      335.410        6.023      857.457
04/26/2014  22:52:00     -470.298      -73.858       -9.693      261.411      173.969       92.678    68335.904    30265.083     8589.228       16.694        5.360      476.062      104.962        0.049      335.431        6.057      857.442
04/26/2014  22:53:00     -517.968      -18.476      -39.741      213.169      154.745       84.983    45440.826    23946.054     7222.047       17.339        3.830      518.297       81.245        0.025      335.421        6.041      857.446
04/26/2014  22:54:00     -519.772      -74.538      -42.178      213.299      172.544       91.809    45496.325    29771.459     8428.855       18.058        4.185      525.089       99.414        0.036      335.407        6.017      857.436
04/26/2014  22:55:00     -450.688      -88.260      -15.838      233.210      167.810       98.296    54386.703    28160.076     9662.086       15.167        4.610      459.249      100.408        0.048      335.400        6.005      857.377
04/26/2014  22:56:00     -539.866     -115.484      -10.647      246.320      149.369       91.371    60673.596    22311.198     8348.692       19.810        4.567      552.080      100.125        0.033      335.417        6.034      857.350
04/26/2014  22:57:00     -462.456      -52.661      -18.045      221.196      143.700      100.807    48927.496    20649.564    10161.987       14.834        3.987      465.445      110.365        0.056      335.442        6.075      857.389
04/26/2014  22:58:00     -464.442       -0.799      -36.751      229.419      166.476       94.545    52632.923    27714.299     8938.753       15.315        4.464      464.442      103.489        0.050      335.469        6.120      857.369
04/26/2014  22:59:00     -459.280      -25.669       -6.873      244.822      191.033      104.559    59937.688    36493.642    10932.481       15.948        5.368      459.996      114.733        0.062      335.466        6.115      857.413
04/26/2014  23:00:00     -357.537      -14.697        5.593      177.450      175.167       86.689    31488.590    30683.318     7514.901        9.887        3.484      357.839       87.413        0.060      335.465        6.112      857.432
04/26/2014  23:01:00     -466.126     -126.826      -30.588      161.959      197.187       83.710    26230.764    38882.650     7007.427       15.319        3.606      483.072       76.602        0.025      335.467        6.116      857.386
04/26/2014  23:02:00     -245.064      -85.368        5.726      218.951      131.101       91.714    47939.709    17187.391     8411.495        7.044        3.677      259.507      106.645        0.169      335.481        6.141      857.445
04/26/2014  23:03:00     -632.579     -126.255      -36.856      215.639      189.293      106.518    46500.221    35831.967    11346.114       25.555        4.684      645.056      101.174        0.025      335.424        6.044      857.471
04/26/2014  23:04:00     -543.988     -150.974      -32.240      216.744      246.957      105.582    46977.878    60987.944    11147.618       21.941        5.956      564.550      106.556        0.036      335.420        6.039      857.513
04/26/2014  23:05:00     -657.364     -113.595      -23.198      298.476      199.013      105.239    89087.792    39606.082    11075.160       29.264        6.988      667.107      129.578        0.038      335.429        6.054      857.517
04/26/2014  23:06:00     -509.507      -11.105      -17.868      223.831      182.568      105.369    50100.341    33331.028    11102.705       17.727        4.727      509.628      116.790        0.053      335.431        6.058      857.540
04/26/2014  23:07:00     -585.255     -124.205      -36.995      240.011      241.854      107.710    57605.440    58493.380    11601.528       24.348        6.385      598.290      114.428        0.037      335.445        6.080      857.595
04/26/2014  23:08:00     -612.754      -46.707      -49.672      279.775      220.192      102.840    78273.962    48484.409    10576.109       25.870        6.867      614.531      122.287        0.040      335.422        6.042      857.606
04/26/2014  23:09:00     -497.432     -129.321       -9.016      251.967      182.602      111.890    63487.521    33343.620    12519.295       18.677        5.468      513.967      122.296        0.057      335.412        6.025      857.587
04/26/2014  23:10:00     -667.753      -56.012      -24.708      232.874      206.197      107.973    54230.311    42517.016    11658.078       27.900        5.420      670.098      107.188        0.026      335.413        6.026      857.543
04/26/2014  23:11:00     -441.040     -140.917       -8.743      215.877      158.808      104.184    46602.835    25219.901    10854.241       14.855        4.134      463.005       97.635        0.044      335.431        6.058      857.579
04/26/2014  23:12:00     -519.273     -108.357      -37.299      231.661      182.176      102.174    53666.914    33188.114    10439.571       19.002        4.865      530.458      101.488        0.037      335.432        6.058      857.579
04/26/2014  23:13:00     -375.237      -93.348       -5.604      266.865      217.302      108.519    71216.832    47220.091    11776.283       13.985        6.511      386.674      123.408        0.102      335.431        6.057      857.567
04/26/2014  23:14:00     -340.382      -41.822       -6.291      216.535      212.682      110.914    46887.322    45233.475    12302.011       11.101        5.221      342.942      108.742        0.101      335.433        6.060      857.563
04/26/2014  23:15:00     -524.991      -52.407      -34.569      236.945      141.239       91.060    56143.017    19948.480     8291.851       18.195        4.219      527.601      105.745        0.040      335.434        6.061      857.585
04/26/2014  23:16:00     -529.920     -195.449      -23.708      336.029      221.292      124.659   112915.323    48970.247    15539.823       24.847        8.871      564.815      157.206        0.077      335.440        6.072      857.574
04/26/2014  23:17:00     -347.247     -158.957       -0.302      233.428      196.741      100.364    54488.557    38707.037    10072.912       12.454        5.163      381.900      116.572        0.093      335.454        6.096      857.577
04/26/2014  23:18:00     -414.637     -101.057        4.588      168.186      160.656       77.761    28286.449    25810.294     6046.838       12.114        3.007      426.774       80.995        0.036      335.415        6.031      857.548
04/26/2014  23:19:00     -536.419      -85.258      -18.450      217.675      171.737       99.935    47382.422    29493.679     9986.997       19.109        4.343      543.152      106.066        0.038      335.397        6.000      857.519
04/26/2014  23:20:00     -462.735     -127.249      -27.153      249.612      168.113       98.371    62305.982    28262.019     9676.769       16.563        5.012      479.913      104.827        0.048      335.385        5.979      857.504
04/26/2014  23:21:00     -499.609      -58.754      -32.509      206.534      193.748      103.514    42656.236    37538.213    10715.081       17.250        4.545      503.052       93.896        0.035      335.365        5.947      857.482
04/26/2014  23:22:00     -454.195     -147.644      -39.541      229.705      216.575      108.400    52764.422    46904.593    11750.652       17.052        5.571      477.590      129.504        0.074      335.359        5.937      857.421
04/26/2014  23:23:00     -427.620      -35.787      -19.010      196.794      151.629       87.033    38727.974    22991.313     7574.811       12.688        3.465      429.115       94.472        0.048      335.326        5.882      857.353
04/26/2014  23:24:00     -482.356     -106.454      -12.518      293.686      235.521      100.187    86251.448    55469.946    10037.459       19.793        7.588      493.963      106.290        0.046      335.346        5.915      857.250
04/26/2014  23:25:00     -427.138     -159.829      -28.541      322.255      251.722      106.600   103848.541    63363.750    11363.461       19.365        8.929      456.061      149.188        0.107      335.405        6.012      857.226
04/26/2014  23:26:00     -520.642     -108.847      -25.175      251.967      186.314      108.470    63487.255    34712.794    11765.640       19.674        5.498      531.898      131.242        0.061      335.403        6.010      857.216
04/26/2014  23:27:00     -329.646     -128.351        2.258      241.271      233.506      120.756    58211.641    54525.137    14582.066       12.621        6.366      353.752      134.010        0.144      335.397        6.002      857.168
04/26/2014  23:28:00     -441.587      -55.507      -22.801      255.452      165.079       99.370    65255.577    27251.225     9874.372       15.047        5.119      445.062      133.123        0.089      335.362        5.943      857.187
04/26/2014  23:29:00     -382.213      -71.320       -4.704      297.410      171.552      108.886    88452.952    29430.198    11856.102       14.044        6.487      388.810      142.582        0.134      335.364        5.947      857.172
04/26/2014  23:30:00     -386.823      -72.766      -22.397      173.490      163.186       88.650    30098.638    26629.800     7858.903       11.000        3.229      393.608       82.897        0.044      335.340        5.905      857.161
04/26/2014  23:31:00     -275.416     -126.808       -9.221      177.764      126.640       74.692    31599.955    16037.686     5578.959        7.261        2.661      303.207       76.513        0.064      335.350        5.922      857.159
04/26/2014  23:32:00     -459.927     -170.980      -24.186      263.676      229.343      108.372    69525.235    52598.087    11744.462       18.758        6.693      490.680      125.796        0.066      335.347        5.916      857.110
04/26/2014  23:33:00     -346.987     -164.739       -9.030      183.077      109.792       64.254    33517.067    12054.229     4128.593        9.865        2.485      384.108       63.161        0.027      335.336        5.900      857.062
04/26/2014  23:34:00     -153.464      -74.941        1.319      145.536      106.064       63.400    21180.710    11249.578     4019.531        3.280        1.822      170.785       70.172        0.169      335.370        5.956      857.040
04/26/2014  23:35:00     -277.217     -140.170       -0.266      138.949      124.845       68.483    19306.806    15586.284     4689.867        6.803        1.979      310.639       72.079        0.054      335.371        5.958      857.062
04/26/2014  23:36:00     -564.423      -68.950      -29.640      338.068      167.183      117.863   114290.249    27950.293    13891.704       24.014        7.807      568.619      160.225        0.079      335.358        5.935      857.050
04/26/2014  23:37:00     -240.132      -63.908       -5.054      205.079      160.162       83.881    42057.211    25651.720     7036.084        6.824        3.737      248.491       91.683        0.136      335.400        6.005      857.020
04/26/2014  23:38:00     -321.174     -107.435       13.242      245.127      212.094      110.002    60087.295    44983.772    12100.391       11.600        5.859      338.667      122.039        0.130      335.449        6.086      857.086
04/26/2014  23:39:00     -540.658     -183.446      -35.012      355.635      236.146      122.937   126476.342    55764.964    15113.420       26.223        9.868      570.932      155.281        0.074      335.460        6.105      857.085
04/26/2014  23:40:00     -406.489     -134.062      -19.116      228.726      205.433       91.209    52315.610    42202.882     8319.117       14.318        5.142      428.026      102.852        0.058      335.470        6.122      857.113
04/26/2014  23:41:00     -253.459     -172.787       -0.476      256.791      211.268      102.807    65941.537    44634.378    10569.300       10.760        6.057      306.752      133.661        0.190      335.475        6.132      857.164
04/26/2014  23:42:00     -361.734     -101.891       -2.023      194.414      184.314       98.584    37796.810    33971.674     9718.787       11.135        4.074      375.810      102.331        0.074      335.460        6.106      857.209
04/26/2014  23:43:00     -284.408      -83.400        6.600      255.226      183.393      106.964    65140.171    33633.082    11441.191        9.903        5.511      296.383      125.152        0.178      335.459        6.105      857.179
04/26/2014  23:44:00     -278.138      -65.146      -11.982      162.064      157.827       67.952    26264.896    24909.292     4617.512        6.876        2.790      285.666       78.005        0.075      335.451        6.092      857.250
04/26/2014  23:45:00     -126.578       26.066       18.840      146.836       91.915       84.338    21560.821     8448.337     7112.907        2.708        1.856      129.234       56.831        0.193      335.466        6.116      857.242
04/26/2014  23:46:00     -473.683      -12.135      -35.781      220.779      149.337       81.998    48743.435    22301.648     6723.690       15.177        3.888      473.839       75.360        0.025      335.417        6.035      857.235
04/26/2014  23:47:00     -317.394      -72.658      -15.375      173.956      156.814       88.399    30260.656    24590.647     7814.304        8.445        3.133      325.604       85.721        0.069      335.419        6.037      857.224
04/26/2014  23:48:00     -320.449     -185.272      -15.522      202.458      127.299       75.920    40989.271    16205.018     5763.911       10.009        3.148      370.153       96.255        0.068      335.446        6.081      857.238
04/26/2014  23:49:00     -206.095      -38.876       -2.286      126.579      114.825       67.139    16022.366    13184.851     4507.598        3.885        1.686      209.729       67.201        0.103      335.446        6.082      857.268
04/26/2014  23:50:00     -360.745     -104.519      -35.744      230.919      161.935       93.031    53323.767    26223.044     8654.743       11.525        4.410      375.581       94.242        0.063      335.438        6.069      857.281
04/26/2014  23:51:00     -101.891       -6.653        2.778       95.791       81.746       54.825     9175.865     6682.456     3005.734        1.465        0.943      102.108       47.921        0.220      335.416        6.034      857.295
04/26/2014  23:52:00     -244.803      -26.848       19.506      252.427      145.405       96.105    63719.355    21142.735     9236.189        7.755        4.705      246.270      137.726        0.313      335.429        6.053      857.294
04/26/2014  23:53:00     -146.267      -85.144      -12.574      178.489      145.277       76.613    31858.250    21105.367     5869.533        4.381        2.942      169.244       83.760        0.245      335.434        6.063      857.355
04/26/2014  23:54:00     -270.318     -114.655      -11.101      132.145      109.378       62.567    17462.419    11963.617     3914.686        5.983        1.667      293.628       59.328        0.041      335.412        6.025      857.346
04/26/2014  23:55:00     -149.132       -8.218        4.489      134.875       87.450       62.615    18191.356     7647.576     3920.599        2.604        1.488      149.358       72.808        0.238      335.392        5.994      857.374
04/26/2014  23:56:00     -141.316        6.220       -8.967      121.822       75.285       56.406    14840.506     5667.801     3181.658        2.188        1.184      141.453       59.826        0.179      335.399        6.007      857.386
04/26/2014  23:57:00     -239.674       19.113      -27.746      176.159       95.303       64.157    31032.003     9082.709     4116.114        5.140        2.212      240.435       77.507        0.104      335.380        5.971      857.339
04/26/2014  23:58:00     -208.848     -166.875      -22.762      122.250       88.766       68.971    14944.943     7879.464     4756.944        4.978        1.379      267.329       64.294        0.058      335.404        6.013      857.334
04/26/2014  23:59:00     -206.725      -36.251       -2.379      166.980      129.808       78.799    27882.187    16849.988     6209.235        4.749        2.547      209.879       71.056        0.115      335.378        5.969      857.309
